     2              OBSERVATION DATA    GPS                 RINEX VERSION / TYPE
teqc 1997Jun30 19970702                                     PGM / RUN BY / DATE
                                                            COMMENT
BIT 2 OF LLI FLAGS DATA COLLECTED UNDER A-S CONDITION       COMMENT
BIT 2 OF LLI FLAGS DATA COLLECTED UNDER A-S CONDITION       COMMENT
Original Marker Name: HMCP                                  COMMENT
Campaign Name: HMC San Gabriel Valley 1993-1996             COMMENT
4-Character Station Name: HMCP                              COMMENT
6-Character Antenna Code: DMRCHT                            COMMENT
Vertical Measurement Point: BPA                             COMMENT
Vertical Offset to Rinex Ref. Point: 0.0000                 COMMENT
Radial Measurement Point: RRP                               COMMENT
Radial Offset to Rinex Ref. Point: 0.0000                   COMMENT
Antenna Height from Field Measurement: 0.0000 m             COMMENT
Additional Antenna Identification Info.:                    COMMENT
Turborogue and Ashtech Choke Ring                           COMMENT
Fixed antenna mounting on roof of Parsons                   COMMENT
building, HMC.                                              COMMENT
Original XYZ: -2458640.3874 -4680521.4679 3556489.3831      COMMENT
New XYZ position is based on association with SCEC monument COMMENT
E1D0R2C7+0011. Position of that monument is believed to be  COMMENT
valid to within 1 m horizontally; vertical accuracy         COMMENT
should be no worse than 3-times this value.                 COMMENT
                                                            COMMENT
Revised Rinex header created by UCSD GPS archive for        COMMENT
GSAC on 13-Apr-1999 (1999:103) 20:05:22 GMT                 COMMENT
For assistance contact dagnew@ucsd.edu or hjohnson@ucsd.edu COMMENT
                                                            COMMENT
HARVEY MUDD COLLEGE PHYSICS                                 MARKER NAME
MGB HARVEY MUDD COLLEGE                                     OBSERVER / AGENCY
T-262/263 TURBOROGUE SNR-8000 95.03.08                      REC # / TYPE / VERS
260/329 DORNE-MARGOL. TYPE T                                ANT # / TYPE
 -2458598.0000 -4680494.0000  3556451.0000                  APPROX POSITION XYZ
        0.0000        0.0000        0.0000                  ANTENNA: DELTA H/E/N
     1     1     0                                          WAVELENGTH FACT L1/2
     5    L1    L2    C1    P2    P1                        # / TYPES OF OBSERV
     0                                                      INTERVAL
  1996     4     3     0     0    0.000000                  TIME OF FIRST OBS
  1996     4     3    23    59   30.000000                  TIME OF LAST OBS
     0                                                      # OF SATELLITES
                                                            END OF HEADER
 96  4  3  0  0  0.0000000  0  8G 4G 6G 9G 7G16G20G24G 5
 -12346921.55944  -9620967.10544  21677688.9474   21677689.2424
    -70970.12444    -55302.08844  24725209.5844   24725211.8994
 -15139326.06944 -11796871.64744  22080171.8374   22080172.8604
  -6037177.75544  -4704285.81544  23957457.8694   23957457.9424
   -943401.88144   -735116.97844  24167872.1784   24167875.3114
 -10337227.22844  -8054976.81944  22987166.5014   22987168.5904
 -20664340.28944 -16102069.70044  20397850.4564   20397851.0614
 -21776324.80344 -16968556.32644  20932546.6514   20932546.8244
 96  4  3  0  0 30.0000000  0  8G 4G 6G 9G 7G16G20G24G 5
 -12274168.91844  -9564276.74644  21691533.2834   21691533.0204
   -141900.09044   -110572.11844  24711713.0844   24711713.4214
 -15069363.29644 -11742355.22744  22093485.3034   22093486.5324
  -5967590.36944  -4650061.86244  23970699.3484   23970702.8874
  -1037938.80944   -808782.00544  24149882.8764   24149885.7784
 -10430478.51344  -8127640.11044  22969421.4334   22969422.4064
 -20660018.06144 -16098701.72044  20398672.9964   20398673.5844
 -21831331.54644 -17011418.71844  20922078.9944   20922079.1494
 96  4  3  0  1  0.0000000  0  8G 4G 6G 9G 7G16G20G24G 5
 -12201132.53744  -9507365.28444  21705431.4194   21705431.2104
   -212795.65244   -165815.31744  24698221.0434   24698224.4674
 -14999110.82544 -11687613.06544  22106853.9304   22106854.8754
  -5897964.87444  -4595808.21644  23983949.6744   23983951.6344
  -1132520.02344   -882481.54044  24131883.5614   24131888.2844
 -10523631.94844  -8200227.19544  22951695.7724   22951696.1664
 -20655190.13544 -16094939.68944  20399591.7934   20399592.4974
 -21886011.99844 -17054026.85444  20911673.7264   20911673.4434
 96  4  3  0  1 30.0000000  0  8G 4G 6G 9G 7G16G20G24G 5
 -12127794.54744  -9450218.81344  21719386.9624   21719386.7964
   -283654.41444   -221029.82244  24684735.7454   24684739.5104
 -14928549.96944 -11632630.60144  22120281.1674   22120281.6454
  -5828287.12844                  23997207.7494
  -1227117.84944   -956194.02644  24113882.4914   24113885.4304
 -10616672.45944  -8272726.25344  22933989.7864   22933990.2654
 -20649851.88444 -16090780.00344  20400607.6754   20400608.4684
 -21940340.60544 -17096360.82244  20901335.6004   20901335.3894
 96  4  3  0  2  0.0000000  0  8G 4G 6G 9G 7G16G20G24G 5
 -12054127.93744  -9392816.27244  21733405.5204   21733405.4934
   -354479.27344   -276217.99644  24671257.9064
 -14857636.70844 -11577373.54144  22133775.4524   22133776.0514
  -5758554.13044  -4487176.56944  24010477.5294
  -1321701.29144  -1029895.29444  24095884.1434   24095886.8984
 -10709590.06544  -8345129.56744  22916308.3174   22916308.7664
 -20644003.35144 -16086222.69744  20401720.6144   20401721.0874
 -21994295.84344 -17138403.85844  20891068.2264   20891068.0004
 96  4  3  0  2 30.0000000  0  8G 4G 6G 9G 7G16G20G24G 5
 -11980109.82944  -9335139.83244  21747490.8994   21747490.5704
   -425275.13844   -331383.55844  24657785.9874
 -14786334.70344 -11521813.56244  22147344.5044   22147344.7474
  -5688788.47244  -4432813.72444  24023753.9174   24023754.6434
  -1416273.98344  -1103588.20744  24077887.1164   24077889.5934
 -10802381.54744  -8417434.58944  22898650.3894   22898651.7794
 -20637645.03044 -16081268.15344  20402930.3284   20402930.9264
 -22047872.72844 -17180152.07444  20880872.7534   20880873.1044
 96  4  3  0  3  0.0000000  0  8G 4G 6G 9G 7G16G20G24G 5
 -11905745.69144  -9277193.75944  21761641.9514   21761641.6774
   -496048.35544   -386531.52244  24644317.7924   24644319.3684
 -14714677.30944 -11465976.65444  22160980.0624   22160980.3724
  -5619021.13144  -4378449.61344  24037030.6034   24037031.2784
  -1510869.05344  -1177298.53444  24059886.2394   24059889.3974
 -10895058.05144  -8489650.01144  22881015.0564   22881015.3754
 -20630794.92344 -16075930.39644  20404233.8314   20404234.4264
 -22101100.46344 -17221628.22244  20870743.6754   20870743.6804
 96  4  3  0  3 30.0000000  0  8G 4G 6G 9G 7G16G20G24G 5
 -11831053.51244  -9218992.07544  21775855.3794   21775854.9164
   -566800.90344   -441663.35344  24630853.7824   24630856.5974
 -14642674.07044 -11409870.25344  22174681.5424   22174682.4584
  -5549267.29944  -4324096.00744  24050304.9124   24050306.7284
  -1605489.43744  -1251028.58644  24041880.4084   24041882.6654
 -10987615.92144  -8561772.99944  22863401.0574   22863402.2694
 -20623466.93944 -16070220.27244  20405628.4974   20405629.1054
 -22153992.59244 -17262842.86344  20860678.6984   20860678.5584
 96  4  3  0  4  0.0000000  0  8G 4G 6G 9G 7G16G20G24G 5
 -11756038.88644  -9160539.12344  21790130.6304   21790130.0954
   -637507.64444   -496759.46544  24617399.3394   24617399.9344
 -14570320.95844 -11353491.23144  22188449.5154   22188450.4704
  -5479513.33444  -4269742.31244  24063577.7704   24063580.3124
  -1700113.35044  -1324761.40144  24023873.2074   24023876.2394
 -11080039.44544  -8633791.31044  22845813.4414   22845814.4724
 -20615643.38544 -16064123.99044  20407117.2124   20407117.7344
 -22206532.78944 -17303783.26944  20850680.6514   20850680.6324
 96  4  3  0  4 30.0000000  0  8G 4G 6G 9G 7G16G20G24G 5
 -11680715.67344  -9101845.72144  21804463.6964   21804463.3914
   -708150.58844   -551805.86944  24603955.1104   24603958.3824
 -14497636.02944 -11296853.65844  22202280.9174   22202281.6804
  -5409736.36144  -4215370.74444  24076855.4634   24076858.5064
  -1794741.94444  -1398497.83944  24005866.4674   24005868.1524
 -11172307.93844  -8705688.80544  22828255.5384   22828256.1954
 -20607315.90044 -16057635.03344  20408701.7794   20408702.3174
 -22258722.81144 -17344450.81644  20840749.0974   20840749.1904
 96  4  3  0  5  0.0000000  0  8G 4G 6G 9G 7G16G20G24G 5
 -11605097.71544  -9042922.65244  21818853.4024   21818852.9834
   -778714.17444   -606790.38844  24590527.3424   24590532.1664
 -14424620.19544 -11239958.24044  22216175.7194   22216176.8154
  -5339911.94244  -4160962.19044  24090142.4874   24090145.2634
  -1889354.88144  -1472222.06944  23987861.8054   23987863.1364
 -11264396.28444  -8777445.91944  22810731.6854   22810732.9724
 -20598469.89944 -16050742.04044  20410385.1194   20410385.5514
 -22310553.60644 -17384838.44444  20830886.0784   20830886.0534
 96  4  3  0  5 30.0000000  0  8G 4G 6G 9G 7G16G20G24G 5
 -11529189.09644  -8983773.08744  21833298.1774   21833297.8094
   -849205.95044   -661718.97144  24577112.5754   24577117.0314
 -14351256.06444 -11182791.41544  22230136.8954   22230137.0484
  -5270043.99144  -4106519.72944  24103438.2004   24103438.6134
  -1983944.40844  -1545928.10744  23969862.3894   23969865.7264
 -11356295.48944  -8849055.66044  22793244.2094   22793245.1354
 -20589121.52744 -16043457.58644  20412163.8204   20412164.3484
 -22362015.30244 -17424938.46644  20821093.5914   20821093.1524
 96  4  3  0  6  0.0000000  0  8G 4G 6G 9G 7G16G20G24G 5
 -11452957.58344  -8924371.91244  21847804.7104   21847804.3974
   -919620.39844   -716587.30344  24563714.1714   24563716.5284
 -14277534.52144 -11125346.07644  22244166.3294   22244166.6614
  -5200126.49144  -4052038.60044  24116743.0614   24116743.6124
  -2078503.24944  -1619610.19544  23951868.8694   23951870.8704
 -11448008.65544  -8920520.42744  22775791.0884   22775792.3544
 -20579271.41644 -16035782.16844  20414038.4744   20414038.9404
 -22413103.06344 -17464747.10944  20811371.6294   20811371.3924
 96  4  3  0  6 30.0000000  0  8G 4G 6G 9G 7G16G20G24G 5
 -11376412.08044  -8864726.07844  21862370.5294   21862370.0874
   -989982.13144   -771414.59344  24550323.9574   24550327.1614
 -14203475.78144 -11067637.99444  22258258.7114   22258259.2684
  -5130190.89844  -3997543.33444  24130052.6224   24130051.8984
  -2173050.00744  -1693282.94944  23933877.0434   23933879.3724
 -11539552.41244  -8991853.21244  22758370.8524   22758371.2914
 -20568924.24944 -16027719.43744  20416007.2364   20416007.9434
 -22463854.32744 -17504293.54144  20801713.7654   20801713.6304
 96  4  3  0  7  0.0000000  0  8G 4G 6G 9G 7G16G20G24G 5
 -11299551.79244  -8804834.95544  21876996.2154   21876995.8734
  -1060309.03344   -826214.70444  24536940.6044   24536943.5124
 -14129085.71344 -11009671.73044  22272414.2964   22272414.6394
  -5060257.81044  -3943050.04744  24143359.9104   24143358.7854
  -2267580.06644  -1766942.66744  23915888.5544   23915889.4824
 -11630949.55044  -9063071.73244  22740978.8754   22740979.2684
 -20558077.14544 -16019267.13944  20418071.3734   20418071.9654
 -22514283.55244 -17543589.04144  20792117.5864   20792117.2984
 96  4  3  0  7 30.0000000  0  8G 4G 6G 9G 7G16G20G24G 5
 -11222375.58144  -8744697.66544  21891682.9494   21891682.4634
  -1130610.61244   -880995.05544  24523563.0384   24523565.8834
 -14054398.72944 -10951474.10744  22286626.7914   22286627.3584
  -4990333.65044  -3888563.71944  24156665.6854   24156668.3774
  -2362094.88944  -1840590.51344  23897902.8054   23897907.1394
 -11722221.80544  -9134192.94544  22723610.4654   22723610.6554
 -20546745.78244 -16010437.50044  20420227.8644   20420228.4644
 -22564404.01444 -17582643.94344  20782580.1054   20782579.8134
 96  4  3  0  8  0.0000000  0  8G 4G 6G 9G 7G16G20G24G 5
 -11144896.76144  -8684324.57044  21906426.4204   21906425.9754
  -1200881.67044   -935751.72644  24510191.6044   24510192.3864
 -13979428.45944 -10893055.73844  22300892.6234   22300893.7144
  -4920403.62644  -3834072.86144  24169972.1954   24169976.1344
  -2456578.82944  -1914214.26944  23879922.5744   23879926.0114
 -11813374.45244  -9205220.96844  22706264.7444   22706265.8994
 -20534901.95644 -16001208.53844  20422481.4984   20422482.1404
 -22614213.10044 -17621456.21644  20773101.3514   20773101.6504
 96  4  3  0  8 30.0000000  0  8G 4G 6G 9G 7G16G20G24G 5
 -11067109.56944  -8623711.17744  21921229.0104   21921228.4564
  -1271100.52144   -990467.65244  24496829.0744   24496828.4024
 -13904152.03744 -10834398.81744  22315217.6164   22315219.3334
  -4850426.33444  -3779545.15344  24183289.4144   24183291.3564
  -2551002.78244  -1987791.31544  23861954.0804   23861959.0804
 -11904372.63644  -9276128.61044  22688947.8244   22688949.4234
 -20522504.68644 -15991548.32044  20424840.6654   20424841.2514
 -22663671.83144 -17659995.48244  20763689.8864   20763689.7624
 96  4  3  0  9  0.0000000  0  8G 4G 6G 9G 7G16G20G24G 5
 -10989009.44844  -8562853.95044  21936091.2704   21936090.9254
  -1341253.28644  -1045132.11944  24483478.4494   24483481.4794
 -13828560.31744 -10775496.22044  22329602.2614   22329603.7554
  -4780380.80344  -3724964.32944  24196618.7184   24196620.1924
  -2645367.41544  -2061322.11144  23843996.9574   23844000.2234
 -11995212.36944  -9346912.79544  22671661.9214   22671661.7994
 -20509579.47644 -15981476.72444  20427300.2214   20427300.7224
 -22712747.07344 -17698235.92844  20754351.1054   20754350.7144
 96  4  3  0  9 30.0000000  0  8G 4G 6G 9G 7G16G20G24G 5
 -10910610.66844  -8501764.00644  21951009.9224   21951009.6394
  -1411342.83044  -1099747.27444  24470141.6824   24470143.1594
 -13752653.27644 -10716347.90744  22344047.2614   22344048.0594
  -4710279.30844  -3670339.87644  24209958.5354   24209958.7054
  -2739679.72844  -2134812.14844  23826050.4764   23826053.9804
 -12085885.75044  -9417567.35544  22654407.0694   22654407.7394
 -20496148.17844 -15971010.77144  20429856.1124   20429856.6374
 -22761415.26744 -17736159.18944  20745090.0304   20745089.8024
 96  4  3  0 10  0.0000000  0  8G 4G 6G 9G 7G16G20G24G 5
 -10831915.26644  -8440442.92244  21965985.6474   21965985.0634
  -1481378.41344  -1154320.39044  24456814.8484   24456816.3924
 -13676412.79144 -10656939.76744  22358555.8894   22358556.3544
  -4640147.02944  -3615691.39444  24223304.2094   24223306.6134
  -2833949.12444  -2208268.74944  23808111.5834   23808113.7324
 -12176383.07144  -9488084.72544  22637185.5344   22637187.1404
 -20482216.54144 -15960154.94344  20432507.3454   20432507.8384
 -22809672.18244 -17773761.97444  20735906.9874   20735906.7204
 96  4  3  0 10 30.0000000  0  8G 4G 6G 9G 7G16G20G24G 5
 -10752918.67044  -8378887.14444  21981017.8824   21981017.7294
  -1551361.95744  -1208852.94944  24443497.6144   24443500.3324
 -13599840.77744 -10597273.28044  22373126.7824   22373126.5564
  -4569994.55144  -3561027.16144  24236653.6784   24236656.8834
  -2928188.53444  -2281701.93144  23790178.3304   23790182.5604
 -12266685.35344  -9558450.10044  22620001.7134   22620002.8144
 -20467809.32644 -15948928.53444  20435248.8124   20435249.2254
 -22857530.04444 -17811053.81544  20726800.0254   20726800.0144
 96  4  3  0 11  0.0000000  0  8G 4G 6G 9G 7G16G20G24G 5
 -10673631.80744  -8317105.18944  21996105.4614   21996104.5794
  -1621304.93944  -1263353.89344  24430187.0234   24430188.8034
 -13522959.47244 -10537365.79144  22387756.4824   22387756.2774
  -4499848.82444  -3506368.19444  24250001.7314   24250003.3434
  -3022414.54244  -2355124.71744  23772247.0804   23772250.3984
 -12356800.43044  -9628669.61744  22602854.3734   22602854.7904
 -20452957.40344 -15937355.60244  20438075.0774   20438075.5244
 -22905012.29444 -17848052.96844  20717764.2354   20717764.1464
 96  4  3  0 11 30.0000000  0  8G 4G 6G 9G 7G16G20G24G 5
 -10594059.50644  -8255100.80944  22011247.4924   22011247.0514
  -1691206.04644  -1317822.26244  24416886.0204   24416886.7314
 -13445767.07344 -10477215.89544  22402445.5714   22402446.1004
  -4429700.29344  -3451707.03444  24263351.4034   24263347.2794
  -3116604.35944  -2428519.28344  23754323.7164   23754326.4904
 -12446704.54744  -9698724.76044  22585746.5364   22585746.2344
 -20437641.48944 -15925421.11644  20440989.5534   20440990.0754
 -22952121.40944 -17884761.36544  20708799.6274   20708799.5444
 96  4  3  0 12  0.0000000  0  8G 4G 6G 9G 7G16G20G24G 5
 -10514226.70744  -8192893.44644  22026439.2764   22026438.7494
  -1761079.22044  -1372268.85444  24403589.7014   24403591.8414
 -13368292.36444 -10416846.01844  22417188.5264   22417189.9984
  -4359533.39144  -3397031.55344  24276702.8964
  -3210772.95544  -2501897.31844  23736403.5874   23736407.3654
 -12536414.05844  -9768628.25744  22568675.0664   22568675.1644
 -20421870.58244 -15913132.09544  20443990.5984   20443991.1564
 -22998894.78544 -17921208.15144  20699899.2854   20699898.7984
 96  4  3  0 12 30.0000000  0  8G 4G 6G 9G 7G16G20G24G 5
 -10434148.61844  -8130494.94544  22041677.6634   22041677.8834
  -1830922.57844  -1426692.21344  24390298.9284   24390299.7344
 -13290550.09944 -10356267.66144  22431982.3744   22431983.0884
  -4289329.10144  -3342326.93144  24290062.4974
  -3304916.17744  -2575255.59544  23718489.1834   23718492.4634
 -12625934.62144  -9838384.52444  22551639.3934   22551640.3094
 -20405640.00244 -15900484.88544  20447079.0684   20447079.5984
 -23045326.14044 -17957388.42544  20691063.7284   20691063.4864
 96  4  3  0 13  0.0000000  0  8G 4G 6G 9G 7G16G20G24G 5
 -10353835.11544  -8067913.00644  22056960.7524   22056960.5514
  -1900744.65544  -1481098.98344  24377011.5244   24377013.4794
 -13212546.94644 -10295486.01344  22446825.7854   22446827.3194
  -4219093.54244  -3287598.00144  24303427.7794
  -3399022.68444  -2648585.27644  23700582.0384   23700585.3984
 -12715291.75044  -9908013.43344  22534634.7194   22534636.2394
 -20388943.67844 -15887474.75644  20450256.3264   20450256.8664
 -23091396.42044 -17993287.34244  20682296.4794   20682296.4154
 96  4  3  0 13 30.0000000  0  8G 4G 6G 9G 7G16G20G24G 5
 -10273274.91144  -8005138.83444  22072291.2574   22072291.3844
  -1970525.97944  -1535473.97044  24363732.8124   24363734.1834
 -13134265.13644 -10234487.22844  22461722.5244   22461723.0814
  -4148794.42644  -3232819.54544  24316806.8164   24316810.2684
  -3493058.66244  -2721859.96844  23682686.8774   23682690.8004
 -12804472.21244  -9977504.67744  22517663.6614   22517665.1724
 -20371751.44044 -15874078.20044  20453527.9544   20453528.5694
 -23137074.97344 -18028881.01744  20673604.4714   20673604.2814
 96  4  3  0 14  0.0000000  0  8G 4G 6G 9G 7G16G20G24G 5
 -10192431.21544  -7942143.76344  22087674.4984   22087674.9344
  -2040252.20044  -1589806.07544  24350464.5194   24350464.5034
 -13055691.19544 -10173260.80944  22476674.7604   22476675.6614
  -4078419.40644  -3177981.93444  24330198.0374
  -3587018.57644  -2795075.41444  23664806.5414   23664809.1314
 -12893467.80544 -10046851.86144  22500729.2604   22500729.8884
 -20354042.40944 -15860278.94844  20456897.8284   20456898.4094
 -23182349.24844 -18064159.66444  20664988.5214   20664988.6394
 96  4  3  0 14 30.0000000  0  4G 4G 9G24G 5
 -10111292.59844  -7878918.87844  22103114.6794   22103113.8754
 -12976824.11044 -10111805.95344  22491682.2954   22491682.8534
 -20335834.95844 -15846091.31944  20460363.0144   20460363.5374
 -23227213.54844 -18099118.85344  20656451.5574   20656451.1644
 96  4  3  0 15 30.0000000  0  2G 4G 9
         0.02454         0.66554  22134146.9824   22134146.5414
        -0.69554        -0.65954  22521841.7454   22521842.5014
 96  4  3  0 16  0.0000000  0  8G 4G 6G24G16G20G 7G 9G 5
     81999.63444     63896.45744  22149750.9074   22149750.6014
        -0.49254        -0.09254  24297490.7154   24297490.9094
        -0.23054         0.33454  20471287.5244   20471287.9444
        -0.44054         0.04054  23593435.1974   23593437.4934
        -1.19854        -0.91354  22433347.5634   22433348.2124
        -0.24954                  24383839.0084
     79679.02144     62087.39844  22537004.0194   22537005.4284
        -1.15554        -0.90854  20631272.6094   20631272.3674
 96  4  3  0 16 30.0000000  0  7G 4G 6G24G16G20G 9G 5
    164259.14044    127994.75744  22165403.7314   22165404.0904
    -69427.19744    -54098.76744  24284278.4824   24284278.4484
     20108.29844     15669.32344  20475114.0504   20475114.6654
    -93511.15444    -72865.37844  23575641.0634   23575643.5054
    -87970.14944    -68548.12544  22416607.4504   22416608.0024
    159618.66144    124377.99344  22552215.2584   22552216.9474
    -43281.22244    -33725.63044  20623036.5984   20623036.4624
 96  4  3  0 17  0.0000000  0  8G 4G 6G24G16G20G 7G 9G 5
    246742.77744    192267.70244  22181100.3814   22181100.3584
   -138835.68744   -108183.24544  24271070.0344   24271071.9354
     40686.77844     31704.50844  20479030.1664   20479030.5014
   -186939.24044   -145666.40244  23557862.4244   23557865.8904
   -175747.66444   -136946.16544  22399903.8164   22399905.3924
        -1.01654                  24410701.0814
    239797.38544    186854.88044  22567472.8004   22567474.1054
    -86155.64844    -67134.27144  20614878.0134   20614877.7154
 96  4  3  0 17 30.0000000  0  8G 4G 6G24G16G20G 7G 9G 5
    329436.87844    256704.65044  22196836.2214   22196836.5004
   -208249.57544   -162271.97544  24257861.3194   24257861.8854
     61712.65444     48088.31444  20483031.2444   20483031.6644
   -280310.56744   -218423.22644  23540093.2054   23540095.7114
   -263346.75344   -205205.18244  22383234.4404   22383235.3674
     70549.44244     54973.77544  24424127.0204
    320212.02344    249515.60344  22582775.8564   22582776.6604
   -128633.55644   -100233.94144  20606794.5244   20606794.3074
 96  4  3  0 18  0.0000000  0  8G 4G 6G24G16G20G 7G 9G 5
    412351.62944    321313.53044  22212614.2594   22212614.5264
   -277659.04444   -216357.25044  24244653.1334   24244652.7654
     83191.42244     64825.02144  20487118.4564   20487118.8724
   -373619.73044   -291131.58244  23522336.7524   23522339.8494
   -350769.48144   -273326.78044  22366598.4414   22366599.2834
    141084.77344                  24437548.7224
    400876.23544    312370.80644  22598125.9814   22598126.5044
   -170706.62544   -133018.15044  20598788.5394   20598788.3494
 96  4  3  0 18 30.0000000  0  8G 4G 6G24G16G20G 7G 9G 5
    495500.69244    386104.99844  22228437.6904   22228437.6424
   -347051.59844   -270429.29744  24231448.3474   24231448.6874
    105104.47144     81900.12844  20491288.1564   20491288.6124
   -466869.78744   -363793.89744  23504592.4094   23504595.5324
   -438007.75144   -341304.63244  22349997.8604   22349998.8044
    211626.49144                  24450971.7344
    481795.09244    375424.43744  22613524.3574   22613524.7274
   -212378.67844   -165489.87744  20590858.2784   20590858.2894
 96  4  3  0 19  0.0000000  0  8G 4G 6G24G16G20G 7G 9G 5
    578913.91144    451102.29744  22244310.1814   22244310.2084
   -416391.85444   -324460.61044  24218252.1424   24218255.3684
    127461.97244     99321.55944  20495542.8234   20495543.1634
   -560042.10144   -436395.62144  23486862.2274   23486864.3114
   -525026.81044   -409111.66344  22333438.8334   22333439.1534
    282212.87144                  24464403.6664
    563005.03944    438704.88844  22628978.2304   22628978.2504
   -253642.84744   -197643.77044  20583006.0954   20583005.9974
 96  4  3  0 19 30.0000000  0  8G 4G 6G24G16G20G 7G 9G 5
    662613.86044    516323.02244  22260238.0214   22260237.9904
   -485636.38844   -378417.33844  24205076.6514   24205078.4564
    150280.82044    117102.48644  20499884.9574   20499885.3934
   -653108.94344   -508915.16844  23469152.3354   23469154.7074
   -611797.96344   -476725.53444  22316926.0834   22316927.3094
    352874.48744                  24477850.6404
    644506.02944    502212.11544  22644486.7444   22644487.0204
   -294492.16744   -229474.41144  20575232.8304   20575232.4044
 96  4  3  0 20  0.0000000  0  8G 4G 6G24G16G20G 7G 9G 5
    746591.53944    581760.16344  22276218.6754   22276218.6814
   -554780.84344   -432296.10844  24191918.9734   24191919.1084
    173570.54244    135250.32244  20504316.8254   20504317.4614
   -746056.43744   -581341.71444  23451464.7764   23451467.7474
   -698330.04644   -544153.11544  22300459.7524   22300460.9304
    423611.57244                  24491310.5684
    726278.10444    565930.57544  22660047.6764   22660049.3484
   -334935.32344   -260988.55244  20567536.7414   20567536.6104
 96  4  3  0 20 30.0000000  0  8G 4G 6G24G16G20G 7G 9G 5
    830813.75844    647387.84744  22292245.4754   22292245.5064
   -623854.28644   -486119.51044  24178774.3614   24178776.4154
    197312.89944    153750.86444  20508834.8254   20508835.2834
   -838901.98244   -653688.82144  23433796.8684   23433799.8474
   -784624.59444   -611395.61144  22284038.8094   22284039.8424
    494384.00944                  24504778.8554
    808281.21644    629829.05144  22675652.6134   22675653.9454
   -374992.68444   -292202.08844  20559914.2134   20559914.0164
 96  4  3  0 21  0.0000000  0  8G 4G 6G24G16G20G 7G 9G 5
    915274.95044    713201.75244  22308317.4514   22308316.9144
   -692865.01644   -539894.05944  24165641.7534   24165644.8604
    221535.69544    172625.77344  20513444.5374   20513445.0294
   -931622.18044   -725938.27544  23416152.2674   23416155.1594
   -870682.45344   -678453.67144  22267662.8804   22267663.1814
    565185.70244                  24518252.3944
    890510.74744    693903.97344  22691300.5734   22691301.5264
   -414658.40444   -323110.44244  20552365.8384   20552366.1064
 96  4  3  0 21 30.0000000  0  8G 4G 6G24G16G20G 7G 9G 5
    999963.64944    779192.93044  22324433.5124   22324433.5644
   -761849.09444   -593647.83944  24152514.2604   24152517.6074
    246230.17444    191868.22844  20518143.5954   20518144.0574
  -1024235.63244   -798104.53844  23398529.6854   23398533.0304
   -956531.48444   -745349.00144  22251326.0234   22251327.0024
    635989.41044                  24531726.3514
    972936.80244    758132.03844  22706985.8654   22706985.8774
   -453957.49644   -353733.11044  20544887.5814   20544887.3144
 96  4  3  0 22  0.0000000  0  8G 4G 6G24G16G20G 7G 9G 5
   1084816.98844    845312.40044  22340580.7494   22340580.7674
   -830870.38544   -647430.60644  24139380.1394   24139383.3034
    271336.04644    211431.24744  20522920.9884   20522921.6304
  -1116814.06044   -870243.49444  23380912.2054   23380914.3804
  -1042219.37344   -812118.76544  22235019.6654   22235020.7854
    706735.98844                  24545189.0404
   1055522.33644    822484.36844  22722701.4214   22722701.7834
   -492928.82744   -384100.38244  20537471.5154   20537471.3694
 96  4  3  0 22 30.0000000  0  8G 4G 6G24G16G20G 7G 9G 5
   1169862.50744    911581.63544  22356764.7874   22356764.4904
   -899891.40744   -701213.12844  24126245.5414   24126247.4664
    296883.48744    231338.35044  20527782.4084   20527783.0174
  -1209316.06444   -942322.90544  23363309.4844   23363311.8064
  -1127705.59044   -878731.38644  22218752.5514   22218753.4364
    777473.05044                  24558648.2744
   1138313.89344    886997.23444  22738455.4394   22738456.7124
   -531524.09944   -414174.61744  20530127.0884   20530126.9144
 96  4  3  0 23  0.0000000  0  8G 4G 6G24G16G20G 7G 9G 5
   1255123.68244    978018.90544  22372989.1564   22372989.2524
   -968877.58744   -754968.55744  24113118.3004   24113118.9314
    322888.52444    251602.01744  20532731.1184   20532731.7314
  -1301712.35044  -1014319.95144  23345726.8524   23345729.0634
  -1212978.23444   -945177.58744  22202525.6124   22202526.3264
    848247.76644                  24572117.1564
   1221350.40444    951700.97144  22754256.5534   22754257.5754
   -569702.91344   -443924.34344  20522861.9014   20522861.7904
 96  4  3  0 23 30.0000000  0  8G 4G 6G24G16G20G 7G 9G 5
   1340587.08344   1044613.74244  22389252.3084   22389252.2014
  -1037817.66744   -808688.05144  24099999.3424   24099999.8704
    349331.43244    272206.88544  20537763.1314   20537763.7614
  -1394012.27244  -1086241.90444  23328162.9854   23328166.0864
  -1298032.98044  -1011453.99744  22186340.1974   22186340.6774
    919056.40044                  24585591.4404
   1304624.49844   1016589.83044  22770103.3784   22770104.8924
   -607442.80944   -473332.05344  20515680.2594   20515680.1204
 96  4  3  0 24  0.0000000  0  8G 4G 6G24G16G20G 7G 9G 5
   1426260.44344   1111372.17844  22405555.3314   22405555.7674
  -1106681.19544   -862347.91244  24086895.3024   24086897.4584
    376220.85844    293159.68744  20542879.9234   20542880.5574
  -1486172.83544  -1158055.28244  23310625.2484   23310627.5884
  -1382832.20844  -1077531.30544  22170203.4534   22170203.6854
    989915.17544                  24599075.4764
   1388150.91744   1081675.30844  22785998.5954   22785998.9954
   -644696.42044   -502360.84144  20508591.2144   20508591.0384
 96  4  3  0 24 30.0000000  0  8G 4G 6G24G16G20G 7G 9G 5
   1512143.61444   1178294.11544  22421898.0444   22421898.5674
  -1175485.86844   -915961.88644  24073802.2594   24073803.3304
    403544.06244    314450.49844  20548079.3524   20548079.8174
  -1578179.41044  -1229748.63944  23293116.8914   23293119.0584
  -1467383.23744  -1143415.21244  22154114.1344   22154114.7974
   1060812.79244                  24612566.9544
   1471901.62044   1146935.56644  22801936.1034   22801936.3414
   -681478.49644   -531022.19544  20501591.7884   20501591.7644
 96  4  3  0 25  0.0000000  0  8G 4G 6G24G16G20G 7G 9G 5
   1598246.07844   1245386.92844  22438282.9894   22438282.9624
  -1244250.71344   -969544.82944  24060716.5134   24060717.3454
    431293.32644    336073.30444  20553359.7924   20553360.3514
  -1670045.36944  -1301332.44544  23275634.9074   23275637.6344
  -1551678.28044  -1209099.63744  22138073.3054   22138074.4524
   1131736.62244                  24626063.7534
   1555860.96844   1212358.39944  22817912.7654   22817914.0314
   -717789.76344   -559316.68844  20494681.8624   20494681.7724
 96  4  3  0 25 30.0000000  0  8G 4G 6G24G16G20G 7G 9G 5
   1684572.03444   1312653.89244  22454709.8714   22454709.9944
  -1312983.83344  -1023103.05944  24047637.3444   24047638.7924
    459483.40344    358039.60044  20558724.1454   20558724.6784
  -1761759.47444  -1372797.90844  23258182.6414   23258185.4284
  -1635704.61744  -1274574.68544  22122083.3504   22122083.9544
   1202682.99444                  24639564.1144
   1640015.13344   1277933.03744  22833926.6954   22833927.7644
   -753637.93744   -587250.32644  20487860.3014   20487860.2284
 96  4  3  0 26  0.0000000  0  7G 4G 6G24G16G20G 9G 5
   1771120.23644   1380094.03344  22471179.7754   22471179.9034
  -1381709.10144  -1076655.16144  24034558.6274   24034559.2344
    488109.32744    380345.52244  20564171.7344   20564172.2204
  -1853324.36944  -1444147.11844  23240758.1324   23240760.3544
  -1719469.60644  -1339846.08844  22106143.6434   22106144.0494
   1724360.04344   1343656.29844  22849976.7524   22849978.1374
   -789054.94544   -614847.99544  20481120.7884   20481120.3974
 96  4  3  0 26 30.0000000  0  7G 4G 6G24G16G20G 9G 5
   1857886.43144   1447704.03844  22487690.6754   22487690.3594
  -1450430.65644  -1130204.42644  24021480.7004   24021482.6504
    517169.73244    402989.99544  20569701.6004   20569702.1244
  -1944743.77344  -1515382.95944  23223361.6864   23223364.4144
  -1802982.55744  -1404921.10644  22090251.9164   22090252.2284
   1808907.28844   1409537.22444  22866065.7724   22866066.9834
   -824058.77144   -642123.70544  20474459.6204   20474459.2384
 96  4  3  0 27  0.0000000  0  7G 4G 6G24G16G20G 9G 5
   1944871.62844   1515484.70244  22504244.1934   22504243.1724
  -1519109.12144  -1183720.04444  24008412.5904   24008413.5144
    546677.51444    425983.07644  20575316.5834   20575317.2284
  -2036001.93544  -1586493.15544  23205995.8994   23205998.9994
  -1886224.05144  -1469784.60944  22074411.7294   22074412.0444
   1893672.88444   1475588.30144  22882196.4474   22882196.9284
   -858624.90944   -669058.35644  20467881.8134   20467881.8954
 96  4  3  0 27 30.0000000  0  7G 4G 6G24G16G20G 9G 5
   2032037.65644   1583406.26344  22520831.2504   22520830.9824
  -1587748.75844  -1237205.47244  23995350.6804   23995351.8954
    576619.65244    449314.61544  20581014.5954   20581015.0234
  -2127112.46144  -1657488.30144  23188658.4104   23188661.4824
  -1969222.84744  -1534458.97544  22058616.4474   22058617.6004
   1978636.59044   1541793.76144  22898364.3804   22898364.0824
   -892777.67844   -695670.90344  20461382.8774   20461382.5184
 96  4  3  0 28  0.0000000  0  8G 4G 6G24G16G20G 7G 9G 5
   2119396.90544   1651478.39744  22537454.9724   22537454.8354
  -1656337.44944  -1290651.17944  23982298.7414   23982299.4334
    606997.29844    472985.51444  20586795.1634   20586795.4904
  -2218075.81544  -1728368.76344  23171348.2324   23171350.0184
  -2051967.65044  -1598935.41844  22042870.7074   22042871.4664
        -0.59154                  24707222.2784
   2063815.25944   1608166.70844  22914573.3594   22914573.8424
   -926501.72144   -721949.38444  20454965.3754   20454965.2824
 96  4  3  0 28 30.0000000  0  8G 4G 6G24G16G20G 7G 9G 5
   2206945.69444   1719698.21544  22554114.4904   22554114.3994
  -1724857.52044  -1344043.40244  23969259.2864   23969261.0114
    637818.46244    497002.01444  20592660.0724   20592660.6384
  -2308892.79644  -1799135.17344  23154066.4104   23154069.2014
  -2134444.55744  -1663203.12444  22027176.5514   22027177.0944
     71290.14744                  24720788.0924
   2149201.45744   1674701.37444  22930822.3764   22930823.6274
   -959780.52844   -747880.91944  20448632.6144   20448632.5174
 96  4  3  0 29  0.0000000  0  8G 4G 6G24G16G20G 7G 9G 5
   2294674.19144   1788058.06744  22570808.9804   22570808.6534
  -1793323.74244  -1397393.65844  23956231.2664   23956232.1224
    669089.36944    521368.95744  20598610.8094   20598611.3964
  -2399581.25544  -1869801.45944  23136808.7184   23136810.8914
  -2216661.90144  -1727268.58144  22011531.2754   22011531.5954
    142599.82744                  24734358.0714
   2234768.21344   1741376.72544  22947105.1704   22947105.9514
   -992614.98044   -773466.20944  20442384.4054   20442384.1584
 96  4  3  0 29 30.0000000  0  7G 4G 6G24G16G20G 9G 5
   2382598.53444   1856570.52844  22587540.3074   22587539.8314
  -1861743.22144  -1450707.46644  23943211.8684   23943211.5494
    700828.88044    546101.05044  20604650.8874   20604651.3364
  -2490130.61744  -1940359.34844  23119578.4354   23119580.7074
  -2298607.13244  -1791121.99444  21995937.0214   21995937.6174
   2320547.08144   1808217.35944  22963428.0804   22963429.0984
  -1025006.01744   -798705.98044  20436220.7804   20436220.8374
 96  4  3  0 30  0.0000000  0  7G 4G 6G24G16G20G 9G 5
   2470703.40444   1925223.65044  22604305.7724   22604306.5234
  -1930139.58544  -1504003.32344  23930195.8904   23930196.3904
    732990.48944    571162.04944  20610770.9574   20610771.4844
  -2580559.17344  -2010823.09844  23102370.4124   23102372.6214
  -2380297.57944  -1854776.86744  21980391.5804   21980392.0914
   2406519.76444   1875209.01944  22979787.4144   22979789.5904
  -1056983.89744   -823623.80944  20430135.5214   20430135.2754
 96  4  3  0 30 30.0000000  0  7G 4G 6G24G16G20G 9G 5
   2559001.66444   1994027.47744  22621109.0914   22621108.6424
  -1998478.31644  -1557254.24544  23917191.3014   23917191.7864
    765590.73344    596564.83644  20616974.7254   20616975.1534
  -2670827.80544  -2081162.23744  23085192.7794   23085194.2704
  -2461707.74144  -1918213.33744  21964899.9244   21964900.8364
   2492701.30744   1942363.41244  22996187.0274   22996188.9674
  -1088520.59544   -848197.86544  20424134.3684   20424133.9854
 96  4  3  0 31  0.0000000  0  8G 4G 6G24G16G20G 7G 9G 5
   2647520.18644   2063002.93844  22637953.5314   22637954.2654
  -2066754.62644  -1610456.51744  23904199.0244   23904199.1954
    798629.62944    622309.43544  20623261.6294   20623262.1474
  -2760902.75044  -2151350.43644  23068051.5184   23068054.6494
  -2542834.28444  -1981428.81044  21949461.9344   21949462.6344
        -0.37754                  24788691.0174
   2579111.90044   2009696.29544  23012630.8244   23012632.9364
  -1119599.85944   -872415.47344  20418219.9474   20418219.8314
 96  4  3  0 31 30.0000000  0  8G 4G 6G24G16G20G 7G 9G 5
   2736233.81144   2132130.42244  22654834.8604   22654835.1594
  -2134997.40744  -1663632.65444  23891213.0074   23891213.3274
    832051.08444    648352.12744  20629621.2654   20629622.0114
  -2850800.81744  -2221400.81944  23050944.6874   23050947.7774
  -2623706.02644  -2044445.73644  21934073.1184   21934073.4244
     71470.70044                  24802292.4144
   2665713.69644   2077178.17344  23029111.0804   23029111.4994
  -1150252.74244   -896300.84344  20412387.2144   20412386.9104
 96  4  3  0 32  0.0000000  0  8G 4G 6G24G16G20G 7G 9G 5
   2825152.02044   2201417.32344  22671755.2234   22671755.4914
  -2203195.56344  -1716774.01744  23878235.1844   23878236.2324
    865858.46344    674695.54144  20636054.8334   20636055.2334
  -2940507.31244  -2291301.90244  23033873.9814   23033875.8894
  -2704308.87044  -2107253.13044  21918734.7094   21918735.3394
    142964.35444                  24815896.7144
   2752476.43044   2144785.47444  23045622.1784   23045621.7864
  -1180450.75344   -919831.76444  20406640.3534   20406640.4124
 96  4  3  0 32 30.0000000  0  8G 4G 6G24G16G20G 7G 9G 5
   2914267.49144   2270857.94244  22688713.3444   22688713.8834
  -2271372.34244  -1769898.73044  23865261.0554   23865262.5024
    900066.00844    701350.77144  20642564.2334   20642564.8414
  -3030016.06344  -2361048.91844  23016841.1984   23016842.9164
  -2784640.24544  -2169848.97844  21903448.4314   21903448.9434
    214476.37444                  24829505.1754
   2839384.81444   2212506.25744  23062160.4124   23062160.7714
  -1210176.00844   -942994.30444  20400984.0274   20400983.9124
 96  4  3  0 33  0.0000000  0  8G 4G 6G24G16G20G 7G 9G 5
   3003549.20244   2340428.10644  22705703.2144   22705703.5304
  -2339568.52744  -1823038.56244  23852283.9874   23852284.4104
    934652.46344    728301.25344  20649145.9844   20649146.5154
  -3119355.66244  -2430664.12444  22999839.3674   22999840.9364
  -2864719.80744  -2232248.61244  21888209.6454   21888210.1234
    285981.42344                  24843111.6114
   2926425.14744   2280329.84244  23078722.8624   23078724.5464
  -1239455.35444   -965809.38444  20395412.2784   20395411.8704
 96  4  3  0 33 30.0000000  0  8G 4G 6G24G16G20G 7G 9G 5
   3092993.49444   2410124.94144  22722724.0824   22722724.0224
  -2407757.31144  -1876172.66644  23839307.5594   23839307.5644
    969642.90244    755566.53544  20655804.3744   20655804.9474
  -3208526.92044  -2500148.15544  22982871.0384   22982872.2014
  -2944518.90044  -2294429.71344  21873023.9334   21873024.5384
    357493.66344                  24856720.4024
   3013617.73444   2348272.06544  23095314.0424   23095315.9234
  -1268273.76144   -988265.28944  20389928.3264   20389928.2544
 96  4  3  0 34  0.0000000  0  8G 4G 6G24G16G20G 7G 9G 5
   3182586.54544   2479937.70644  22739773.3364   22739773.7314
  -2475931.63844  -1929295.47044  23826334.3764   23826335.8704
   1005051.72244    783157.82444  20662542.3584   20662543.3044
  -3297541.34944  -2569509.99644  22965931.7594   22965934.3804
  -3024025.93144  -2356383.22144  21857894.6644   21857895.0234
    429013.37644                  24870330.2214
   3100974.49744   2416342.21544  23111938.2074   23111938.8144
  -1296631.44044  -1010362.18644  20384532.1224   20384531.8454
 96  4  3  0 34 30.0000000  0  8G 4G 6G24G16G20G 7G 9G 5
   3272323.30244   2549862.44144  22756849.8014   22756849.5694
  -2544079.88744  -1982397.91944  23813366.5744   23813368.2134
   1040877.25444    811073.82344  20669359.8824   20669360.4044
  -3386399.11144  -2638749.74444  22949022.7244   22949024.0994
  -3103246.20144  -2418113.27844  21842819.5554   21842819.9254
    500557.23344                  24883943.6554
   3188530.47444   2484567.59944  23128600.1344   23128600.6414
  -1324529.42144  -1032100.87744  20379223.2934   20379223.1694
 96  4  3  0 35  0.0000000  0  8G 4G 6G24G16G20G 7G 9G 5
   3362198.95844   2619895.40044  22773952.5624   22773952.3554
  -2612173.99044  -2035458.24044  23800409.1514   23800409.6224
   1077107.79844    839305.42144  20676254.2414   20676254.8034
  -3475105.58544  -2707871.63644  22932142.8914   22932144.2904
  -3182183.03644  -2479622.48044  21827797.9374   21827799.0754
    572136.78044                  24897565.3924
   3276278.73244   2552942.82444  23145297.8824   23145298.4594
  -1351971.56544  -1053484.36544  20374001.2544   20374001.0314
 96  4  3  0 35 30.0000000  0  8G 4G 6G24G16G20G 7G 9G 5
   3452237.16744   2690055.02544  22791086.2364   22791085.6064
  -2680189.48244  -2088457.26244  23787465.1294   23787466.0804
   1113755.10644    867861.76444  20683227.9224   20683228.5024
  -3563643.75544  -2776862.35744  22915294.6534   22915296.6764
  -3260825.74044  -2540902.49744  21812832.9584   21812833.4854
    643768.98544                  24911196.4974
   3364201.27544   2621453.84844  23162028.7604   23162030.1304
  -1378942.80544  -1074500.92144  20368868.5854   20368868.6444
 96  4  3  0 36  0.0000000  0  8G 4G 6G24G16G20G 7G 9G 5
   3542453.30044   2760353.29544  22808254.0744   22808253.1304
  -2748132.82944  -2141400.10244  23774536.0854   23774536.4844
   1150820.43344    896743.84144  20690281.3074   20690281.8664
  -3651979.00844  -2845694.97444  22898484.6054   22898487.7544
  -3339167.12144  -2601947.70944  21797924.9314   21797925.8084
    715465.42544                  24924839.7964
   3452279.35044   2690086.05544  23178789.7514   23178790.3474
  -1405430.02644  -1095140.31444  20363828.3754   20363828.2044
 96  4  3  0 36 30.0000000  0  8G 4G 6G24G16G20G 7G 9G 5
   3632845.51544   2830788.77544  22825455.6674   22825454.3604
  -2816012.33644  -2194293.14844  23761620.0004   23761619.8804
   1188301.16744    925949.60844  20697413.7324   20697414.3454
  -3740078.65044  -2914343.99244  22881720.2744   22881723.2554
  -3417214.93944  -2662764.16744  21783073.4924   21783073.7294
    787242.51544                  24938498.6394
   3540499.67444   2758829.12444  23195577.5594   23195579.4694
  -1431424.07744  -1115395.42544  20358881.8024   20358881.6444
 96  4  3  0 37  0.0000000  0  7G20G 4G 6G24G16G 9G 5
  -3494956.54544  -2723342.03444  21768279.1534   21768279.5064
   3723404.56844   2901354.26344  22842687.8124   22842687.3024
  -2883838.09244  -2247144.33544  23748713.4754   23748713.8484
   1226198.31944    955479.85744  20704625.2164   20704625.5654
  -3827940.09144  -2982807.40144  22865000.3694   22865002.1274
   3628832.67044   2827659.97844  23212386.1414   23212387.9944
  -1456932.72344  -1135272.29344  20354027.8564   20354027.8104
 96  4  3  0 37 30.0000000  0  7G20G 4G 6G24G16G 9G 5
  -3572392.94544  -2783682.06644  21753543.1384   21753543.8194
   3814110.59744   2972034.27944  22859948.6774   22859948.5004
  -2951640.80244  -2299977.59744  23735810.6904   23735810.3824
   1264504.05344    985328.48944  20711914.5974   20711915.1324
  -3915558.74544  -3051081.62744  22848327.0704   22848328.4274
   3717273.00044   2896574.46244  23229215.6694   23229217.8434
  -1481977.60844  -1154787.79344  20349261.6824   20349261.7184
 96  4  3  0 38  0.0000000  0  8G20G 4G 6G24G16G 7G 9G 5
  -3649514.42444  -2843776.71144  21738867.5974   21738868.0704
   3904950.62144   3042818.68444  22877234.8964   22877234.6224
  -3019421.11244  -2352793.38544  23722911.5734   23722912.1984
   1303218.31544   1015495.44644  20719281.4304   20719282.0904
  -4002921.80244  -3119156.68244  22831702.1944   22831704.2814
        -0.69354                  24979540.4784
   3805848.54844   2965594.30544  23246071.3464   23246072.4034
  -1506545.05544  -1173931.26344  20344586.8854   20344586.7454
 96  4  3  0 38 30.0000000  0  7G20G 4G 6G24G16G 9G 5
  -3726321.11044  -2903626.06444  21724251.7794   21724252.4894
   3995910.35044   3113696.39444  22894543.8044   22894543.1234
  -3087171.07144  -2405585.51244  23710018.9924   23710019.4354
   1342320.49044   1045964.67944  20726722.5284   20726723.0564
  -4090058.55044  -3187055.40044  22815120.9964   22815123.4084
   3894567.26944   3034725.73744  23262954.4984   23262955.5094
  -1530631.59744  -1192699.99644  20340003.2574   20340003.1334
 96  4  3  0 39  0.0000000  0  7G20G 4G 6G24G16G 9G 5
  -3802807.28044  -2963225.66944  21709697.0504   21709697.4784
   4086988.78744   3184666.59344  22911874.6744   22911875.2154
  -3154891.71144  -2458354.82844  23697132.6694   23697133.1134
   1381785.52444   1076716.65744  20734232.2424   20734232.8734
  -4176998.50344  -3254800.76244  22798576.5594   22798578.9324
   3983408.27244   3103952.43544  23279859.7624   23279860.8924
  -1554251.33744  -1211104.99544  20335508.7034   20335508.3564
 96  4  3  0 39 30.0000000  0  7G 4G 6G24G16G20G 9G 5
   4178219.79144   3255755.68044  22929236.1004   22929235.4894
  -3222564.38744  -2511086.74044  23684254.3894   23684254.3914
   1421629.65344   1107764.03544  20741814.6374   20741815.0344
  -4263704.11144  -3322363.51844  22782076.6274   22782078.8604
  -3878952.09244  -3022559.27644  21695207.4204   21695208.0164
   4072398.54144   3173295.43644  23296794.0924   23296796.0884
  -1577368.36944  -1229118.26744  20331109.5434   20331109.6414
 96  4  3  0 40  0.0000000  0  7G 4G 6G24G16G20G 9G 5
   4269589.23744   3326952.63044  22946622.8784   22946623.1044
  -3290206.52744  -2563794.86744  23671383.1494   23671383.6454
   1461835.75744   1139093.47044  20749465.4374   20749465.9164
  -4350198.35944  -3389761.58044  22765617.5134   22765619.0834
  -3954769.19744  -3081637.52644  21680780.1934   21680780.4154
   4161511.51244   3242734.06144  23313752.7204   23313754.2504
  -1599990.94444  -1246746.25444  20326804.6324   20326804.3664
 96  4  3  0 40 30.0000000  0  7G20G 4G 6G24G16G 9G 5
  -4030244.46844  -3140449.41544  21666416.9624   21666417.4694
   4361132.82544   3398285.28544  22964043.2344   22964042.9024
  -3357800.36744  -2616465.37044  23658520.0894   23658520.3974
   1502415.68844   1170714.19844  20757187.6854   20757188.0014
  -4436466.43744  -3456983.40444  22749201.6144   22749203.2564
   4250739.99744   3312262.70144  23330731.5984   23330732.8774
  -1622117.26844  -1263987.54844  20322594.2854   20322594.1274
 96  4  3  0 41  0.0000000  0  7G 4G 6G24G16G20G 9G 5
   4452872.11044   3469770.42544  22981500.6814   22981499.7184
  -3425333.12744  -2669088.25544  23645669.2254   23645669.7524
   1543412.49444   1202659.76544  20764988.9304   20764989.4264
  -4522467.09544  -3523996.85944  22732835.9024   22732838.4384
  -4105358.57944  -3198979.88444  21652123.5244   21652124.3804
   4340099.11844   3381893.13344  23347735.4534   23347736.8004
  -1643749.24344  -1280843.63844  20318477.7224   20318477.4384
 96  4  3  0 41 30.0000000  0  7G20G 4G 6G24G16G 9G 5
  -4180142.47344  -3257253.04644  21637892.7684   21637893.0924
   4544778.39344   3541385.70244  22998990.0824   22998989.6014
  -3492830.41444  -2721683.52244  23632823.9484   23632824.7414
   1584818.49444   1234924.18144  20772868.4414   20772868.8414
  -4608223.63044  -3590820.08244  22716517.1274   22716519.0474
   4429585.85244   3451622.98944  23364765.1084   23364766.9514
  -1664915.33644  -1297336.70544  20314450.0824   20314449.8494
 96  4  3  0 42  0.0000000  0  7G20G 4G 6G24G16G 9G 5
  -4254591.19744  -3315265.02944  21623725.4334   21623725.9914
   4636860.41944   3613137.91644  23016512.8974   23016513.3714
  -3560273.66444  -2774236.66044  23619990.3524   23619991.3304
   1626641.57244   1267513.59744  20780826.8484   20780827.4144
  -4693741.32944  -3657457.20644  22700243.6514   22700246.2164
   4519210.84944   3521460.60144  23381820.1554   23381820.6844
  -1685614.04444  -1313465.57144  20310511.0494   20310511.0264
 96  4  3  0 42 30.0000000  0  7G20G 4G 6G24G16G 9G 5
  -4328745.56344  -3373047.63044  21609614.4134   21609615.4664
   4729074.21944   3684992.80044  23034060.5024   23034059.3214
  -3627691.07844  -2826769.70744  23607160.7224   23607161.3604
   1668833.07244   1300390.08944  20788855.8474   20788856.4834
  -4779054.32444  -3723934.80944  22684009.2794   22684011.0884
   4608941.75744   3591380.74644  23398896.2944   23398897.5094
  -1705869.36544  -1329248.94244  20306656.6174   20306656.5304
 96  4  3  0 43  0.0000000  0  7G20G 4G 6G24G16G 9G 5
  -4402614.08144  -3430607.50844  21595557.4874   21595558.2584
   4821377.42544   3756917.36544  23051624.7144   23051624.7344
  -3695100.83744  -2879296.76344  23594334.0914   23594334.7314
   1711384.10844   1333546.74144  20796953.1254   20796953.6124
  -4864164.22644  -3790254.17244  22667812.4424   22667815.1214
   4698781.63044   3661385.78944  23415991.4994   23415993.4104
  -1725676.72644  -1344683.25244  20302887.5314   20302887.5664
 96  4  3  0 43 30.0000000  0  7G 4G 6G24G16G20G 9G 5
   4913809.01044   3828941.96644  23069214.1644   23069214.3954
  -3762463.24444  -2931786.93544  23581515.5084   23581515.5474
   1754324.30444   1367006.63544  20805124.2554   20805124.6704
  -4949025.60744  -3856379.88044  22651664.2564   22651666.0604
  -4476154.18644  -3487911.47844  21581563.0014   21581563.4274
   4788763.12844   3731501.18244  23433113.4214   23433116.2514
  -1744971.52644  -1359718.16344  20299215.7704   20299215.6484
 96  4  3  0 44  0.0000000  0  7G 4G 6G24G16G20G 9G 5
   5006318.01744   3901026.88544  23086818.3024   23086818.1824
  -3829813.17644  -2984267.35844  23568698.7314   23568699.0834
   1797601.72144   1400729.30444  20813359.6494   20813359.9954
  -5033654.71844  -3922324.59044  22635560.1474   22635561.4944
  -4549407.76844  -3544992.18044  21567623.3414   21567623.7394
   4878829.97844   3801683.08144  23450253.2694   23450256.6354
  -1763779.46744  -1374373.70644  20295636.8154   20295636.4744
 96  4  3  0 44 30.0000000  0  7G 4G 6G24G16G20G 9G 5
   5098898.32744   3973167.38344  23104435.4664   23104435.4414
  -3897140.84144  -3036730.43044  23555886.5324   23555887.7634
   1841226.86344   1434722.91844  20821660.8714   20821661.5714
  -5118028.77944  -3988070.57644  22619504.5304   22619505.8004
  -4622362.14244  -3601839.72944  21553740.7144   21553741.1634
   4968983.76344   3871932.71544  23467409.0994   23467410.9114
  -1782093.94644  -1388644.73144  20292151.6414   20292151.4934
 96  4  3  0 45  0.0000000  0  7G 4G 6G24G16G20G 9G 5
   5191592.31744   4045396.45144  23122074.2504   23122074.1284
  -3964420.34944  -3089155.99244  23543084.3964   23543083.3934
   1885242.37944   1469020.72344  20830037.1944   20830037.5444
  -5202120.14744  -4053596.27744  22603501.9974   22603503.9184
  -4694976.56544  -3658422.37744  21539923.0954   21539923.4544
   5059244.27544   3942265.53544  23484585.1314   23484586.6674
  -1799911.40044  -1402528.46544  20288761.0834   20288761.1604
 96  4  3  0 45 30.0000000  0  7G20G 4G 6G24G16G 9G 5
  -4767251.47644  -3714740.47844  21526169.4924   21526169.8844
   5284413.34844   4117724.53044  23139737.6244   23139737.0604
  -4031657.59844  -3141548.61844  23530289.8944   23530288.4974
   1929633.70444   1503611.37044  20838484.4024   20838484.8804
  -5285951.53644  -4118919.39944  22587549.3404   22587551.3304
   5149592.09544   4012666.37044  23501778.0774   23501779.2564
  -1817255.22744  -1416043.13644  20285460.8414   20285460.7994
 96  4  3  0 46  0.0000000  0  7G20G 4G 6G24G16G 9G 5
  -4839189.82744  -3770796.32644  21512479.6794   21512480.3744
   5377335.40844   4190131.31744  23157420.0534   23157419.5154
  -4098873.97244  -3193924.98344  23517498.7364   23517498.1794
   1974366.86444   1538468.37744  20846996.9214   20846997.3094
  -5369548.14944  -4184059.58344  22571641.5654   22571644.1034
   5240009.67944   4083121.58244  23518984.5604   23518985.8304
  -1834153.39344  -1429210.54044  20282245.1264   20282244.8084
 96  4  3  0 46 30.0000000  0  7G 4G 6G24G16G20G 9G 5
   5470380.48444   4262633.93944  23175126.1404   23175125.9204
  -4166075.19244  -3246289.54044  23504710.7124   23504710.6994
   2019450.43744   1573598.43644  20855575.9244   20855576.3974
  -5452922.85344  -4249026.85544  22555775.9394   22555776.9484
  -4910763.91444  -3826568.32444  21498859.4084   21498860.3844
   5330505.33344   4153637.61144  23536204.9094   23536206.4834
  -1850595.22944  -1442022.36344  20279116.3144   20279116.2884
 96  4  3  0 47  0.0000000  0  7G20G 4G 6G24G16G 9G 5
  -4981945.98444  -3882034.85144  21485314.2894   21485314.7854
   5563573.32444   4335251.74544  23192860.1884   23192859.4754
  -4233248.58244  -3298632.40444  23491928.1744   23491928.4284
   2064896.51544   1609010.96844  20864224.1114   20864224.5434
  -5536059.70144  -4313808.80444  22539955.4034   22539957.7664
   5421097.63344   4224228.94744  23553444.1794   23553446.7824
  -1866549.52344  -1454454.28644  20276080.2694   20276079.9224
 96  4  3  0 47 30.0000000  0  7G 4G 6G24G16G20G 9G 5
   5656890.12044   4407966.12744  23210617.9204   23210616.4204
  -4300398.20644  -3350956.75944  23479149.8434   23479150.0664
   2110677.85244   1644684.73444  20872935.9054   20872936.5254
  -5618961.49444  -4378407.55444  22524179.1654   22524180.9054
  -5052751.09844  -3937207.65144  21471840.5174   21471840.8444
   5511781.23944   4294891.41744  23570700.7604   23570703.0924
  -1881998.14744  -1466492.18244  20273140.5084   20273140.5654
 96  4  3  0 48  0.0000000  0  7G 4G 6G24G16G20G 9G 5
   5750318.28544   4480767.25744  23228396.4104   23228397.3794
  -4367521.61344  -3403260.68044  23466376.5534   23466376.4664
   2156788.61344   1680615.20044  20881710.6264   20881711.0584
  -5701616.33044  -4442813.88444  22508451.0264   22508452.6204
  -5123183.81144  -3992090.26244  21458437.8174   21458438.3974
   5602548.36044   4365618.97744  23587973.7194   23587975.8194
  -1896919.74444  -1478119.40444  20270301.1534   20270300.8564
 96  4  3  0 48 30.0000000  0  7G 4G 6G24G16G20G 9G 5
   5843862.42144   4553658.77844  23246197.6734   23246196.4484
  -4434605.88944  -3455534.10244  23453610.7564   23453611.4754
   2203244.64844   1716814.70844  20890550.6384   20890551.2344
  -5784005.86644  -4507013.48744  22492773.1574   22492774.3494
  -5193257.16344  -4046692.85144  21445103.2774   21445103.8694
   5693399.85444   4436412.28344  23605261.6434   23605263.7464
  -1911306.65744  -1489329.99044  20267563.3964   20267563.3744
 96  4  3  0 49  0.0000000  0  7G20G 4G 6G24G16G 9G 5
  -5262966.22244  -4101011.58344  21431838.0314   21431838.5694
   5937524.23744   4626642.00844  23264020.7074   23264020.6744
  -4501619.43444  -3507752.42444  23440858.7144   23440858.3514
   2250059.51444   1753293.83044  20899459.5044   20899459.9384
  -5866091.47144  -4570976.26644  22477152.4844   22477154.2724
   5784346.53744   4507279.76544  23622568.3484   23622569.6424
  -1925146.57544  -1500114.34244  20264929.6724   20264929.4424
 96  4  3  0 49 30.0000000  0  7G 4G 6G24G16G20G 9G 5
   6031254.01344   4699678.19944  23281856.4704   23281856.7094
  -4568602.31244  -3559946.86744  23428111.9524   23428111.0694
   2297191.32444   1790019.91544  20908428.3074   20908429.0694
  -5947898.03744  -4634721.61044  22461584.2124   22461586.0314
  -5332354.22644  -4155080.14244  21418633.4484   21418634.0634
   5875334.42944   4578179.36944  23639883.7384   23639884.2714
  -1938477.24044  -1510501.87844  20262392.9604   20262392.9224
 96  4  3  0 50  0.0000000  0  7G20G 4G 6G24G16G 9G 5
  -5401412.61644  -4208891.85744  21405492.5084   21405492.6794
   6125054.25844   4772769.27144  23299706.0494   23299706.5764
  -4635551.49244  -3612115.00144  23415371.3314   23415371.5994
   2344654.82844   1827004.46344  20917460.2604   20917460.8224
  -6029402.19244  -4698231.30744  22446074.6394   22446076.6574
   5966364.45244   4649111.76844  23657204.4264   23657207.0564
  -1951296.12044  -1520490.62044  20259953.4914   20259953.1674
 96  4  3  0 50 30.0000000  0  7G 4G 6G24G16G20G 9G 5
   6218931.78744   4845920.58344  23317570.6434   23317570.1324
  -4702458.23244  -3664250.09344  23402639.5634   23402640.1314
   2392472.00744   1864264.60644  20926559.5304   20926559.9864
  -6110586.29144  -4761491.60144  22430626.2164   22430627.8934
  -5470116.91544  -4262427.65944  21392418.3664   21392418.8054
   6057448.35144   4720086.13644  23674537.2484   23674539.0384
  -1963604.19444  -1530081.33244  20257611.4264   20257611.3224
 96  4  3  0 51  0.0000000  0  7G 4G 6G24G16G20G 9G 5
   6312889.50144   4919134.36544  23335450.0554   23335450.4654
  -4769331.95944  -3716359.45944  23389913.7684   23389915.6584
   2440640.30644   1901798.34844  20935725.5514   20935726.2764
  -6191449.94644  -4824502.19944  22415238.5584   22415240.4994
  -5538447.31744  -4315672.11844  21379415.5504   21379416.2124
   6148583.66944   4791100.62844  23691880.8954   23691882.7944
  -1975405.60744  -1539277.24044  20255365.6184   20255365.4524
 96  4  3  0 51 30.0000000  0  7G 4G 6G24G16G20G 9G 5
   6406935.12444   4992416.66544  23353346.6434   23353346.9504
  -4836181.69744  -3768450.14044  23377192.6554   23377193.0894
   2489152.55544   1939600.10344  20944957.1624   20944957.5224
  -6271994.53844  -4887264.18744  22399911.3014   22399913.1884
  -5606390.87844  -4368615.14444  21366486.1634   21366487.0324
   6239771.81044   4862156.25344  23709232.6114   23709234.2354
  -1986706.34344  -1548083.01344  20253215.1914   20253215.0724
 96  4  3  0 52  0.0000000  0  7G 4G 6G24G16G20G 9G 5
   6501086.28344   5065781.16844  23371262.8514   23371263.4324
  -4903005.24644  -3820520.39644  23364476.5014   23364479.2234
   2538014.16444   1977674.09644  20954255.2104   20954255.7244
  -6352224.58344  -4949781.07144  22384644.5334   22384645.7634
  -5673938.04144  -4421249.28744  21353632.6814   21353633.5634
   6331038.21644   4933272.84744  23726600.6224   23726602.1804
  -1997513.52144  -1556504.19144  20251158.8204   20251158.5864
 96  4  3  0 52 30.0000000  0  7G 4G 6G24G16G20G 9G 5
   6595344.19644   5139228.87644  23389199.2524   23389199.3814
  -4969806.05444  -3872572.55744  23351764.4514   23351765.5324
   2587217.10444   2016014.05244  20963618.0164   20963618.8044
  -6432154.57544  -5012064.15044  22369434.6414   22369436.2044
  -5741090.60544  -4473575.95144  21340853.8854   21340854.3584
   6422370.29244   5004440.61944  23743980.6334   23743981.5034
  -2007833.46244  -1564545.70944  20249195.0314   20249194.7974
 96  4  3  0 53  0.0000000  0  7G 4G 6G24G16G20G 9G 5
   6689724.23144   5212771.74644  23407159.7654   23407159.3434
  -5036555.22244  -3924585.13344  23339062.6314   23339062.6564
   2636764.28244   2054622.24544  20973046.6894   20973047.4354
  -6511773.47744  -5074104.81544  22354283.0974   22354284.8164
  -5807845.04644  -4525592.39244  21328150.9954   21328151.6204
   6513782.30044   5075670.69344  23761375.3294   23761377.4984
  -2017641.30144  -1572188.18344  20247328.4974   20247328.3794
 96  4  3  0 53 30.0000000  0  7G 4G 6G24G16G20G 9G 5
   6784212.47944   5286398.92244  23425139.9554   23425140.6464
  -5103237.67844  -3976545.62144  23326373.3344   23326374.9534
   2686657.39844   2093500.00244  20982541.1444   20982541.6924
  -6591085.99544  -5135906.73644  22339190.4734   22339192.3644
  -5874206.53344  -4577302.63544  21315522.8974   21315523.1324
   6605270.51644   5146960.16444  23778784.8484   23778788.1324
  -2026908.35044  -1579409.26444  20245565.1354   20245565.1024
 96  4  3  0 54  0.0000000  0  7G 4G 6G24G16G20G 9G 5
   6878783.81644   5360090.84944  23443136.4074   23443137.2664
  -5169855.53544  -4028455.58344  23313696.5204   23313697.7364
   2736891.85544   2132643.73544  20992100.6124   20992101.0234
  -6670097.14944  -5197473.83644  22324154.6364   22324156.5964
  -5940187.18844  -4628716.12644  21302966.7544   21302967.2494
   6696808.03444   5218287.99744  23796204.5224   23796208.0464
  -2035623.37044  -1586200.19544  20243906.7634   20243906.7464
 96  4  3  0 54 30.0000000  0  7G 4G 6G24G16G20G 9G 5
   6973407.90144   5433823.88044  23461142.7844   23461141.8814
  -5236431.72044  -4080333.08944  23301027.7354   23301029.3794
   2787434.98144   2172027.99344  21001718.4774   21001718.8284
  -6748824.11244  -5258819.47944  22309173.5484   22309175.9274
  -6005799.59744  -4679842.66244  21290481.3854   21290482.0314
   6788345.15944   5289615.52444  23813623.4484   23813624.6334
  -2043802.73944  -1592573.73844  20242350.0354   20242349.9214
 96  4  3  0 55  0.0000000  0  7G 4G 6G24G16G20G 9G 5
   7068085.77744   5507598.82544  23479158.9164   23479158.1624
  -5302971.27744  -4132182.06344  23288365.8044   23288365.7554
   2838290.53044   2211655.69544  21011396.0724   21011396.4034
  -6827257.53744  -5319936.39344  22294248.2544   22294249.7184
  -6071038.25744  -4730677.97644  21278066.8074   21278067.1664
   6879895.88944   5360953.68244  23831044.7094   23831047.2404
  -2051444.45644  -1598528.32844  20240896.1364   20240896.0304
 96  4  3  0 55 30.0000000  0  7G 4G 6G24G16G20G 9G 5
   7162818.85444   5581416.78344  23497186.8684   23497187.0354
  -5369492.41344  -4184016.68744  23275707.4974   23275707.7094
   2889450.62144   2251520.70644  21021131.7934   21021132.1984
  -6905386.47844  -5380816.04544  22279380.6014   22279382.2594
  -6135895.24444  -4781215.88744  21265725.2694   21265725.6364
   6971458.58244   5432301.16544  23848468.8244   23848470.0914
  -2058558.16044  -1604071.48044  20239542.3974   20239542.0744
 96  4  3  0 56  0.0000000  0  7G 4G 6G24G16G20G 9G 5
   7257637.02144   5655301.07844  23515229.5954   23515230.2094
  -5435995.40244  -4235837.16644  23263052.4034   23263052.5984
   2940921.87844   2291628.18444  21030926.1844   21030926.5964
  -6983182.59344  -5441436.35544  22264576.6074   22264578.0974
  -6200353.97944  -4831443.47244  21253459.1414   21253459.5724
   7063057.95644   5503677.21844  23865899.6004   23865902.5394
  -2065168.58044  -1609222.45844  20238284.3714   20238284.5634
 96  4  3  0 56 30.0000000  0  7G 4G 6G24G16G20G 9G 5
   7352558.92444   5729266.17144  23533292.9024   23533292.9654
  -5502469.56144  -4287635.18344  23250402.5924   23250403.1954
   2992725.99844   2331995.03544  21040784.0974   21040784.3934
  -7060633.53744  -5501787.70444  22249838.1884   22249839.8644
  -6264402.35044  -4881351.28344  21241270.8054   21241271.1834
   7154730.08244   5575109.95244  23883344.7714   23883345.7794
  -2071274.61144  -1613980.41044  20237122.2874   20237122.1174
 96  4  3  0 57  0.0000000  0  7G 4G 6G24G16G20G 9G 5
   7447566.43344   5803297.98744  23551372.1114   23551372.3194
  -5568899.02344  -4339398.38044  23237761.3374   23237761.8784
   3044866.60344   2372624.08044  21050706.2314   21050706.7334
  -7137743.79644  -5561873.58944  22235164.5814   22235165.8774
  -6328047.06344  -4930944.55644  21229159.8404   21229160.0084
   7246473.68744   5646598.41344  23900802.4324   23900804.9514
  -2076874.95444  -1618344.31744  20236056.6404   20236056.6344
 96  4  3  0 57 30.0000000  0  7G 4G 6G24G16G20G 9G 5
   7542622.58744   5877367.70144  23569461.2814   23569459.5874
  -5635299.27144  -4391138.80844  23225125.7064   23225126.7014
   3097309.38144   2413488.58244  21060685.6924   21060686.1504
  -7214524.48344  -5621702.66544  22220553.6354   22220555.4294
  -6391297.18544  -4980230.36544  21217123.5724   21217124.0424
   7338248.35244   5718111.04844  23918267.1214   23918268.3074
  -2081989.14644  -1622329.40844  20235083.5664   20235083.2304
 96  4  3  0 58  0.0000000  0  7G 4G 6G24G16G20G 9G 5
   7637740.85744   5951485.85544  23587561.7274   23587561.7504
  -5701645.87944  -4442837.41544  23212500.5264   23212501.1124
   3150079.61244   2454608.24844  21070727.5874   21070727.9234
  -7290962.15844  -5681264.44744  22206007.7164   22206009.3854
  -6454135.74544  -5029195.46644  21205165.5224   21205166.1444
   7430062.11044   5789654.16044  23935738.6744   23935740.1984
  -2086587.19744  -1625912.30844  20234208.4744   20234208.4254
 96  4  3  0 58 30.0000000  0  7G 4G 6G24G16G20G 9G 5
   7732912.57544   6025645.59944  23605672.1954   23605672.6644
  -5767927.69244  -4494485.52944  23199887.3684   23199888.7654
   3203174.91244   2495981.21344  21080831.0494   21080831.5804
  -7367056.42044  -5740558.63544  22191527.7774   22191529.3374
  -6516561.52244  -5077838.92544  21193286.7704   21193287.2344
   7521905.43744   5861220.30744  23953215.1554   23953218.1784
  -2090642.46944  -1629072.26544  20233436.7494   20233436.5744
 96  4  3  0 59  0.0000000  0  7G 4G 6G24G16G20G 9G 5
   7828108.15144   6099823.96944  23623787.3014   23623785.5114
  -5834180.27044  -4546110.89544  23187280.5024   23187280.1594
   3256544.24544   2537567.70844  21090986.9214   21090987.4504
  -7442829.56944  -5799602.60944  22177108.3754   22177109.7644
  -6578602.54144  -5126182.56544  21181480.5514   21181480.8104
   7613732.83944   5932774.05144  23970690.0454   23970692.0934
  -2094183.05444  -1631831.17044  20232763.0804   20232762.9754
 96  4  3  0 59 30.0000000  0  7G 4G 6G24G16G20G 9G 5
   7923371.78344   6174055.36044  23641915.5184   23641914.5384
  -5900396.04144  -4597707.55944  23174679.6104   23174680.4644
   3310206.39844   2579382.37244  21101198.6384   21101198.8964
  -7518248.00844  -5858370.19044  22162757.1664   22162758.7674
  -6640241.07144  -5174212.58144  21169750.8234   21169751.0844
   7705574.26244   6004338.71344  23988166.7694   23988168.4314
  -2097187.70344  -1634172.46244  20232191.4724   20232190.9664
 96  4  3  1  0  0.0000000  0  7G 4G 6G24G16G20G 9G 5
   8018716.80644   6248350.18444  23660058.1714   23660056.2454
  -5966582.96344  -4649281.76544  23162084.8514   23162084.4424
   3364165.58944   2621428.50544  21111466.8794   21111467.1124
  -7593330.90944  -5916876.30444  22148469.0294   22148470.6354
  -6701488.96444  -5221938.19744  21158095.8334   21158096.0804
   7797426.30644   6075911.64844  24005645.2664   24005648.7044
  -2099666.30744  -1636103.85044  20231719.7344   20231719.5524
 96  4  3  1  0 30.0000000  0  7G 4G 6G24G16G20G 9G 5
   8114134.19244   6322701.37744  23678215.5604   23678217.0854
  -6032745.21844  -4700836.73144  23149493.6934   23149494.2564
   3418423.70244   2663707.55844  21121791.5464   21121792.1484
  -7668084.86244  -5975126.09744  22134243.4334   22134244.8014
  -6762328.52744  -5269345.64144  21146518.7354   21146519.3364
   7889284.85244   6147489.61544  24023125.8424   24023128.0864
  -2101629.87544  -1637633.90944  20231346.0604   20231345.9054
 96  4  3  1  1  0.0000000  0  7G 4G 6G24G16G20G 9G 5
   8209608.06444   6397096.58044  23696384.3164   23696384.2084
  -6098893.81344  -4752381.06344  23136906.4114   23136907.3274
   3472975.90244   2706215.76844  21132172.4184   21132172.9684
  -7742527.82044  -6033133.56144  22120077.8474   22120079.3214
  -6822755.42944  -5316431.52644  21135019.7954   21135020.5834
   7981122.76444   6219051.53844  24040602.3834   24040603.4464
  -2103086.68944  -1638769.10244  20231068.8954   20231068.8004
 96  4  3  1  1 30.0000000  0  7G 4G 6G24G16G20G 9G 5
   8305137.90544   6471535.42044  23714562.6044   23714563.5204
  -6165010.54544  -4803900.54644  23124324.5044   23124325.3394
   3527844.32044   2748970.38544  21142613.6984   21142614.1814
  -7816653.44544  -6090893.74644  22105971.4194   22105973.1674
  -6882742.03144  -5363174.32344  21123604.3554   21123605.0094
   8072956.69744   6290610.36544  24058078.0434   24058079.6034
  -2104017.02544  -1639494.04844  20230891.8304   20230891.7784
 96  4  3  1  2  0.0000000  0  7G 4G 6G24G16G20G 9G 5
   8400703.18944   6546001.84944  23732747.6584   23732748.1114
  -6231104.73644  -4855402.47044  23111747.8054   23111748.1054
   3583026.61344   2791969.57444  21153114.5274   21153115.0954
  -7890459.67744  -6148405.04744  22091926.8194   22091928.8714
  -6942277.70244  -5409565.74544  21112275.2994   21112275.7314
   8164783.17044   6362163.35844  24075551.6434   24075553.3714
  -2104424.73344  -1639811.75344  20230814.1914   20230814.1564
 96  4  3  1  2 30.0000000  0  7G 4G 6G24G16G20G 9G 5
   8496307.04044   6620498.34744  23750941.5714   23750942.3354
  -6297158.59844  -4906872.99844  23099177.9274   23099178.0434
   3638524.50944   2835214.69144  21163675.1164   21163675.5524
  -7963914.09644  -6205642.21244  22077949.0514   22077950.9494
  -7001352.70144  -5455598.20244  21101033.7014   21101034.0794
   8256613.50044   6433719.36944  24093026.9704   24093029.4574
  -2104290.25944  -1639706.97044  20230839.7954   20230839.5864
 96  4  3  1  3  0.0000000  0  7G 4G 6G24G16G20G 9G 5
   8591964.20344   6695036.38544  23769143.3984   23769144.1004
  -6363159.11744  -4958301.94744  23086618.6414   23086618.0064
   3694329.60644   2878699.18444  21174294.7604   21174295.3034
  -8036991.27044  -6262585.42544  22064042.6204   22064044.2024
  -7059979.90544  -5501281.72844  21089877.4534   21089878.0034
   8348462.64744   6505290.03344  24110505.6994   24110508.6614
  -2103598.96044  -1639168.29544  20230971.3624   20230971.2914
 96  4  3  1  3 30.0000000  0  7G 4G 6G24G16G20G 9G 5
   8687670.78744   6769612.93744  23787356.2404   23787356.1654
  -6429123.73844  -5009702.92044  23074065.4554   23074064.6604
   3750427.47244   2922411.80544  21184969.7524   21184970.2064
  -8109675.74444  -6319222.63244  22050211.4284   22050212.7724
  -7118181.58544  -5546633.67544  21078802.0804   21078802.6064
   8440335.29044   6576878.99644  24127987.6974   24127987.2864
  -2102372.96944  -1638212.97844  20231204.5724   20231204.3604
 96  4  3  1  4  0.0000000  0  7G 4G 6G24G16G20G 9G 5
   8783424.44744   6844226.16144  23805578.2864   23805578.1074
  -6495062.14644  -5061083.46244  23061517.8094   23061517.4634
   3806801.49144   2966339.61344  21195697.4094   21195697.8514
  -8181967.00044  -6375553.44444  22036454.7874   22036456.2424
  -7175979.17944  -5591670.74644  21067803.0114   21067803.5664
   8532196.06144   6648458.73344  24145468.0514   24145470.4684
  -2100628.79544  -1636853.89044  20231536.5674   20231536.5364
 96  4  3  1  4 30.0000000  0  7G 4G 6G24G16G20G 9G 5
   8879228.61744   6918878.73844  23823808.6964   23823809.4054
  -6560942.93644  -5112419.10644  23048981.5004   23048981.5694
   3863458.15244   3010487.66444  21206478.7124   21206479.1964
  -8253845.76044  -6431562.83244  22022776.6234   22022777.7764
  -7233359.43944  -5636382.63244  21056884.2744   21056884.7564
   8624048.33544   6720031.85844  24162947.6244   24162947.0434
  -2098343.13444  -1635072.86244  20231971.6334   20231971.5364
 96  4  3  1  5  0.0000000  0  7G 4G 6G24G16G20G 9G 5
   8975044.60844   6993540.53544  23842041.9774   23842041.4984
  -6626778.51344  -5163719.52844  23036454.0644   23036454.0194
   3920376.57444   3054839.67544  21217309.9694   21217310.5024
  -8325338.07144  -6487271.08944  22009172.0294   22009173.6154
  -7290326.64144  -5680772.64644  21046043.6544   21046044.2314
   8715867.06644   6791578.83444  24180420.0014   24180422.7764
  -2095538.16044  -1632887.17944  20232505.2584   20232505.2244
 96  4  3  1  5 30.0000000  0  7G 4G 6G24G16G20G 9G 5
   9070888.54644   7068224.09644  23860280.9824   23860281.9144
  -6692549.62944  -5214969.71544  23023937.6604   23023938.7294
   3977582.35744   3099415.60844  21228195.8794   21228196.0844
  -8396427.16344  -6542665.15344  21995644.3924   21995646.3044
  -7346841.93244  -5724810.52444  21035289.4254   21035289.8664
   8807649.43144   6863097.42144  24197886.7444   24197888.4404
  -2092203.08944  -1630288.42844  20233140.0554   20233139.8264
 96  4  3  1  6  0.0000000  0  7G 4G 6G24G16G20G 9G 5
   9166761.92944   7142930.60444  23878525.0684   23878525.5044
  -6758246.16144  -5266161.78444  23011435.9774   23011436.4914
   4035065.38044   3144207.57744  21239134.7904   21239135.1284
  -8467118.86144  -6597749.55944  21982191.8954   21982193.2354
  -7402890.79444  -5768484.96244  21024623.7684   21024624.1364
   8899394.64744   6934587.10244  24215343.1964   24215346.2554
  -2088331.54344  -1627271.64444  20233876.5534   20233876.3964
 96  4  3  1  6 30.0000000  0  7G 4G 6G24G16G20G 9G 5
   9262637.62944   7217638.93644  23896769.1314   23896769.8614
  -6823892.52544  -5317314.76844  22998943.7224   22998944.0254
   4092799.99844   3189195.58844  21250121.2604   21250121.7064
  -8537446.47544  -6652550.26544  21968808.9124   21968810.3974
  -7458490.31744  -5811809.25344  21014043.3414   21014043.9224
   8991096.91044   7006043.31244  24232795.0574   24232796.7644
  -2083937.31644  -1623847.57944  20234712.8074   20234712.5664
 96  4  3  1  7  0.0000000  0  7G 4G 6G24G16G20G 9G 5
   9358545.70544   7292372.47044  23915019.8554   23915020.0184
  -6889492.18644  -5368431.36244  22986460.7884   22986459.8154
   4150805.01244   3234394.29544  21261159.2344   21261159.9284
  -8607404.51744  -6707062.99444  21955496.6604   21955498.2574
  -7513626.96744  -5854772.86944  21003551.3724   21003551.4884
   9082771.50544   7077477.98044  24250240.3294   24250243.7574
  -2079007.24744  -1620005.97544  20235651.0964   20235650.9154
 96  4  3  1  7 30.0000000  0  7G 4G 6G24G16G20G 9G 5
   9454514.22344   7367153.12544  23933281.8504   23933284.3134
  -6955060.06944  -5419523.19644  22973982.9804   22973983.4264
   4209097.18644   3279816.76344  21272251.7934   21272252.1634
  -8676976.04544  -6761274.53744  21942257.3234   21942258.8154
  -7568299.40944  -5897374.76144  20993147.1154   20993147.4154
   9174435.97544   7148904.71344  24267683.1714   24267684.7524
  -2073519.29444  -1615729.65544  20236695.4304   20236695.2384
 96  4  3  1  8  0.0000000  0  7G 4G 6G24G16G20G 9G 5
   9550515.67744   7441959.44644  23951549.6774   23951551.8604
  -7020618.97544  -5470608.02344  22961507.9004   22961508.4404
   4267651.79244   3325443.73644  21283394.4774   21283394.6494
  -8746178.45444  -6815198.45444  21929088.4524   21929090.2004
  -7622535.67944  -5939636.78244  20982826.6604   20982826.5344
   9266092.91044   7220325.57444  24285124.2994   24285127.2084
  -2067471.82344  -1611017.34844  20237846.2294   20237846.3034
 96  4  3  1  8 30.0000000  0  7G 4G 6G24G16G20G 9G 5
   9646545.08744   7516787.54844  23969823.7924   23969822.7684
  -7086166.52744  -5521684.00944  22949034.3064   22949034.0074
   4326485.55944   3371288.22644  21294589.9514   21294590.3674
  -8815009.33344  -6868832.87244  21915990.6544   21915992.1404
  -7676335.00044  -5981558.32544  20972588.5304   20972588.9634
   9357737.99144   7291737.26744  24302564.8994   24302565.7254
  -2060852.56944  -1605859.49544  20239105.7054   20239105.5484
 96  4  3  1  9  0.0000000  0  7G 4G 6G24G16G20G 9G 5
   9742612.10344   7591644.93144  23988104.5914   23988105.9154
  -7151706.94844  -5572754.45044  22936562.2644   22936562.6894
   4385599.55444   3417351.07544  21305838.9964   21305839.4184
  -8883448.67744  -6922162.19444  21902967.0744   21902968.4764
  -7729690.13744  -6023133.74944  20962435.5074   20962436.0244
   9449372.05944   7363140.33344  24320001.7114   24320005.2624
  -2053678.25544  -1600269.12744  20240470.9304   20240470.9304
 96  4  3  1  9 30.0000000  0  7G 4G 6G24G16G20G 9G 5
   9838709.10144   7666525.67244  24006391.4564   24006391.6104
  -7217226.85644  -5623808.88944  22924094.3564   22924094.4424
   4444978.15244   3463620.11444  21317138.5984   21317139.0494
  -8951491.85444  -6975182.81744  21890018.7204   21890020.3294
  -7782598.53744  -6064361.07344  20952367.5404   20952367.9694
   9540987.75544   7434529.06444  24337435.2554   24337437.9264
  -2045965.57944  -1594259.25844  20241938.7024   20241938.3194
 96  4  3  1 10  0.0000000  0  7G 4G 6G24G16G20G 9G 5
   9934839.22644   7741432.25144  24024684.8564   24024684.7214
  -7282697.47244  -5674824.94744  22911635.0864   22911635.6794
   4504616.46644   3510091.52344  21328487.5064   21328487.8324
  -9019135.76144  -7027892.31544  21877146.2104   21877147.8064
  -7835048.24044  -6105230.96544  20942386.5824   20942387.1204
   9632580.41944   7505899.84544  24354865.9334   24354869.6174
  -2037720.59844  -1587834.60644  20243507.6734   20243507.6814
 96  4  3  1 10 30.0000000  0  7G 4G 6G24G16G20G 9G 5
  10030987.99444   7816353.37344  24042981.8714   24042981.5924
  -7348128.78944  -5725810.33244  22899184.1234   22899184.4484
   4564499.83444   3556753.89344  21339882.6404   21339883.1254
  -9086387.29244  -7080296.07244  21864348.9454   21864350.2144
  -7887045.03544  -6145747.94344  20932492.0834   20932492.4764
   9724117.68444   7577227.48044  24372284.7224   24372287.6504
  -2028979.25144  -1581023.17344  20245171.1204   20245171.0334
 96  4  3  1 11  0.0000000  0  7G 4G 6G24G16G20G 9G 5
  10127166.06244   7891297.28944  24061283.8304   24061283.9334
  -7413496.15944  -5776745.93444  22886744.5814   22886745.0064
   4624641.64144   3603617.64344  21351327.1424   21351327.6984
  -9153220.93844  -7132374.20644  21851631.1064   21851632.7554
  -7938570.48344  -6185897.63844  20922687.2094   20922687.6274
   9815607.45244   7648518.10344  24389694.1024   24389694.0474
  -2019722.01844  -1573809.74944  20246932.6834   20246932.6664
 96  4  3  1 11 30.0000000  0  7G 4G 6G24G16G20G 9G 5
  10223357.12744   7966251.34844  24079588.2714   24079590.1094
  -7478792.30444  -5827626.02644  22874319.7724   22874320.8894
   4685029.62444   3650673.21344  21362818.4654   21362819.0264
  -9219652.67644  -7184139.16144  21838989.8484   21838990.9594
  -7989639.33044  -6225691.54044  20912968.8254   20912969.2194
   9907033.66244   7719759.21344  24407092.5924   24407096.8274
  -2009936.50244  -1566184.68144  20248794.8334   20248794.5924
 96  4  3  1 12  0.0000000  0  7G 4G 6G24G16G20G 9G 5
  10319542.19144   8041200.74844  24097891.3714   24097890.1114
  -7544037.99644  -5878466.79244  22861903.5924   22861903.9274
   4745651.84044   3697911.30444  21374354.6444   21374354.9284
  -9285680.79744  -7235589.61544  21826424.5584   21826426.1604
  -8040261.23444  -6265137.17344  20903335.8444   20903336.2054
   9998374.35644   7790933.65744  24424474.2944   24424477.7834
  -1999617.49044  -1558143.90344  20250758.4514   20250758.0684
 96  4  3  1 12 30.0000000  0  7G 4G 6G24G16G20G 9G 5
  10415725.16444   8116148.51244  24116194.1734   24116194.4934
  -7609233.02444  -5929268.06844  22849497.4714   22849498.0744
   4806513.57444   3745336.03844  21385936.4354   21385936.7954
  -9351290.89244  -7286714.33244  21813939.6574   21813940.6834
  -8090422.22044  -6304223.65644  20893790.7964   20893790.9194
  10089627.02144   7862039.49944  24441838.4364   24441842.8884
  -1988751.58244  -1549676.97344  20252826.1334   20252826.1954
 96  4  3  1 13  0.0000000  0  7G 4G 6G24G16G20G 9G 5
  10511917.55744   8191103.61244  24134499.9044   24134499.9194
  -7674381.74244  -5980033.31044  22837100.6714   22837100.7704
   4867619.72744   3792951.21944  21397564.4164   21397565.1464
  -9416480.74944  -7337511.59744  21801534.3584   21801535.3224
  -8140112.77244  -6342943.56044  20884334.9684   20884335.2724
  10180805.40844   7933087.45344  24459189.1264   24459194.1214
  -1977316.46644  -1540766.50244  20255002.2944   20255002.0754
 96  4  3  1 13 30.0000000  0  7G 4G 6G24G16G20G 9G 5
  10608138.68144   8266081.08344  24152809.7554   24152809.3354
  -7739492.11444  -6030768.63844  22824710.1374   22824709.0634
   4928965.10444   3840752.81044  21409238.2364   21409238.7404
  -9481232.85844  -7387967.75544  21789212.2204   21789213.1364
  -8189312.11544  -6381280.70744  20874972.5754   20874972.4564
  10271921.64944   8004087.00344  24476529.9424   24476531.0404
  -1965315.89144  -1531415.41444  20257285.8584   20257285.5564
 96  4  3  1 14  0.0000000  0  7G 4G 6G24G16G20G 9G 5
  10704370.91344   8341067.23944  24171121.9924   24171121.2664
  -7804576.66944  -6081483.85044  22812325.3894   22812324.9494
   4990546.62344   3888738.41444  21420956.7584   21420957.3004
  -9545548.90844  -7438084.12944  21776973.5484   21776975.0434
  -8238008.89244  -6419226.24244  20865705.4834   20865705.9684
  10362964.68844   8075029.55744  24493854.0774   24493856.2034
  -1952766.59644  -1521636.75044  20259673.9474   20259673.7424
 96  4  3  1 14 30.0000000  0  7G 4G 6G24G16G20G 9G 5
  10800601.10944   8416051.78344  24189433.9584   24189433.5254
  -7869630.88144  -6132175.42444  22799946.4924   22799946.1274
   5052370.13544   3936912.58044  21432721.5094   21432721.9824
  -9609438.82444  -7487868.44344  21764815.8584   21764817.1204
  -8286207.97344  -6456783.96244  20856533.9274   20856534.2694
  10453944.33044   8145922.65144  24511166.0874   24511166.9124
  -1939679.52144  -1511439.03544  20262164.3754   20262164.2994
 96  4  3  1 15  0.0000000  0  7G 4G 6G24G16G20G 9G 5
  10896822.92944   8491029.81944  24207744.1754   24207747.2124
  -7934657.90344  -6182845.81944  22787572.3474   22787572.0474
   5114429.17344   3985270.27244  21444530.7734   21444531.3974
  -9672897.38144  -7537316.63644  21752739.7314   21752740.8944
  -8333909.88544  -6493954.27844  20847456.6134   20847456.9304
  10544871.58144   8216774.90644  24528469.3844   24528475.7354
  -1926055.60144  -1500823.00444  20264756.8544   20264756.8374
 96  4  3  1 15 30.0000000  0  7G 4G 6G24G16G20G 9G 5
  10993038.46144   8566002.93444  24226052.9644   24226054.0284
  -7999634.76444  -6233477.11844  22775206.7614   22775207.1244
   5176728.98544   4033815.57944  21456386.3134   21456386.9384
  -9735914.49244  -7586420.84544  21740747.8094   21740748.7614
  -8381113.95244  -6530736.66244  20838474.0094   20838474.3914
  10635742.09144   8287582.94644  24545761.4164   24545766.0314
  -1911888.45144  -1489783.67944  20267452.6664   20267452.8734
 96  4  3  1 16  0.0000000  0  7G 4G 6G24G16G20G 9G 5
  11089239.49444   8640964.76044  24244358.9964   24244359.3534
  -8064548.35444  -6284059.10944  22762854.4414   22762854.7184
   5239276.98044   4082554.27844  21468288.5064   21468289.0704
  -9798490.26244  -7635181.15344  21728840.2824   21728841.3414
  -8427826.88944  -6567136.35244  20829584.4794   20829584.8844
  10726557.52244   8358348.07644  24563043.3474   24563047.0304
  -1897160.24544  -1478307.16644  20270255.5684   20270255.4114
 96  4  3  1 16 30.0000000  0  7G 4G 6G24G16G20G 9G 5
  11185430.03044   8715918.46744  24262664.0734   24262663.0784
  -8129423.91344  -6334611.47344  22750509.2724   22750508.8554
   5302052.75644   4131470.46744  21480234.3544   21480235.0654
  -9860634.57944  -7683605.26044  21717014.2994   21717015.6814
  -8474077.73144  -6603175.96244  20820783.1884   20820783.6324
  10817299.62644   8429056.08444  24580311.1054   24580314.3274
  -1881876.32144  -1466397.62144  20273164.0354   20273163.8784
 96  4  3  1 17  0.0000000  0  7G 4G 6G24G16G20G 9G 5
  11281627.12544   8790877.19444  24280969.5644   24280969.9274
  -8194261.70444  -6385134.42144  22738170.9134   22738170.1884
   5365056.73044   4180564.47344  21492223.4024   21492224.3464
  -9922343.19744  -7731689.86444  21705271.8874   21705273.0194
  -8519861.54444  -6638851.66044  20812071.1074   20812071.4534
  10907955.83844   8499697.15844  24597562.9264   24597566.0764
  -1866031.15344  -1454050.74644  20276179.1324   20276179.1274
 96  4  3  1 17 30.0000000  0  7G 4G 6G24G16G20G 9G 5
  11377846.29244   8865853.14344  24299279.2364   24299279.1934
  -8259039.55944  -6435610.65944  22725844.0224   22725843.6904
   5428310.02244   4229852.74944  21504260.2804   21504261.1684
  -9983601.26844  -7779423.39044  21693614.9194   21693615.9494
  -8565165.17744  -6674153.18344  20803450.1064   20803450.1704
  10998520.02844   8570266.53944  24614796.7374   24614800.9124
  -1849617.08644  -1441260.57144  20279302.6344   20279302.5774
 96  4  3  1 18  0.0000000  0  7G 4G 6G24G16G20G 9G 5
  11474069.96544   8940832.60744  24317591.1344   24317589.2754
  -8323780.46644  -6486058.09044  22713523.5244   22713523.8654
   5491802.43844   4279327.36844  21516342.2714   21516342.7964
 -10044420.38344  -7826814.87444  21682041.1104   21682042.4614
  -8609993.03144  -6709083.97044  20794919.5634   20794919.9634
  11088976.87644   8640752.23844  24632010.2934   24632011.6924
  -1832660.14844  -1428047.38344  20282529.6354   20282529.5444
 96  4  3  1 18 30.0000000  0  8G 4G 6G24G16G20G17G 9G 5
  11570331.15844   9015841.35344  24335909.6754   24335909.4684
  -8388450.67644  -6536450.44544  22701217.7654   22701218.2794
   5555575.09144   4329020.34544  21528477.8394   21528478.3664
 -10104768.79644  -7873839.58144  21670557.4074   21670558.6434
  -8654300.44844  -6743609.22544  20786487.9584   20786488.3594
        -1.13754                  25561222.8604
  11179363.17644   8711182.99744  24649209.2684   24649212.3184
  -1815140.89744  -1414396.02444  20285863.2994   20285863.0644
 96  4  3  1 19  0.0000000  0  8G 4G 6G24G16G20G17G 9G 5
  11666594.92544   9090852.06344  24354227.8564   24354229.0134
  -8453060.44544  -6586795.69744  22688922.6794   22688923.1194
   5619603.94444   4378912.95744  21540662.2454   21540662.6874
 -10164667.52544  -7920513.88544  21659158.8114   21659159.9204
  -8698090.94544  -6777731.68444  20778155.1154   20778155.5394
    -98479.63044                  25542483.5844
  11269665.92844   8781548.63844  24666394.4784   24666394.3944
  -1797091.00744  -1400331.18044  20289298.0954   20289298.2124
 96  4  3  1 19 30.0000000  0  8G 4G 6G24G16G20G17G 9G 5
  11762828.82344   9165839.47644  24372540.0824   24372536.9154
  -8517644.15044  -6637120.64444  22676632.4404   22676633.4434
   5683854.38044   4428978.23444  21552888.5854   21552889.1374
 -10224143.53144  -7966858.79644  21647840.8424   21647842.1364
  -8741383.19644  -6811465.89944  20769916.7604   20769917.1984
   -196878.49544                  25523761.2824
  11359869.35644   8851836.89344  24683559.8744   24683561.1384
  -1778543.75744  -1385878.78944  20292827.4134   20292827.2604
 96  4  3  1 20  0.0000000  0  8G 4G 6G24G16G20G17G 9G 5
  11859038.24544   9240807.84244  24390848.4084   24390846.1194
  -8582199.11044  -6687423.19544  22664348.0004   22664348.1834
   5748326.27944   4479216.07944  21565157.1714   21565157.6784
 -10283189.93844  -8012868.94744  21636604.8874   21636606.2244
  -8784165.26944  -6844802.57544  20761775.9384   20761776.0504
   -295186.85244                  25505055.9424
  11449996.06244   8922065.35944  24700710.0614   24700711.0654
  -1759485.42044  -1371028.14944  20296454.1304   20296454.0114
 96  4  3  1 20 30.0000000  0  8G 4G 6G24G16G20G17G 9G 5
  11955239.92444   9315770.18644  24409154.6384   24409149.6354
  -8646706.87244  -6737688.95144  22652072.5524   22652073.6804
   5813016.41444   4529623.97644  21577467.2434   21577468.0204
 -10341780.29744  -8058523.74244  21625455.0534   21625456.3244
  -8826415.31844  -6877724.68544  20753735.6604   20753735.9994
   -393382.84544                  25486370.0744
  11540065.96444   8992249.55244  24717850.3484   24717854.0994
  -1739896.57244  -1355764.12244  20300181.8194   20300182.1474
 96  4  3  1 21  0.0000000  0  8G 4G 6G24G16G20G17G 9G 5
  12051438.10444   9390729.84844  24427460.2434   24427461.6284
  -8711168.18044  -6787918.52444  22639805.8504   22639807.3424
   5877906.19044   4580187.43944  21589815.4814   21589816.0004
 -10399905.94344  -8103816.41744  21614394.7314   21614395.3534
  -8868144.27144  -6910240.74444  20745795.0134   20745795.4144
   -491487.07044                  25467699.7804
  11630064.15744   9062377.90144  24734976.8264   24734980.0834
  -1719768.85444  -1340080.19944  20304011.9844   20304012.2294
 96  4  3  1 21 30.0000000  0  7G 4G 6G24G16G20G 9G 5
  12147623.14744   9465679.16744  24445764.0094   24445764.5234
  -8775589.06244  -6838116.59344  22627547.1654   22627547.6874
   5942983.33944   4630896.90744  21602199.1104   21602199.6744
 -10457572.18644  -8148751.12044  21603421.2184   21603422.3844
  -8909376.08544  -6942369.42644  20737948.7304   20737949.0044
  11719959.90744   9132426.39944  24752082.6074   24752083.9934
  -1699101.64144  -1323975.89044  20307944.9164   20307944.7904
 96  4  3  1 22  0.0000000  0  7G 4G 6G24G16G20G 9G 5
  12243779.22944   9540605.97544  24464061.8934   24464061.2344
  -8839964.68544  -6888279.38944  22615297.2174   22615297.5614
   6008241.52544   4681747.44744  21614617.7224   21614618.0994
 -10514777.92744  -8193326.99544  21592534.9064   21592536.0584
  -8950126.66844  -6974123.11644  20730194.4054   20730194.8414
  11809737.72344   9202383.01144  24769167.3194   24769172.7554
  -1677891.61844  -1307448.61044  20311981.0954   20311981.0264
 96  4  3  1 22 30.0000000  0  7G 4G 6G24G16G20G 9G 5
  12339901.35144   9615506.30944  24482352.7914   24482352.6574
  -8904297.31544  -6938408.69044  22603055.2814   22603055.3134
   6073679.02044   4732737.70444  21627069.8114   21627070.3144
 -10571525.06244  -8237545.51244  21581736.1594   21581737.1414
  -8990395.98044  -7005501.79844  20722530.9834   20722531.3594
  11899387.20844   9272239.62244  24786226.7894   24786228.2034
  -1656137.44344  -1290497.31044  20316120.6784   20316120.8754
 96  4  3  1 23  0.0000000  0  7G 6G 4G24G16G20G 9G 5
  -8968566.08344  -6988488.21944  22590825.3974   22590825.4314
  12435995.50944   9690384.85644  24500639.6054   24500639.4894
   6139317.82444   4783884.82444  21639560.4194   21639560.7964
 -10627807.67144  -8281402.05744  21571025.9164   21571027.2544
  -9030182.33044  -7036504.14644  20714960.0184   20714960.4354
  11988903.67544   9341992.60644  24803261.8544   24803265.0914
  -1633824.28844  -1273110.44344  20320366.8594   20320366.6754
 96  4  3  1 23 30.0000000  0  8G 6G 4G24G16G20G17G 9G 5
  -9032785.33844  -7038529.17144  22578604.5364   22578605.0634
  12532037.54244   9765222.79444  24518915.6104   24518914.5114
   6205148.24844   4835181.26344  21652087.6364   21652087.8774
 -10683642.06844  -8324909.34544  21560401.2654   21560402.3674
  -9069485.19844  -7067129.75444  20707481.0094   20707481.3964
        -0.34054                  25374632.0684
  12078274.32444   9411631.94644  24820268.0954   24820275.4774
  -1610972.16944  -1255303.60744  20324715.5144   20324715.3384
 96  4  3  1 24  0.0000000  0  8G 6G 4G24G16G20G17G 9G 5
  -9096954.57144  -7088531.14644  22566393.7124   22566394.0374
  12628030.98944   9840022.89144  24537182.4064   24537182.8204
   6271174.70344   4886630.44844  21664652.1544   21664652.5904
 -10739008.06044  -8368051.64144  21549865.1234   21549866.1404
  -9108272.46344  -7097353.59544  20700100.1284   20700100.4464
    -97444.02944    -75929.64044  25356090.0924
  12167521.06944   9481174.77244  24837251.7464   24837256.8214
  -1587574.99044  -1237072.04644  20329167.7964   20329167.8234
 96  4  3  1 24 30.0000000  0  8G 6G 4G24G16G20G17G 9G 5
  -9161060.49344  -7138483.79444  22554194.5944   22554194.2414
  12723996.70744   9914801.36644  24555444.6624   24555444.8454
   6337404.94244   4938238.42544  21677255.3054   21677255.8294
 -10793885.59244  -8410813.33244  21539422.6384   21539423.7694
  -9146520.00844  -7127156.87444  20692821.9864   20692822.2274
   -194736.58344   -151741.86644  25337576.6594
  12256652.69144   9550627.82944  24854212.2514
  -1563626.50144  -1218410.89644  20333725.0644   20333725.1784
 96  4  3  1 25  0.0000000  0  8G 6G 4G24G16G20G17G 9G 5
  -9225094.95144  -7188380.75344  22542008.8024   22542009.1334
  12819950.57644   9989570.63644  24573704.5754   24573706.9564
   6403849.64744   4990013.51644  21689899.3324   21689899.9694
 -10848259.08344  -8453182.25444  21529075.4744   21529076.4604
  -9184221.51644  -7156534.67144  20685647.5654   20685647.8624
   -291887.31144   -227443.59544  25319089.7094
  12345667.48844   9619989.87844  24871151.7564   24871152.3114
  -1539125.01044  -1199318.83644  20338387.3844   20338387.3224
 96  4  3  1 25 30.0000000  0  8G 6G 4G24G16G20G17G 9G 5
  -9289089.96144  -7238246.97644  22529830.6624   22529831.4394
  12915878.25544  10064319.45144  24591958.4734   24591960.8304
   6470484.07044   5041936.44044  21702579.6194   21702580.0004
 -10902148.17644  -8495173.72644  21518820.4784   21518821.7464
  -9221386.34544  -7185494.27844  20678575.3724   20678575.5634
   -388941.79244   -303070.26144  25300618.8584
  12434554.68044   9689252.52744  24888066.4174   24888071.0534
  -1514088.98444  -1179810.25044  20343151.5394   20343151.7624
 96  4  3  1 26  0.0000000  0  8G 6G 4G24G16G20G17G 9G 5
  -9353023.70844  -7288065.44844  22517664.9754   22517665.2714
  13011814.78744  10139075.15944  24610214.7124   24610212.8734
   6537336.82644   5094029.49344  21715301.3634   21715301.5304
 -10955532.48144  -8536771.86044  21508661.8664   21508663.0764
  -9258002.65244  -7214026.45944  20671607.3334   20671607.8184
   -485907.43544                  25282162.4564
  12523340.82944   9758436.42144  24904962.6854   24904966.7724
  -1488496.56444  -1159868.11544  20348021.7184   20348021.7234
 96  4  3  1 26 30.0000000  0  8G 6G 4G24G16G20G17G 9G 5
  -9416892.54344  -7337833.35044  22505511.4894   22505511.6514
  13107761.38544  10213838.78644  24628473.8694   24628472.4204
   6604416.37044   5146299.26844  21728065.8974   21728066.1894
 -11008424.88544  -8577986.69344  21498596.8154   21498597.8484
  -9294085.03744  -7242142.60744  20664741.1384   20664741.5264
   -582777.26644                  25263723.7844
  12612018.71144   9827535.86644  24921837.1824   24921840.8564
  -1462352.63044  -1139496.23044  20352996.8824   20352996.7734
 96  4  3  1 27  0.0000000  0  8G 6G 4G24G16G20G17G 9G 5
  -9480716.68044  -7387566.42844  22493365.9754   22493366.0064
  13203689.97944  10288588.35744  24646726.4354   24646728.8514
   6671701.81544   5198729.49044  21740870.1774   21740870.5144
 -11060850.98944  -8618838.17344  21488620.1104   21488621.4094
  -9329643.49644  -7269850.49244  20657974.7694   20657975.2074
   -679568.25644                  25245305.2914
  12700562.57844   9896530.98344  24938686.0094   24938690.6584
  -1435665.49244  -1118701.06844  20358075.2284   20358075.1794
 96  4  3  1 27 30.0000000  0  8G 6G 4G24G16G20G17G 9G 5
  -9544513.69244  -7437278.35344  22481225.5444   22481225.1734
  13299560.50344  10363292.64744  24664970.0924   24664971.8694
   6739164.60044   5251297.89344  21753707.4644   21753707.9544
 -11112834.32744  -8659344.63644  21478728.2314   21478729.3764
  -9364694.52244  -7297162.98044  20651304.5884   20651304.7834
   -776284.45444                  25226904.3854
  12788962.73244   9965414.11444  24955508.2404   24955512.4754
  -1408449.17144  -1097493.55644  20363254.4584   20363254.2294
 96  4  3  1 28  0.0000000  0  8G 6G24G 4G16G20G17G 9G 5
  -9608247.87244  -7486941.32944  22469097.5214   22469097.1674
   6806833.17644   5304026.64544  21766584.7344   21766585.2574
  13395381.73544  10437958.54744  24683203.6304   24683202.1064
 -11164342.57244  -8699480.90344  21468926.6174   21468927.9214
  -9399213.93244  -7324061.21944  20644735.9144   20644736.2314
   -872874.34344   -680159.74044  25208528.3654
  12877231.43744  10034194.77444  24972306.5964
  -1380679.21744  -1075854.63944  20368538.7614   20368538.7044
 96  4  3  1 28 30.0000000  0  8G 6G24G 4G16G20G17G 9G 5
  -9671914.56944  -7536551.72244  22456982.5874   22456982.4484
   6874686.61144   5356899.45144  21779496.3144   21779497.0574
  13491134.42544  10512571.05644  24701424.9784   24701421.7764
 -11215365.32944  -8739238.86144  21459216.7354   21459218.2264
  -9433197.79144  -7350542.14744  20638268.7834   20638269.3004
   -969328.91544   -755318.96244  25190175.6364   25190178.8144
  12965349.63244  10102858.24644  24989072.5484
  -1352350.54244  -1053780.35244  20373929.5304   20373929.5744
 96  4  3  1 29  0.0000000  0  8G 6G24G 4G16G20G17G 9G 5
  -9735539.81744  -7586129.82244  22444874.8604   22444874.6214
   6942692.19244   5409890.80944  21792437.6484   21792438.0684
  13586797.65744  10587113.78744  24719629.1434   24719627.5974
 -11265915.78444  -8778628.79144  21449597.7744   21449598.8464
  -9466674.58644  -7376627.96144  20631898.4244   20631898.8604
  -1065672.50944   -830391.71644  25171842.2044   25171839.6304
  13053293.06544  10171385.47644  25005810.2574
  -1323492.67844  -1031293.71044  20379421.0284   20379421.2014
 96  4  3  1 29 30.0000000  0  8G 6G24G16G 4G20G17G 9G 5
  -9799082.27644  -7635643.40344  22432782.7804   22432782.8694
   7010901.54744   5463040.96244  21805417.7174   21805418.1714
 -11315934.38444  -8817604.29444  21440079.3314   21440080.4794
  13682424.51144  10661628.16044  24737826.6264   24737826.3794
  -9499615.31144  -7402296.05244  20625630.0754   20625630.4734
  -1161850.80344   -905335.68944  25153540.5754   25153538.3254
  13141118.93144  10239821.07944  25022520.5174   25022525.7534
  -1294069.73644  -1008366.74844  20385019.9594   20385020.0214
 96  4  3  1 30  0.0000000  0  8G 6G24G16G 4G20G17G 9G 5
  -9862542.04344  -7685092.54844  22420706.3894   22420706.8264
   7079305.69244   5516342.89044  21818434.1394   21818434.9344
 -11365409.22544  -8856156.08644  21430664.4034   21430665.5014
  13778033.15744  10736128.41344  24756019.6594   24756019.1474
  -9532017.80844  -7427544.75044  20619464.1094   20619464.2454
  -1257864.06344   -980151.07744  25135268.5154   25135266.4174
  13228821.62444  10308160.75244  25039212.1774   25039213.4404
  -1264095.56544   -985010.26344  20390724.0224   20390724.0414
 96  4  3  1 30 30.0000000  0  8G 6G24G16G 4G20G17G 9G 5
  -9925940.44444  -7734493.88344  22408642.6004   22408642.2724
   7147889.36644   5569784.70444  21831485.2164   21831485.8034
 -11414343.02944  -8894286.29144  21421353.0164   21421354.0274
  13873640.43744  10810627.60044  24774212.6694   24774215.8594
  -9563883.35144  -7452375.03844  20613400.1324   20613400.6014
  -1353737.29644  -1054857.31344  25117024.1194   25117022.3334
  13316415.04944  10376415.17944  25055879.5574   25055885.4674
  -1233583.85544   -961234.92144  20396530.1304   20396530.0844
 96  4  3  1 31  0.0000000  0  8G 6G24G16G 4G20G17G 9G 5
  -9989286.55044  -7783854.45544  22396587.9944   22396587.7294
   7216658.48844   5623371.03044  21844571.6644   21844572.1414
 -11462747.45944  -8932003.99744  21412141.7584   21412143.0164
  13969249.34544  10885128.07444  24792407.9584   24792404.0024
  -9595215.87444  -7476789.98644  20607437.9634   20607438.3374
  -1449468.38344                  25098802.0184
  13403904.86244  10444588.94844  25072529.8394   25072535.7064
  -1202540.60844   -937045.39344  20402437.4904   20402437.5004
 96  4  3  1 31 30.0000000  0  8G 6G24G16G 4G20G17G 9G 5
 -10052574.51544  -7833169.72744  22384544.9834   22384544.8734
   7285607.78944   5677097.76044  21857692.2634   21857692.4374
 -11510621.57244  -8969308.46744  21403031.6784   21403032.6974
  14064859.04744  10959629.19144  24810603.4324   24810598.7114
  -9625998.53244  -7500776.47144  20601580.0734   20601580.3944
  -1545062.62444                  25080604.7504
  13491282.36244  10512675.19244  25089157.0644   25089159.8344
  -1170956.67344   -912434.55044  20408447.5664   20408447.6524
 96  4  3  1 32  0.0000000  0  8G 6G24G16G 4G20G17G 9G 5
 -10115843.22744  -7882469.99444  22372505.2054   22372505.6494
   7354695.17944   5730932.09544  21870839.3454   21870839.8604
 -11558014.44244  -9006237.94644  21394013.1464   21394014.4714
  14160428.64144  11034098.98544  24828788.5484   24828789.5314
  -9656251.66044  -7524350.33444  20595823.1374   20595823.3634
  -1640571.25444                  25062432.9224
  13578490.12544  10580629.18544  25105751.6734   25105755.7684
  -1138866.54744   -887429.27644  20414554.3794   20414554.2034
 96  4  3  1 32 30.0000000  0  8G 6G24G16G 4G20G17G 9G 5
 -10179091.54244  -7931754.35944  22360468.9734   22360469.3214
   7423932.47644   5784883.23244  21884014.6694   21884015.0154
 -11604942.36944  -9042805.13244  21385082.9624   21385084.2294
  14255929.65444  11108515.37444  24846961.5284   24846958.4084
  -9685985.22544  -7547519.34344  20590164.9424   20590165.2054
  -1735996.22044  -1352720.66344  25044277.3104
  13665512.88244  10648438.98144  25122312.7424   25122318.8064
  -1106261.20944   -862022.53644  20420758.9994   20420759.0014
 96  4  3  1 33  0.0000000  0  8G 6G24G16G 4G20G17G 9G 5
 -10242289.58144  -7980999.56344  22348443.0634   22348443.0204
   7493329.78144   5838959.05144  21897220.9384   21897221.2934
 -11651396.20444  -9079002.90044  21376243.2464   21376244.2224
  14351355.27844  11182873.02944  24865120.1284   24865120.3884
  -9715182.58544  -7570270.52944  20584608.7864   20584609.1074
  -1831305.32244  -1426987.30844  25026141.2714   25026143.6984
  13752341.67944  10716097.68644  25138833.9704   25138837.6434
  -1073126.20244   -836203.06544  20427064.1484   20427064.3474
 96  4  3  1 33 30.0000000  0  8G 6G24G16G 4G20G17G 9G 5
 -10305426.26144  -8030196.94844  22336428.2124   22336428.4474
   7562881.36844   5893155.08544  21910456.0734   21910455.9604
 -11697367.99744  -9114825.05244  21367494.5904   21367495.8134
  14446700.47844  11257167.99244  24883264.3204   24883264.6544
  -9743831.58844  -7592594.42444  20579157.2264   20579157.5454
  -1926490.81644  -1501157.68344  25008029.6554
  13838984.24444  10783611.24444  25155322.2954   25155325.4334
  -1039462.28844   -809971.45844  20433470.1304   20433470.3254
 96  4  3  1 34  0.0000000  0  8G 6G24G16G 4G20G17G 9G 5
 -10368497.42544  -8079343.28344  22324426.6104   22324426.7144
   7632595.92544   5947478.11744  21923721.7694   21923722.2214
 -11742851.79344  -9150266.94544  21358839.4294   21358840.5304
  14541952.64244  11331390.49944  24901390.1904
  -9771941.66144  -7614498.37844  20573807.9584   20573808.2864
  -2021536.32944  -1575218.94644  24989944.9784   24989947.1414
  13925441.96244  10850980.74744  25171775.4544
  -1005266.16444   -783325.14244  20439977.3764   20439977.3974
 96  4  3  1 34 30.0000000  0  8G 6G24G16G 4G20G17G 9G 5
 -10431477.81744  -8128418.88044  22312441.9714   22312441.8594
   7702477.92744   6001931.62744  21937020.0524   21937020.7184
 -11787812.65744  -9185301.35144  21350283.9014   21350284.4844
  14637126.28244  11405551.78444  24919500.7364
  -9799496.62644  -7635969.77644  20568564.4664   20568564.8704
  -2116416.29244  -1649151.26944  24971888.8264   24971888.8504
  14011742.00444                  25188196.7624
   -970526.50444   -756255.28644  20446588.3124   20446588.4934
 96  4  3  1 35  0.0000000  0  8G 6G24G16G 4G20G17G 9G 5
 -10494361.15944  -8177418.85844  22300475.5384   22300475.7634
   7772520.35244   6056510.13644  21950348.7604   21950348.9044
 -11832224.80844  -9219908.19144  21341832.2844   21341833.0014
  14732251.57144  11479675.35144  24937601.9934
  -9826477.68344  -7656993.97844  20563430.2084   20563430.4534
  -2211117.92744  -1722944.56144  24953866.8434   24953868.2044
  14097885.73644                  25204589.0294
   -935236.72644   -728756.76644  20453303.7984   20453303.6904
 96  4  3  1 35 30.0000000  0  8G 6G24G16G 4G20G17G 9G 5
 -10557163.95144  -8226356.06644  22288524.2454   22288524.7004
   7842713.05944   6111205.75244  21963706.0884   21963706.3534
 -11876092.67044  -9254090.90944  21333484.7624   21333485.5684
  14827318.12544                  24955690.1894
  -9852906.88244  -7677588.15644  20558400.6824   20558401.1584
  -2305666.92844  -1796618.94244  24935872.5144   24935875.8274
  14183854.65944  11052340.96044  25220949.1704   25220953.1354
   -899401.54444   -700833.26044  20460122.8814   20460123.0714
 96  4  3  1 36  0.0000000  0  8G 6G24G16G 4G20G17G 9G 5
 -10619919.95544  -8275256.82844  22276582.3484   22276582.3464
   7913037.25644   6166003.82544  21977088.5084   21977088.4594
 -11919437.48444  -9287866.06144  21325236.4744   21325237.3024
  14922309.28444                  24973767.2094
  -9878804.64544  -7697768.23544  20553472.4174   20553472.8114
  -2400096.63544                  24917899.9934
  14269604.82544  11119159.13244  25237267.8924
   -863049.09744   -672506.69144  20467040.7114   20467040.4504
 96  4  3  1 36 30.0000000  0  7G 6G24G16G20G17G 9G 5
 -10682626.47344  -8324119.02944  22264649.4804   22264649.5924
   7983496.55144   6220907.16844  21990496.3304   21990496.8864
 -11962251.74844  -9321227.80044  21317089.0734   21317089.9274
  -9904146.92744  -7717515.46444  20548650.3964   20548650.6674
  -2494408.86144                  24899951.6994
  14355156.98744  11185823.06944  25253546.8834   25253549.0014
   -826168.07744   -643768.24444  20474058.6894   20474058.6824
 96  4  3  1 37  0.0000000  0  7G 6G24G16G20G17G 9G 5
 -10745266.86144  -8372929.70344  22252729.3674   22252729.4584
   8054123.11944   6275940.85244  22003936.1644   22003936.3264
 -12004529.17044  -9354171.21644  21309043.9014   21309045.1594
  -9928917.35044  -7736817.09244  20543936.5874   20543936.8904
  -2588587.24644                  24882030.5584
  14440530.24644  11252347.59344  25269793.3084
   -788726.52244   -614593.01744  20481183.8354   20481183.9344
 96  4  3  1 37 30.0000000  0  7G 6G24G16G20G17G 9G 5
 -10807873.57944  -8421714.13044  22240815.8974   22240816.3034
   8124901.04444   6331092.47944  22017404.3664   22017404.6664
 -12046300.73944  -9386720.46344  21301094.9954   21301095.8224
  -9953140.09944  -7755691.96244  20539327.1514   20539327.5594
  -2682662.44344  -2090380.95444  24864131.8704   24864135.5384
  14525724.29044  11318732.42744  25286005.5154   25286010.6344
   -750761.92944   -585010.22944  20488408.3844   20488408.3984
 96  4  3  1 38  0.0000000  0  7G 6G24G16G20G17G 9G 5
 -10870466.97044  -8470488.17744  22228905.0654   22228904.4774
   8195824.15344   6386357.23844  22030900.2564   22030900.6284
 -12087579.42544  -9418885.64544  21293239.9694   21293240.5984
  -9976814.53944  -7774139.57744  20534822.0944   20534822.3334
  -2776637.06244  -2163607.83744  24846250.2104   24846249.6514
  14610746.72044  11384983.55644  25302184.3964   25302189.5844
   -712295.03244   -555036.03744  20495728.1304   20495728.3214
 96  4  3  1 38 30.0000000  0  7G 6G24G16G20G17G 9G 5
 -10932920.46544  -8519153.22044  22217020.0534   22217020.0314
   8267005.75244   6441823.41644  22044445.9844   22044446.3714
 -12128244.01044  -9450572.30544  21285501.7944   21285502.7184
  -9999831.26644  -7792074.69044  20530441.8874   20530442.4534
  -2870390.80344  -2236662.60344  24828409.3654   24828410.9464
  14695728.47144  11451203.02844  25318356.6664
   -673196.39344   -524569.57844  20503168.3734   20503168.5964
 96  4  3  1 39  0.0000000  0  7G 6G24G16G20G17G 9G 5
 -10995302.76844  -8567762.79244  22205148.7154   22205148.4184
   8338364.31544   6497427.48744  22058025.2384   22058024.8024
 -12168362.46844  -9481833.41144  21277867.5674   21277867.9494
 -10022264.37644  -7809555.03444  20526173.1514   20526173.1484
  -2963984.21144  -2309592.39844  24810598.6424   24810597.6524
  14780577.82844                  25334502.5704
   -633555.63244   -493680.68044  20510711.6734   20510711.8414
 96  4  3  1 39 30.0000000  0  8G 6G24G16G25G20G17G 9G 5
 -11057640.23144  -8616337.42344  22193286.5354   22193287.0784
   8409854.57444   6553134.18944  22071629.7234   22071629.4214
 -12207948.99244  -9512680.02144  21270334.3284   21270334.9364
        -0.44554                  25119291.4494
 -10044140.45644  -7826601.33144  20522010.5204   20522010.9744
  -3057433.48644  -2382409.92244  24792817.0244   24792816.0424
  14865256.23544                  25350615.5764
   -593411.08044   -462399.22744  20518351.0924   20518351.0234
 96  4  3  1 40  0.0000000  0  8G 6G24G16G25G20G17G 9G 5
 -11119921.09744  -8664867.94044  22181435.0354   22181434.7114
   8481462.27444   6608932.40144  22085255.9484   22085256.1004
 -12247002.77344  -9543111.51344  21262902.5624   21262903.2584
    -25894.30944                  25114366.9944
 -10065466.45344  -7843218.99344  20517951.8674   20517952.0974
  -3150741.81344  -2455117.60544  24775061.1674
  14949727.82744                  25366691.9314
   -552745.67444   -430711.91444  20526089.6124   20526089.7124
 96  4  3  1 40 30.0000000  0  8G 6G24G16G25G20G17G 9G 5
 -11182108.62444  -8713325.73544  22169601.3124   22169600.9594
   8553193.72644   6664827.02844  22098906.0314   22098906.3844
 -12285498.68444  -9573108.30144  21255577.2514   21255577.9824
    -51316.18244                  25109525.1324
 -10086229.63144  -7859398.09444  20514001.0264   20514001.3904
  -3243893.37444  -2527703.11544  24757334.6734   24757336.2064
  15033985.23544                  25382724.1314
   -511548.50144   -398610.24144  20533929.0814   20533928.9454
 96  4  3  1 41  0.0000000  0  8G 6G24G16G25G20G17G 9G 5
 -11244166.94944  -8761682.85144  22157792.1754   22157792.0564
   8625072.66944   6720836.58744  22112584.1914   22112584.3934
 -12323405.40844  -9602645.98244  21248363.7624   21248364.3744
    -76242.40144                  25104785.5184
 -10106402.62844  -7875117.31344  20510162.0154   20510162.4664
  -3336854.72244  -2600140.38944  24739643.5374   24739646.6564
  15118035.14244                  25398718.2274
   -469812.12344   -366088.40544  20541871.3014   20541871.1754
 96  4  3  1 41 30.0000000  0  8G 6G24G16G25G20G17G 9G 5
 -11306170.12144  -8809996.98544  22145993.4754   22145993.6944
   8697026.11444   6776904.20544  22126276.2804   22126276.9094
 -12360809.61444  -9631792.09244  21241245.8054   21241246.9044
   -100763.84844                  25100119.5944
 -10126074.91544  -7890446.36944  20506418.7324   20506419.0794
  -3429725.86144  -2672507.38044  24721969.6694   24721973.2274
  15201802.77444                  25414659.0014
   -427608.98544   -333202.86044  20549902.0854   20549902.4934
 96  4  3  1 42  0.0000000  0  8G 6G24G16G25G20G17G 9G 5
 -11368065.78544  -8858227.34844  22134214.4754   22134214.6374
   8769110.16744   6833073.59244  22139993.5734   22139994.0874
 -12397674.50344  -9660517.95644  21234230.5314   21234231.7254
   -124841.60144                  25095539.0534
 -10145196.33244  -7905346.17244  20502779.9884   20502780.4094
  -3522465.09144  -2744771.59944  24704319.9804   24704327.0134
  15285333.19044                  25430555.1624
   -384903.99544   -299926.25744  20558028.7184   20558028.9034
 96  4  3  1 42 30.0000000  0  8G 6G24G16G25G20G17G 9G 5
 -11429849.09244  -8906370.16344  22122457.7504   22122457.9614
   8841334.47344   6889352.26444  22153737.4954   22153737.9014
 -12433995.17144  -9688819.74944  21227318.9354   21227319.8294
   -148458.10744                  25091044.8424
 -10163751.83244  -7919805.00644  20499248.7064   20499249.1904
  -3615054.76844  -2816919.22044  24686700.6914   24686705.8904
  15368656.87844                  25446410.6034
   -341700.22944   -266260.99544  20566250.1954   20566250.2244
 96  4  3  1 43  0.0000000  0  8G 6G24G16G25G20G17G 9G 5
 -11491532.30744  -8954434.98344  22110719.5174   22110719.6574
   8913708.53644   6945747.63944  22167509.6844   22167510.0784
 -12469772.87544  -9716698.45644  21220510.8344   21220511.7694
   -171589.13644                  25086644.0544
 -10181722.37044  -7933808.02444  20495829.1294   20495829.4514
  -3707488.84944  -2888945.69644  24669112.2184   24669117.1174
  15451802.40844                  25462232.8544
   -297978.40644   -232192.05744  20574570.1174   20574570.2134
 96  4  3  1 43 30.0000000  0  7G 6G24G25G16G20G17G 5
 -11553164.35244  -9002459.92944  22098991.5214   22098991.5454
   8986211.95844   7002243.80544  22181306.9064   22181307.2914
   -194250.64944                  25082333.1084
 -12505034.78244  -9744175.24444  21213800.6564   21213801.2634
 -10199122.03044  -7947366.20344  20492518.4364   20492518.8314
  -3799788.29144  -2960867.16244  24651547.3224   24651552.6414
   -253748.30844   -197727.06644  20582986.8504   20582987.0154
 96  4  3  1 44  0.0000000  0  7G 6G24G16G25G20G17G 5
 -11614784.93344  -9050475.94044  22087265.4664   22087265.0734
   9058831.07744   7058830.12944  22195125.5084   22195126.2534
 -12539786.20744  -9771254.25344  21207187.8174   21207188.5534
   -216432.35844                  25078112.9944
 -10215964.83444  -7960490.46544  20489313.2294   20489313.6614
  -3891950.25544  -3032681.56744  24634010.1614   24634014.3594
   -209025.59644   -162878.22544  20591497.4104   20591497.5684
 96  4  3  1 44 30.0000000  0  7G 6G24G16G20G17G 4G 5
 -11676375.92344  -9098468.90644  22075545.2854   22075544.8364
   9131598.30444   7115531.85244  22208972.3304   22208972.7714
 -12573992.61244  -9797908.56844  21200678.1354   21200679.0744
 -10232218.27644  -7973155.48644  20486220.4334   20486220.5844
  -3983946.93644  -3104367.16744  24616502.9224   24616506.8474
        -0.56054                  25279523.8324
   -163762.81244   -127608.54444  20600110.5724   20600110.7344
 96  4  3  1 45  0.0000000  0  7G 6G24G16G20G17G 4G 5
 -11737931.51244  -9146434.27844  22063831.3164   22063831.8254
   9204519.72044   7172353.73944  22222848.3304   22222849.4994
 -12607635.05144  -9824123.43444  21194276.1894   21194276.8314
 -10247880.22944  -7985359.60944  20483239.9804   20483240.3104
  -4075771.86844  -3175918.93444  24599030.4524   24599032.5474
     93828.89744                  25297377.7414
   -117951.24144    -91911.23744  20608828.3604   20608828.5224
 96  4  3  1 45 30.0000000  0  7G 6G24G16G20G17G 4G 5
 -11799464.43344  -9194381.98444  22052122.1734   22052121.7904
   9277561.55844   7229269.45344  22236748.1994   22236748.6924
 -12640732.69544  -9849913.78144  21187977.9804   21187978.5334
 -10262998.39244  -7997139.99544  20480363.2234   20480363.3614
  -4167452.80544  -3247358.49244  24581584.5744   24581586.5614
    187554.87444                  25315212.8984
    -71627.59644    -55814.90644  20617643.4344   20617643.2264
 96  4  3  1 46  0.0000000  0  6G 6G24G16G17G20G 5
 -11860909.89544  -9242261.54044  22040429.7054   22040429.7864
   9350745.36544   7286295.79144  22250674.9034   22250675.3204
 -12673255.65844  -9875256.32644  21181788.8674   21181789.7334
  -4258957.97544  -3318661.14244  24564173.4164   24564172.4994
 -10277540.17344  -8008471.25644  20477595.8784   20477596.1904
    -24763.26844    -19297.26444  20626561.3034   20626561.3944
 96  4  3  1 46 30.0000000  0  6G 6G24G16G17G20G 5
 -11922274.81144  -9290078.33844  22028752.0384   22028752.0844
   9424017.97944   7343391.32944  22264618.0014   22264618.6414
 -12705241.39844  -9900180.25844  21175702.3104   21175703.4324
  -4350322.75444  -3389854.40844  24546786.8624   24546785.5914
 -10291532.19944  -8019374.14044  20474933.2024   20474933.6334
     22607.85144     17615.27744  20635575.9684   20635575.9064
 96  4  3  1 47  0.0000000  0  6G 6G24G16G20G17G 5
 -11983535.44344  -9337813.87744  22017094.2964   22017094.4784
   9497387.58644   7400562.45344  22278580.1684   22278580.1934
 -12736669.82944  -9924669.92144  21169721.8494   21169722.5684
 -10304956.08044  -8029834.30844  20472378.6974   20472379.1044
  -4441523.28344  -3460919.62144  24529431.4284   24529431.5394
     70485.83944     54922.78344  20644686.8034   20644686.8454
 96  4  3  1 47 30.0000000  0  6G 6G24G16G20G17G 5
 -12044691.77644  -9385468.14444  22005456.6104   22005456.7284
   9570850.26344   7457806.10044  22292559.3514   22292559.9184
 -12767547.83244  -9948730.67944  21163845.6944   21163846.5904
 -10317803.92144  -8039845.61944  20469933.8814   20469934.1274
  -4532563.99944  -3531860.32744  24512105.8424   24512108.1324
    118868.82344     92623.79644  20653893.7394   20653894.1224
 96  4  3  1 48  0.0000000  0  7G 6G24G16G25G20G17G 5
 -12105750.05844  -9433046.00644  21993837.9594   21993837.6434
   9644414.82644   7515129.13044  22306558.1304   22306558.8444
 -12797866.31044  -9972355.44044  21158076.4384   21158077.2184
        -1.22554        -1.39754  25047768.4574
 -10330055.07844  -8049391.97844  20467602.6414   20467602.9944
  -4623439.72944  -3602672.44844  24494812.5894   24494815.0334
    167768.54344    130727.45944  20663199.0244   20663199.3164
 96  4  3  1 48 30.0000000  0  7G 6G24G16G25G20G17G 5
 -12166724.26444  -9480558.35444  21982235.2224   21982234.8624
   9718086.07944   7572535.29944  22320577.4314   22320577.6264
 -12827608.77044  -9995531.35944  21152416.9134   21152417.4954
    -17785.38544                  25044386.6134
 -10341699.53544  -8058465.58344  20465386.6294   20465387.0024
  -4714157.95544  -3673361.88244  24477548.8084   24477550.6884
    217183.33644    169232.47244  20672602.2854   20672602.6004
 96  4  3  1 49  0.0000000  0  7G 6G24G16G25G20G17G 5
 -12227615.77744  -9528006.27244  21970647.9104   21970647.4604
   9791882.13744   7630038.71744  22334620.4674   22334621.4844
 -12856759.16244 -10018245.92644  21146869.5814   21146870.2664
    -35081.70044    -27336.79544  25041096.6304
 -10352734.29244  -8067064.10244  20463287.0704   20463287.4834
  -4804716.86944  -3743927.18744  24460315.5954   24460318.2254
    267113.05144    208138.71744  20682103.8184   20682104.0654
 96  4  3  1 49 30.0000000  0  7G 6G24G25G16G20G17G 5
 -12288421.18344  -9575387.09244  21959076.9204   21959077.0624
   9865797.78144   7687635.32044  22348686.0024   22348686.4454
    -51890.99044    -40434.98944  25037899.0134   25037894.5174
 -12885325.85544 -10040505.66444  21141433.3654   21141434.3734
 -10363163.40844  -8075190.68944  20461302.2094   20461302.6324
  -4895125.92244  -3814375.67244  24443110.8724   24443114.0594
    317562.86944    247450.24044  20691704.0104   20691704.2624
 96  4  3  1 50  0.0000000  0  7G 6G24G25G16G20G17G 5
 -12349145.80344  -9622704.96544  21947520.7644   21947520.7434
   9939820.00244   7745314.96944  22362771.9964   22362772.3574
    -68215.75844    -53155.59344  25034790.5254   25034786.5794
 -12913316.70744 -10062316.69744  21136107.0094   21136107.7924
 -10372999.95044  -8082855.52944  20459430.4584   20459430.7174
  -4985390.35844  -3884711.47244  24425934.2794   24425937.4384
    368522.68844    287159.17044  20701401.4644   20701401.5154
 96  4  3  1 50 30.0000000  0  7G 6G24G25G16G20G17G 5
 -12409734.35644  -9669916.81244  21935991.4174   21935990.9684
  10013994.22744   7803113.05544  22376886.9894   22376887.0774
    -84007.18944    -65460.59544  25031785.5224   25031781.9074
 -12940687.83444 -10083644.82444  21130898.4884   21130899.3294
 -10382208.87944  -8090031.31844  20457678.0214   20457678.3194
  -5075446.65244  -3954885.12644  24408797.6684   24408801.5854
    420031.11144    327295.59344  20711203.1874   20711203.2184
 96  4  3  1 51  0.0000000  0  7G 6G24G25G16G20G17G 5
 -12470219.04544  -9717047.72944  21924481.4974   21924481.3564
  10088294.36844   7861009.26744  22391026.0274   22391025.8894
    -99298.34444    -77375.72044  25028873.0224   25028873.1114
 -12967477.92844 -10104520.20344  21125800.6324   21125801.2624
 -10390838.04944  -8096755.35144  20456035.8104   20456036.2924
  -5165317.02944  -4024913.87144  24391695.6064   24391700.2054
    472058.70444    367836.56244  20721103.4204   20721103.6754
 96  4  3  1 51 30.0000000  0  7G 6G24G25G16G20G17G 5
 -12530613.89944  -9764108.62844  21912988.7184   21912988.2854
  10162702.51844   7918989.64244  22405185.5194   22405185.9514
   -114098.98844    -88908.78844  25026055.4224   25026053.5584
 -12993706.21444 -10124957.80044  21120809.2414   21120809.8094
 -10398898.63344  -8103036.33144  20454502.1344   20454502.5094
  -5255015.74344  -4094808.81744  24374626.1804   24374629.7614
    524602.93744    408780.10844  20731102.4014   20731102.7464
 96  4  3  1 52  0.0000000  0  7G 6G24G25G16G20G17G 5
 -12590932.34344  -9811109.99144  21901510.5914   21901510.1604
  10237218.31944   7977053.90244  22419365.4194   22419366.0754
   -128420.09144   -100068.06044  25023330.1404   25023327.9954
 -13019371.50744 -10144956.70544  21115925.3954   21115926.1294
 -10406396.63844  -8108878.93444  20453075.4654   20453075.8874
  -5344540.23644  -4164568.02944  24357590.3844   24357595.0014
    577651.14944    450116.36144  20741197.0654   20741197.3444
 96  4  3  1 52 30.0000000  0  7G 6G24G25G16G20G17G 5
 -12651191.46344  -9858065.12944  21890043.5344   21890043.3714
  10311833.18444   8035195.35244  22433563.9444   22433564.3574
   -142294.52044   -110879.27744  25020691.6074   25020690.3124
 -13044475.23644 -10164518.03144  21111148.1194   21111148.7474
 -10413333.16944  -8114284.02744  20451755.5754   20451755.9114
  -5433904.77344  -4234202.65144  24340584.6484   24340587.4904
    631176.68144    491824.54744  20751382.6514   20751383.1034
 96  4  3  1 53  0.0000000  0  7G 6G24G25G16G20G17G 5
 -12711373.46044  -9904960.17344  21878591.4864   21878591.5304
  10386549.94044   8093416.20644  22447782.0814   22447781.7164
   -155717.86944   -121339.03644  25018139.1704   25018136.3764
 -13069001.05044 -10183629.03144  21106481.1704   21106481.7734
 -10419685.97744  -8119234.26944  20450546.4824   20450546.9794
  -5523117.50144  -4303718.94644  24323608.9004   24323613.2154
    685187.47744    533910.86044  20761660.6094   20761660.8764
 96  4  3  1 53 30.0000000  0  7G 6G24G25G16G20G17G 5
 -12771472.15944  -9951790.31444  21867155.2004   21867154.9044
  10461350.23444   8151702.14844  22462016.3814   22462016.4684
   -168686.53444   -131444.48344  25015672.8304   25015670.1234
 -13092948.62144 -10202289.45944  21101923.8054   21101924.6254
 -10425451.02144  -8123726.51444  20449449.2784   20449449.4504
  -5612177.14544  -4373115.93644  24306661.8344   24306664.3484
    739671.22344    576365.70944  20772028.5424   20772028.7104
 96  4  3  1 54  0.0000000  0  7G 6G24G25G16G20G17G 5
 -12831487.19744  -9998555.25344  21855734.8924   21855734.6774
  10536221.28644   8210043.21944  22476263.8354   22476264.8184
   -181202.40844   -141197.16644  25013293.1834   25013290.9134
 -13116321.97044 -10220502.44044  21097476.3504   21097476.6974
 -10430628.06844  -8127760.57844  20448464.1634   20448464.6234
  -5701077.55644  -4442388.86944  24289744.6214   24289746.6074
    794607.93144    619173.51244  20782482.6564   20782482.7784
 96  4  3  1 54 30.0000000  0  7G 6G24G25G16G20G17G 5
 -12891401.49944 -10045241.70544  21844333.7064   21844333.8534
  10611148.07744   8268427.72944  22490521.7114   22490522.2154
   -193245.01244   -150581.00844  25011001.1254   25010995.4464
 -13139119.28044 -10238266.55744  21093137.8884   21093138.5884
 -10435217.05344  -8131336.41144  20447591.1294   20447591.4344
  -5789821.08444  -4511539.61844  24272856.9484   24272857.4714
    850008.06444    662342.43344  20793024.8854   20793025.1894
 96  4  3  1 55  0.0000000  0  7G 6G24G25G16G20G17G 5
 -12951189.72244 -10091829.91444  21832955.9434   21832955.5694
  10686149.21344   8326870.16644  22504793.9524   22504793.9264
   -204779.00444   -159568.51344  25008805.6814   25008803.6454
 -13161337.95744 -10255579.78944  21088909.7694   21088910.3494
 -10439209.96444  -8134447.77644  20446831.0404   20446831.6694
  -5878377.62444  -4580544.61244  24256005.5624   24256005.8624
    905908.16044    705900.93244  20803662.7134   20803662.7904
 96  4  3  1 55 30.0000000  0  7G 6G24G25G16G20G17G 5
 -13010865.58344 -10138330.56744  21821599.8294   21821599.3734
  10761233.79144   8385377.63444  22519081.9244   22519081.7634
   -215800.79744   -168156.91944  25006704.7294   25006704.0114
 -13182993.51344 -10272454.23044  21084789.2074   21084789.7204
 -10442600.42044  -8137089.69544  20446185.9534   20446186.3614
  -5966726.83444  -4649388.08744  24239192.6624   24239194.5964
    962323.92244    749861.25244  20814398.0114   20814397.9134
 96  4  3  1 56  0.0000000  0  6G 6G24G25G17G20G 5
 -13070421.93644 -10184738.10244  21810266.1034   21810265.7134
  10836426.51444   8443969.35444  22533390.4724   22533391.0264
   -226289.57644   -176329.98644  25004708.8214   25004704.3114
  -6054850.36844  -4718055.68444  24222423.6024   24222425.2254
 -10445372.20344  -8139249.52744  20445658.3904   20445658.8204
   1019286.20744    794247.43544  20825237.8124   20825238.1404
 96  4  3  1 56 30.0000000  0  6G 6G24G25G17G20G 5
 -13129884.91544 -10231072.87144  21798951.1884   21798950.9904
  10911711.39644   8502632.89344  22547717.3234   22547718.0414
   -236272.44444   -184108.80044  25002808.9934
  -6142777.23544  -4786570.01144  24205688.5914   24205693.8614
 -10447551.92344  -8140948.01444  20445243.6864   20445244.0954
   1076776.53044    839045.07044  20836177.5224   20836177.9874
 96  4  3  1 57  0.0000000  0  7G 6G24G25G16G17G20G 5
 -13189273.14144 -10277349.39344  21787649.9924   21787649.6924
  10987100.72644   8561377.82944  22562063.1994   22562063.3564
   -245761.04544   -191502.56444  25001003.6864
        -0.03854         1.06654  21073093.4984   21073094.0594
  -6230508.56944  -4854932.03244  24188995.2754   24188998.8894
 -10449129.27144  -8142177.12344  20444943.6004   20444944.0394
   1134784.18144    884245.81744  20847215.8134   20847216.3794
 96  4  3  1 57 30.0000000  0  7G 6G24G25G16G17G20G 5
 -13248628.70844 -10323600.46444  21776355.5364   21776354.7044
  11062550.54744   8620169.89444  22576420.7264   22576421.1864
   -254787.23044   -198535.90844  24999285.4294
    -19331.40444    -15062.31544  21069415.0354   21069415.4274
  -6318102.84044  -4923187.24844  24172326.9254   24172331.2444
 -10450140.17544  -8142964.84944  20444751.2784   20444751.4654
   1193246.34844    929800.73744  20858341.1894   20858341.5434
 96  4  3  1 58  0.0000000  0  7G 6G24G25G16G20G17G 5
 -13307894.18044 -10369781.33044  21765077.3284   21765076.8794
  11138092.40744   8679033.67844  22590795.7764   22590795.7334
   -263319.50544   -205184.43544  24997658.6104   24997657.5294
    -38033.55544    -29635.40144  21065855.9034   21065856.5314
 -10450549.65244  -8143283.92644  20444673.2924   20444673.7404
  -6405535.95344  -4991316.88544  24155688.8494   24155691.4184
   1252183.36244    975725.67144  20869556.7404   20869556.9404
 96  4  3  1 58 30.0000000  0  7G 6G25G24G16G17G20G 5
 -13367081.66144 -10415901.41644  21753814.0734   21753814.0884
   -271385.45244                  24996123.0984
  11213706.73244   8737953.92944  22605185.0414   22605185.3144
    -56145.43044    -43748.52944  21062409.8144   21062410.3244
  -6492839.02544  -5059345.17044  24139075.0984   24139079.1524
 -10450371.80444  -8143145.35244  20444706.7804   20444707.3274
   1311564.12644   1021996.38944  20880856.3574   20880856.4094
 96  4  3  1 59  0.0000000  0  6G 6G24G17G25G20G 5
 -13426174.45844 -10461947.72444  21742569.0114   21742568.6564
  11289397.15844   8796933.48044  22619588.2364   22619588.5644
  -6580002.99044  -5127265.07644  24122488.5434   24122490.4724
   -278975.54544                  24994679.0454
 -10449608.32444  -8142550.44144  20444852.7424   20444853.0054
   1371389.02744   1068613.18644  20892240.7334   20892240.8404
 96  4  3  1 59 30.0000000  0  6G 6G25G24G17G20G 5
 -13485146.89544 -10507900.25944  21731346.9394   21731346.7134
   -286085.66744                  24993325.9364
  11365167.58544   8855975.36844  22634006.3294   22634007.4504
  -6667006.26244  -5195059.76244  24105932.9724   24105935.9494
 -10448260.65844  -8141500.31944  20445109.1234   20445109.3734
   1431676.16844   1115590.16144  20903713.0314   20903713.3584
 96  4  3  2  0  0.0000000  0  7G 6G25G24G16G20G17G 5
 -13543946.40944 -10553718.04344  21720157.5614   21720157.2464
   -292691.48544                  24992071.2254
  11441049.53744   8915104.15644  22648446.7054   22648447.7894
        -0.34554         0.21754  21052733.0934   21052734.0524
 -10446288.84644  -8139963.85144  20445484.1394   20445484.2564
  -6753791.65344  -5262684.65944  24089418.9654   24089423.1134
   1492480.30344   1162969.99544  20915283.4374   20915283.8064
 96  4  3  2  0 30.0000000  0  7G 6G25G24G16G20G17G 5
 -13602586.23944 -10599411.39544  21708998.9434   21708998.6294
   -298803.58544                  24990907.8944
  11517035.30944   8974313.84744  22662906.9434   22662907.3444
    -15780.30744    -12295.83544  21049730.3404   21049730.8594
 -10443717.67144  -8137960.34444  20445973.3414   20445973.9064
  -6840359.76344  -5330140.22544  24072944.4124   24072946.1724
   1553780.08044   1210736.03744  20926948.1514   20926948.5224
 96  4  3  2  1  0.0000000  0  7G 6G25G24G16G20G17G 5
 -13661079.62144 -10644990.63944  21697868.3794   21697868.0224
   -304444.65244   -237230.15344  24989837.7274
  11593104.69244   9033588.68944  22677382.2304   22677382.1734
    -30978.65544    -24138.68744  21046837.9144   21046838.5424
 -10440567.88044  -8135505.96644  20446572.4724   20446572.9894
  -6926713.75144  -5397428.99244  24056511.1914   24056514.1544
   1615551.80544   1258869.83544  20938703.4584   20938703.9174
 96  4  3  2  1 30.0000000  0  7G 6G25G24G16G17G20G 5
 -13719458.96144 -10690481.02144  21686759.3124   21686758.8754
   -309642.18744   -241280.10144  24988845.8294
  11669235.16844   9092911.13344  22691869.1974   22691869.4444
    -45608.80944    -35538.78644  21044054.0924   21044054.6984
  -7012877.80344  -5464569.72844  24040115.7194   24040117.1944
 -10436848.76844  -8132607.96344  20447280.5194   20447280.8964
   1677772.96144   1307353.83444  20950543.5574   20950543.8934
 96  4  3  2  2  0.0000000  0  7G 6G25G24G16G17G20G 5
 -13777729.66144 -10735886.75044  21675670.1484   21675670.1954
   -314386.84844   -244977.26344  24987944.1754
  11745431.12644   9152284.61144  22706368.1914   22706369.6054
    -59654.54844    -46483.49944  21041381.3164   21041381.6234
  -7098855.97344  -5531565.59544  24023755.8714   24023756.1704
 -10432556.16144  -8129263.08344  20448097.5994   20448097.8554
   1740434.92444   1356181.31944  20962467.5794   20962468.0514
 96  4  3  2  2 30.0000000  0  7G 6G25G24G16G17G20G 5
 -13835934.48844 -10781241.14044  21664593.9824   21664594.1964
   -318694.83244   -248334.12944  24987125.7194   24987123.3954
  11821672.01544   9211693.08944  22720876.6774   22720876.5524
    -73123.62644    -56978.86444  21038818.3474   21038819.0954
  -7184684.02544  -5598444.51844  24007421.7304   24007424.1914
 -10427719.02044  -8125493.89144  20449017.7834   20449018.2184
   1803515.23544   1405334.78744  20974471.5704   20974471.9864
 96  4  3  2  3  0.0000000  0  7G25G 6G24G16G20G17G 5
   -322558.84544                  24986389.5404
 -13894088.04344 -10826555.57944  21653527.8204   21653528.0724
  11897953.20644   9271132.97544  22735392.8914   22735393.0334
    -86013.58344    -67022.96544  21036365.3164   21036365.7874
 -10422311.34544  -8121280.12644  20450046.9684   20450047.4084
  -7270367.62444  -5665210.85044  23991116.9364   23991119.5304
   1867043.66744   1454837.44844  20986560.7324   20986561.0824
 96  4  3  2  3 30.0000000  0  7G25G 6G24G16G20G17G 5
   -325937.24044                  24985746.5734
 -13952164.17144 -10871809.69744  21642476.8174   21642476.4674
  11974298.45344   9330622.78044  22749920.8664   22749920.1914
    -98292.84844    -76591.20344  21034028.8134   21034029.2314
 -10416291.74844  -8116589.53944  20451192.2524   20451192.6054
  -7355875.04344  -5731839.93944  23974845.1594   23974848.1364
   1931063.77944   1504723.23844  20998743.0034   20998743.3114
 96  4  3  2  4  0.0000000  0  7G25G 6G24G16G20G17G 5
   -328851.75644   -256248.65144  24985189.6134
 -14010173.95744 -10917012.12144  21631437.8494   21631437.3054
  12050687.05444   9390146.36644  22764457.4684   22764457.1114
   -109980.49644    -85698.43744  21031804.7604   21031805.2444
 -10409677.92944  -8111435.92244  20452451.2014   20452451.5314
  -7441218.16144  -5798340.98744  23958604.6074   23958606.4624
   1995569.95444   1554987.77644  21011018.6134   21011018.9584
 96  4  3  2  4 30.0000000  0  7G25G 6G24G16G20G17G 5
   -331321.01944   -258172.72744  24984721.5324
 -14068122.90644 -10962167.13644  21620410.0054   21620409.7934
  12127122.00744   9449706.05544  22779002.3494   22779003.0894
   -121093.80244    -94358.14144  21029689.4114   21029689.9684
 -10402459.83744  -8105811.44344  20453824.2084   20453824.5204
  -7526406.36144  -5864721.30744  23942393.6094   23942394.1394
   2060552.14344   1605623.23344  21023384.2024   21023384.2664
 96  4  3  2  5  0.0000000  0  7G25G 6G24G16G20G17G 5
   -333328.44544                  24984341.5424
 -14125978.24344 -11007249.20044  21609400.7234   21609400.7914
  12203619.82444   9509314.75044  22793559.1884   22793559.5224
   -131617.54044   -102558.43744  21027687.2974   21027687.7274
 -10394605.03644  -8099690.82944  20455319.3524   20455319.8304
  -7611403.22944  -5930952.54944  23926218.1484   23926220.5824
   2126012.42344   1656631.23044  21035840.7854   21035841.0554
 96  4  3  2  5 30.0000000  0  7G25G 6G24G16G20G17G 5
   -334876.45944   -260943.19144  24984044.0724
 -14183716.70644 -11052240.20144  21598413.5394   21598413.2804
  12280184.17744   9568975.27644  22808128.4064   22808128.8204
   -141546.42744   -110295.21344  21025797.6574   21025798.1474
 -10386117.31144  -8093077.02644  20456934.5994   20456934.9394
  -7696196.83644  -5997025.38244  23910083.2434   23910086.8664
   2191931.21244   1707996.50244  21048384.6564   21048385.0954
 96  4  3  2  6  0.0000000  0  7G25G 6G24G16G20G17G 5
   -335963.33644   -261790.18644  24983836.8904
 -14241320.12444 -11097125.96944  21587451.6044   21587451.3404
  12356826.52044   9628696.59044  22822713.2104   22822712.5364
   -150885.45944   -117572.36144  21024020.6384   21024021.0724
 -10376995.27144  -8085968.95844  20458670.4954   20458671.0244
  -7780787.52144  -6062940.11844  23893985.7314   23893988.8184
   2258294.23044   1759707.93044  21061013.0814   21061013.5684
 96  4  3  2  6 30.0000000  0  7G25G 6G24G16G20G17G 5
   -336566.77244                  24983720.5334
 -14298770.07444 -11141892.14944  21576519.7144   21576519.2634
  12433540.26344   9688473.53244  22837311.7584   22837311.5874
   -159624.79144   -124382.21144  21022357.2644   21022357.7604
 -10367237.15644  -8078365.24144  20460527.6024   20460527.7354
  -7865169.74344  -6128692.43844  23877927.7634   23877930.9604
   2325083.37244   1811751.40044  21073722.8774   21073723.4444
 96  4  3  2  7  0.0000000  0  7G25G 6G24G16G20G17G 5
   -336657.94644                  24983702.0114
 -14356033.22944 -11186512.78044  21565622.7614   21565622.1804
  12510321.48344   9748303.04644  22851922.6064   22851923.0154
   -167758.03944   -130719.79044  21020809.9004   21020810.4444
 -10356854.01644  -8070274.49044  20462503.2544   20462503.5754
  -7949322.28544  -6194265.74144  23861914.1394   23861917.5614
   2392316.10644   1864140.53044  21086516.9544   21086517.4394
 96  4  3  2  7 30.0000000  0  7G25G 6G24G16G20G17G 5
   -336239.37744                  24983783.6544
 -14413101.33744 -11230981.42244  21554762.8864   21554762.5524
  12587179.82144   9808192.64644  22866547.6354   22866548.3884
   -175282.65844   -136583.11544  21019377.6934   21019378.2104
 -10345852.76944  -8061702.09744  20464596.4734   20464596.8394
  -8033258.85744  -6259670.78644  23845942.7614   23845945.8494
   2460004.96944   1916885.08244  21099397.6814   21099398.0904
 96  4  3  2  8  0.0000000  0  7G25G 6G24G16G20G17G 5
   -335328.50844   -261295.55844  24983957.2824
 -14469996.25644 -11275315.11144  21543936.4654   21543935.9814
  12664106.15844   9868135.24344  22881186.6154   22881187.3194
   -182207.61944   -141979.17144  21018060.3474   21018060.7394
 -10334269.36244  -8052676.07144  20466800.8464   20466801.2594
  -8117006.19144  -6324928.33644  23830005.6004   23830007.4444
   2528147.16644   1969982.89044  21112364.7034   21112364.8944
 96  4  3  2  8 30.0000000  0  7G25G 6G24G16G20G17G 5
   -333935.81844   -260210.34744  24984221.0174
 -14526745.82344 -11319535.53544  21533137.2924   21533136.7244
  12741099.75744   9928130.24944  22895837.9894   22895839.3794
   -188525.99944   -146902.56844  21016857.5524   21016857.9844
 -10322127.19744  -8043214.65344  20469111.3564   20469111.6354
  -8200569.68544  -6390042.66344  23814105.3644   23814105.8884
   2596762.04544   2023449.02344  21125421.7314   21125422.0754
 96  4  3  2  9  0.0000000  0  7G25G 6G24G16G20G17G 5
   -332083.81644   -258767.26844  24984572.6014   24984575.3494
 -14583379.33444 -11363665.53744  21522360.1304   21522359.4464
  12818166.02544   9988181.90244  22910503.5924   22910504.0444
   -194241.18444   -151355.94444  21015770.1974   21015770.6954
 -10309428.22044  -8033319.35244  20471528.1164   20471528.5774
  -8283963.95144  -6455025.14644  23798235.3714   23798235.3684
   2665857.96044   2077289.98844  21138570.1384   21138570.4844
 96  4  3  2  9 30.0000000  0  7G25G 6G24G16G20G17G 5
   -329780.33644   -256972.31144  24985011.0454   24985013.3114
 -14639918.44744 -11407721.97144  21511601.3054   21511601.2654
  12895305.91344  10048290.91844  22925182.9424   22925183.4894
   -199334.08744   -155324.42344  21014800.9994   21014801.5654
 -10296157.62644  -8022978.63944  20474053.2034   20474053.5854
  -8367190.58144  -6519876.98944  23782398.0644   23782397.2644
   2735443.21744   2131512.24944  21151811.6664   21151811.7744
 96  4  3  2 10  0.0000000  0  7G25G 6G24G16G20G17G 5
   -327000.71944   -254806.42044  24985541.0004   24985541.2694
 -14696360.91144 -11451703.09844  21500860.3734   21500859.9794
  12972516.59944  10108455.08644  22939875.7404   22939876.1724
   -203790.84744   -158797.20744  21013953.0224   21013953.4794
 -10282309.07044  -8012187.56144  20476688.3764   20476688.7224
  -8450217.66044  -6584573.33244  23766597.9804   23766599.0394
   2805519.35044   2186117.01444  21165146.6504   21165147.0924
 96  4  3  2 10 30.0000000  0  7G25G 6G24G16G20G17G 5
   -323751.62944   -252274.67244  24986158.8074   24986158.4434
 -14752713.32744 -11495614.06544  21490136.8244   21490136.7424
  13049767.00644  10168650.20044  22954575.5274   22954576.0484
   -207630.68744   -161789.27444  21013222.2104   21013222.7424
 -10267868.37344  -8000935.07744  20479436.4714   20479437.0554
  -8533045.43344  -6649114.39044  23750836.3174   23750838.1874
   2876050.96644   2241076.69644  21178568.5754   21178568.9124
 96  4  3  2 11  0.0000000  0  7G25G 6G24G16G20G17G 5
   -320061.00444   -249398.85744  24986861.1144   24986861.2624
 -14808973.81144 -11539453.38844  21479431.2704   21479430.7994
  13127016.38844  10228844.52344  22969275.4754   22969276.2084
   -210893.06744   -164331.37544  21012601.2134   21012601.8374
 -10252841.82144  -7989226.08244  20482296.2094   20482296.5384
  -8615690.45244  -6713513.02244  23735109.3054   23735112.0514
   2946981.95844   2296347.58944  21192066.3484   21192066.5244
 96  4  3  2 11 30.0000000  0  7G25G 6G24G16G20G17G 5
   -315921.21144   -246173.62644  24987649.3214   24987647.2944
 -14865119.54944 -11583203.30044  21468747.0954   21468746.5904
  13204264.22644  10289037.64044  22983975.5794   22983974.9554
   -213584.91344   -166428.90544  21012088.9734   21012089.4144
 -10237231.39544  -7977062.12044  20485266.7134   20485267.1794
  -8698138.08344  -6777757.85744  23719419.3134   23719419.6944
   3018300.97044   2351920.84644  21205637.7404   21205638.0314
 96  4  3  2 12  0.0000000  0  7G25G 6G24G16G20G17G 5
   -311323.73944   -242591.62044  24988524.0154   24988525.9744
 -14921118.03744 -11626838.47544  21458090.4804   21458090.2954
  13281533.47944  10349247.45844  22998679.8894   22998680.1264
   -215706.51944   -168082.08844  21011685.3064   21011685.7854
 -10221030.90344  -7964438.37044  20488349.6224   20488349.8724
  -8780377.38144  -6841840.37444  23703770.3064   23703771.1164
   3089999.11744   2407789.52544  21219281.5624   21219281.8544
 96  4  3  2 12 30.0000000  0  7G25G 6G24G16G20G17G 5
   -306268.57644                  24989486.5274
 -14976947.81144 -11670342.18244  21447466.2644   21447465.9924
  13358850.58244  10409494.53944  23013391.9534   23013393.4484
   -217243.26344   -169279.53344  21011392.7784   21011393.3824
 -10204216.03144  -7951335.87844  20491549.2234   20491549.7384
  -8862414.70044  -6905765.48444  23688159.1324   23688160.8384
   3162100.71444   2463972.57544  21233002.2824   21233002.5914
 96  4  3  2 13  0.0000000  0  7G25G 6G24G16G20G17G 5
   -300742.75244   -234346.67944  24990537.8904
 -15032595.31544 -11713703.86544  21436877.2994   21436876.8574
  13436241.02444  10469798.77044  23028118.2814   23028120.1154
   -218183.54444   -170012.20544  21011213.9804   21011214.4854
 -10186783.29444  -7937751.93644  20494866.6144   20494867.1604
  -8944228.52144  -6969516.41844  23672590.7594   23672592.7074
   3234645.13744   2520500.68544  21246806.4694   21246806.9154
 96  4  3  2 13 30.0000000  0  7G25G 6G24G16G20G17G 5
   -294736.17544   -229666.25844  24991681.8074   24991680.9234
 -15088068.09844 -11756929.39744  21426321.0604   21426320.6254
  13513717.35744  10530169.93344  23042861.7374   23042862.0484
   -218504.51544   -170262.29844  21011152.5534   21011153.1844
 -10168732.57044  -7923686.44944  20498301.7254   20498302.1104
  -9025808.96244  -7033085.53144  23657065.4694   23657067.7354
   3307655.21444   2577391.64444  21260700.1264   21260700.5304
 96  4  3  2 14  0.0000000  0  7G25G 6G24G16G20G17G 5
   -288320.34844   -224666.94144  24992903.5714
 -15143447.25344 -11800081.97644  21415783.0084   21415782.3224
  13591201.98944  10590547.57344  23057607.3094   23057607.2484
   -218255.86844   -170068.53244  21011200.0154   21011200.6544
 -10150125.29944  -7909187.28844  20501842.4364   20501842.9974
  -9107223.63944  -7096525.46344  23641572.4444   23641575.0114
   3381070.41444   2634598.27744  21274670.4514   21274671.1374
 96  4  3  2 14 30.0000000  0  7G25G 6G24G16G20G17G 5
   -281487.28144   -219342.50244  24994204.4174
 -15198733.18644 -11843161.91044  21405262.1744   21405261.6414
  13668689.55344  10650927.48844  23072352.5944   23072353.6064
   -217424.99944   -169421.09244  21011358.2384   21011358.6814
 -10130944.96044  -7894241.58344  20505492.4414   20505492.7554
  -9188461.56644  -7159827.69244  23626114.3234   23626116.7944
   3454904.06744   2692130.99444  21288720.5544   21288720.9804
 96  4  3  2 15  0.0000000  0  7G25G 6G24G16G20G17G 5
   -274205.41344   -213668.34044  24995589.2654   24995588.2934
 -15253906.73844 -11886154.27744  21394762.9554   21394762.3484
  13746199.93544  10711325.17044  23087102.4864   23087102.0494
   -215988.40644   -168301.65144  21011631.4904   21011631.8644
 -10111173.70944  -7878835.42444  20509254.8134   20509255.3004
  -9269486.30444  -7222963.76944  23610695.2514   23610698.4384
   3529162.39144   2749994.61244  21302851.5114   21302851.9274
 96  4  3  2 15 30.0000000  0  7G25G 6G24G16G20G17G 5
   -266467.16244   -207638.48444  24997060.1254
 -15308957.38344 -11929050.87244  21384287.1674   21384286.8554
  13823748.31844  10771752.49444  23101859.9404   23101859.7854
   -213937.49144   -166703.51944  21012021.8214   21012022.1384
 -10090806.11844  -7862964.58644  20513130.3324   20513130.7224
  -9350314.75544  -7285946.88944  23595313.5734   23595315.4174
   3603832.32344   2808178.97044  21317060.6134   21317061.1334
 96  4  3  2 16  0.0000000  0  7G25G 6G24G16G20G17G 5
   -258280.01744   -201258.89144  24998620.3004   24998623.2434
 -15363886.76444 -11971852.97744  21373834.4664   21373834.0184
  13901329.39344  10832205.27144  23116622.2204   23116622.0224
   -211292.61344   -164642.56044  21012525.2354   21012525.6294
 -10069847.80544  -7846633.44044  20517118.7384   20517119.3534
  -9430959.97344  -7348787.26544  23579967.7334   23579969.4734
   3678897.18544   2866671.06044  21331344.9784   21331345.4194
 96  4  3  2 16 30.0000000  0  7G25G 6G24G16G20G17G 5
   -249639.60744   -194526.14344  25000265.7264   25000267.9284
 -15418683.51844 -12014551.73344  21363407.0924   21363406.5554
  13978954.54744  10892692.40544  23131393.3424   23131393.7204
   -208071.10644   -162132.28144  21013138.2514   21013138.7394
 -10048307.81444  -7829849.04244  20521217.7514   20521218.1394
  -9511432.59144  -7411493.16344  23564654.2924   23564655.2994
   3754352.66444   2925467.52644  21345703.7384   21345704.2824
 96  4  3  2 17  0.0000000  0  7G25G 6G24G16G20G17G 5
   -240529.38344   -187427.27044  25001998.6074
 -15473337.89744 -12057139.55244  21353006.6984   21353005.8534
  14056644.50344  10953230.03044  23146177.4434   23146178.3474
   -204249.72644   -159154.56944  21013865.5724   21013865.7304
 -10026183.56744  -7812609.38144  20525427.7564   20525428.1054
  -9591718.50844  -7474053.55844  23549376.7994   23549378.0414
   3830219.02644   2984584.16244  21360140.3254   21360141.0584
 96  4  3  2 17 30.0000000  0  7G25G 6G24G16G20G17G 5
   -230973.88444   -179981.39944  25003817.5934   25003814.2204
 -15527853.28144 -12099619.05844  21342632.9194   21342632.3774
  14134380.39844  11013803.44244  23160970.4524   23160971.2874
   -199833.44044   -155713.29444  21014705.9654   21014706.4174
 -10003483.65344  -7794921.14844  20529747.4754   20529747.8724
  -9671823.90644  -7536473.28544  23534133.0984   23534134.7364
   3906493.86344   3044019.09244  21374655.6134   21374656.0774
 96  4  3  2 18  0.0000000  0  7G25G 6G24G16G20G17G 5
   -220981.78844   -172195.38544  25005718.4504   25005718.6684
 -15582231.01444 -12141991.30144  21332284.9184   21332284.6824
  14212140.68044  11074395.88944  23175767.9754   23175768.1624
   -194814.03544   -151802.05444  21015660.8144   21015661.3174
  -9980208.66344  -7776784.80344  20534176.4224   20534176.8884
  -9751732.22744  -7598739.43144  23518926.6724   23518928.5624
   3983182.84944   3103776.72944  21389248.9424   21389249.3074
 96  4  3  2 18 30.0000000  0  7G25G 6G24G16G20G17G 5
   -210561.69744   -164075.81544  25007700.8054
 -15636472.09144 -12184257.05844  21321962.9624   21321962.6534
  14289916.66444  11135000.56444  23190567.8304   23190568.7984
   -189191.28044   -147420.67344  21016730.7174   21016731.1724
  -9956369.15244  -7758208.57244  20538713.1674   20538713.7354
  -9831452.57444  -7660859.12344  23503757.1324   23503757.2404
   4060277.12044   3163850.17944  21403919.3544   21403919.6034
 96  4  3  2 19  0.0000000  0  7G25G 6G24G16G20G17G 5
   -199725.95344   -155631.40444  25009761.9084   25009762.2164
 -15690576.12444 -12226416.02844  21311667.3924   21311666.9214
  14367692.75344  11195605.30444  23205368.3834   23205368.5374
   -182975.16344   -142576.92944  21017913.8654   21017914.2154
  -9931969.19644  -7739195.63644  20543356.0034   20543356.6614
  -9910976.66144  -7722825.90144  23488624.2504   23488623.4424
   4137771.77844   3224235.61544  21418666.3634   21418666.6524
 96  4  3  2 19 30.0000000  0  7G25G 6G24G16G20G17G 5
   -188453.62944                  25011906.6714
 -15744503.97744 -12268437.72544  21301405.2214   21301404.6674
  14445486.19044  11256223.51444  23220172.4654   23220172.3434
   -176163.86844   -137269.41444  21019209.8394   21019210.3074
  -9906975.46244  -7719720.01544  20548112.3784   20548112.7654
  -9990277.30044  -7784618.56044  23473533.1624   23473534.7114
   4215684.04144   3284946.46844  21433492.7734   21433492.7024
 96  4  3  2 20  0.0000000  0  7G25G 6G24G16G20G17G 5
   -176730.19444                  25014138.2104
 -15798238.41444 -12310308.70444  21291180.0104   21291179.3324
  14523308.27844  11316864.10844  23234981.2964   23234981.6984
   -168764.14544   -131503.37744  21020618.0364   21020618.4274
  -9881383.01244  -7699777.85444  20552982.5044   20552982.8694
 -10069358.60744  -7846240.28844  23458484.5804   23458486.6154
   4294008.26544   3345978.32044  21448397.0864   21448397.5034
 96  4  3  2 20 30.0000000  0  7G25G 6G24G16G20G17G 5
   -164556.61644                  25016454.8734
 -15851779.11344 -12352028.71844  21280991.4614   21280991.1154
  14601166.44544  11377532.80944  23249797.1124   23249797.0314
   -160780.86544   -125282.62444  21022136.8584   21022137.3764
  -9855192.60244  -7679369.74744  20557966.2604   20557966.6994
 -10148220.99744  -7907691.43744  23443477.8734   23443479.2464
   4372740.87644   3407328.39444  21463379.1804   21463379.6354
 96  4  3  2 21  0.0000000  0  7G25G 6G24G16G20G17G 5
   -151953.51644                  25018853.0904
 -15905157.64544 -12393622.36444  21270833.9214   21270833.4814
  14679026.74044  11438203.17444  23264613.3284   23264613.7414
   -152234.71544   -118623.27044  21023763.3204   21023763.7854
  -9828420.82044  -7658508.62244  20563060.7954   20563061.2124
 -10226882.79744  -7968986.30944  23428508.2224   23428510.0554
   4451863.40644   3468982.30144  21478435.5624   21478436.2834
 96  4  3  2 21 30.0000000  0  7G25G 6G24G16G20G17G 5
   -138906.94144                  25021334.6364
 -15958373.45744 -12435089.21944  21260707.6994   21260707.1644
  14756901.34644  11498884.68544  23279432.7334   23279432.9474
   -143091.50244   -111498.67644  21025503.1524   21025503.6644
  -9801044.72844  -7637176.60744  20568270.3804   20568270.9004
 -10305343.35344  -8030124.36744  23413577.1284   23413578.6674
   4531379.85944   3530943.16544  21493567.0684   21493568.1154
 96  4  3  2 22  0.0000000  0  7G25G 6G24G16G20G17G 5
   -125412.30244    -97724.55844  25023901.5624
 -16011433.71844 -12476434.86544  21250610.2274   21250609.8364
  14834795.29844  11559581.28044  23294255.0334   23294255.5594
   -133328.54044   -103891.15844  21027361.0944   21027361.4514
  -9773057.12344  -7615368.08644  20573596.1704   20573596.6894
 -10383595.40344  -8091099.95044  23398686.5424   23398688.9764
   4611294.02344   3593213.92944  21508774.3654   21508774.8324
 96  4  3  2 22 30.0000000  0  7G25G 6G24G16G20G17G 5
   -111480.80344    -86868.96844  25026550.6774   25026550.1704
 -16064381.84644 -12517693.13644  21240534.7944   21240534.2094
  14912682.62544  11620272.70944  23309076.1164   23309077.7264
   -122965.87844    -95816.34644  21029332.7434   21029333.4244
  -9744467.20344  -7593090.23344  20579036.5164   20579037.3424
 -10461653.05044  -8151924.05344  23383833.0114   23383835.1914
   4691598.45144   3655788.79844  21524056.1004   21524056.7354
 96  4  3  2 23  0.0000000  0  7G25G 6G24G16G20G17G 5
    -97093.94244    -75658.39344  25029289.1774   25029289.8124
 -16117201.58844 -12558851.36244  21230483.2094   21230482.9774
  14990579.22244  11680971.35244  23323899.8874   23323901.3114
   -111994.42344    -87267.14344  21031421.0034   21031421.0724
  -9715256.69944  -7570328.80944  20584595.0254   20584595.6524
 -10539502.78544  -8212586.12744  23369017.8124   23369020.0594
   4772296.93444   3718670.72444  21539412.0754   21539412.6874
 96  4  3  2 23 30.0000000  0  7G25G 6G24G16G20G17G 5
    -82270.66344    -64107.90444  25032111.8854   25032109.2164
 -16169875.32644 -12599895.81544  21220460.0414   21220459.9074
  15068499.43144  11741688.40144  23338727.5284   23338727.2914
   -100417.53344    -78246.17644  21033623.8604   21033624.2844
  -9685447.77144  -7547101.08044  20590267.6234   20590268.0584
 -10617139.73644  -8273082.36944  23354243.5564   23354246.4824
   4853374.90244   3781848.35144  21554840.9324   21554841.2024
 96  4  3  2 24  0.0000000  0  7G25G 6G24G16G20G17G 5
    -67023.74544    -52227.23844  25035011.8454   25035011.9504
 -16222391.07844 -12640817.16744  21210466.5494   21210466.0834
  15146437.59444  11802419.43844  23353559.1104   23353559.4774
    -88258.77244    -68771.80044  21035937.5854   21035937.9134
  -9655076.56544  -7523435.21244  20596047.2804   20596047.6974
 -10694564.62044  -8333413.39144  23339511.6354   23339511.7234
   4934818.99544   3845311.28044  21570339.6904   21570339.8724
 96  4  3  2 24 30.0000000  0  7G25G 6G24G16G20G17G 5
    -51350.11444    -40014.13444  25037993.5104   25037992.1564
 -16274721.91144 -12681594.43344  21200508.2694   21200507.7884
  15224412.14844  11863178.80844  23368397.3364   23368397.1804
    -75509.35844    -58837.17744  21038363.5424   21038364.1734
  -9624152.06844  -7499338.20844  20601931.8274   20601932.3354
 -10771777.36044  -8393579.12544  23324819.0934   23324818.6884
   5016623.45044   3909055.00444  21585906.3704   21585906.6734
 96  4  3  2 25  0.0000000  0  7G25G 6G24G16G20G17G 5
    -35248.54944    -27467.35044  25041058.2024   25041058.2804
 -16326824.28444 -12722193.67344  21190593.4694   21190593.0584
  15302450.80444  11923988.12744  23383247.2484   23383248.6094
    -62135.34444    -48415.85544  21040908.4984   21040908.9774
  -9592677.91844  -7474812.90744  20607921.0954   20607921.6004
 -10848752.87944  -8453559.99144  23310170.8274   23310172.0184
   5098793.15444   3973083.34044  21601542.5274   21601542.7474
 96  4  3  2 25 30.0000000  0  6G 6G24G16G17G 5G20
 -16378686.23544 -12762605.57244  21180724.4584   21180723.9324
  15380566.94444  11984857.82144  23398111.7434   23398112.7104
    -48124.88944    -37498.60344  21043574.9274   21043575.3044
 -10925477.12944  -8513345.06844  23295570.1674   23295572.3564
   5181346.27344   4037410.43444  21617251.7224   21617252.4514
  -9560638.16144  -7449846.86444  20614018.1574   20614018.7224
 96  4  3  2 26  0.0000000  0  6G 6G24G16G20G17G 5
 -16430348.78644 -12802862.09444  21170893.2414   21170892.7094
  15458728.87344  12045763.24244  23412986.1244   23412986.6734
    -33513.23344    -26112.88844  21046355.3984   21046355.7084
  -9528025.85244  -7424434.68344  20620223.9594   20620224.5404
 -11001978.82544  -8572956.68644  23281011.7784   23281014.1044
   5264268.73744   4102025.32444  21633031.5404   21633031.7304
 96  4  3  2 26 30.0000000  0  7G25G 6G24G16G20G17G 5
        -0.21954        -0.63154  25050757.6264
 -16481838.45144 -12842983.90444  21161095.1104   21161094.5974
  15536923.22444  12106693.91544  23427864.9294   23427865.3794
    -18300.08244    -14258.47144  21049250.3954   21049250.6624
  -9494820.17244  -7398560.13744  20626543.0754   20626543.5894
 -11078260.07744  -8632396.57544  23266496.5984   23266496.9184
   5347571.40544   4166936.47644  21648883.3084   21648883.7904
 96  4  3  2 27  0.0000000  0  7G25G 6G24G16G20G17G 5
     17825.88144     13887.76744  25054150.4674
 -16533214.44044 -12883017.13344  21151318.8734   21151318.2934
  15615089.83044  12167602.98744  23442740.3834   23442741.2784
     -2538.61644     -1976.79944  21052249.3934   21052249.7604
  -9461049.34644  -7372245.21944  20632969.4634   20632970.0894
 -11154351.46844  -8691688.51944  23252016.4734   23252017.6244
   5431230.38944   4232125.28844  21664803.1994   21664803.7344
 96  4  3  2 27 30.0000000  0  7G25G 6G24G16G20G17G 5
     36041.03444     28080.06244  25057615.8964
 -16584497.23244 -12922977.73544  21141559.8534   21141559.6044
  15693210.38744  12228476.14444  23457606.6844   23457607.2134
     13743.30044     10710.42444  21055347.7324   21055347.9734
  -9426715.81844  -7345491.83344  20639502.9154   20639503.2664
 -11230282.64844  -8750855.63144  23237567.8194   23237567.5784
   5515236.23944   4297584.38144  21680789.2584   21680789.8874
 96  4  3  2 28  0.0000000  0  7G25G 6G24G16G20G17G 5
     54649.39644     42578.60744  25061156.1364   25061158.2694
 -16635649.45444 -12962836.59444  21131826.0994   21131825.5784
  15771298.01244  12289323.64744  23472465.3774   23472465.9724
     30577.09844     23827.67744  21058551.4424   21058551.5104
  -9391813.05444  -7318294.88644  20646144.6074   20646145.1844
 -11306035.08544  -8809883.44144  23223152.3784   23223153.6814
   5599607.26344   4363328.02744  21696844.5764   21696845.0644
 96  4  3  2 28 30.0000000  0  7G25G 6G24G16G20G17G 5
     73631.86144     57369.16844  25064769.0324   25064771.4294
 -16686649.77044 -13002577.09144  21122120.6714   21122120.0774
  15849359.24144  12350150.57244  23487319.5654   23487320.8924
     47980.20944     37388.55544  21061863.1094   21061863.1914
  -9356367.97244  -7290675.35344  20652889.6064   20652890.2004
 -11381610.39244  -8868773.24244  23208770.3774   23208771.3524
   5684333.66144   4429348.57644  21712967.1444   21712967.5964
 96  4  3  2 29  0.0000000  0  7G25G 6G24G16G20G17G 5
     93017.89344     72475.94844  25068459.2584   25068461.0624
 -16737441.77944 -13042155.26644  21112455.4304   21112454.7934
  15927434.56744  12410988.47144  23502177.5794   23502176.2334
     65977.67244     51412.56644  21065287.6444   21065287.9644
  -9320364.93144  -7262621.04344  20659740.5924   20659741.0104
 -11456989.69944  -8927510.31344  23194426.3044   23194427.2544
   5769427.86944   4495655.74844  21729160.0994   21729160.7094
 96  4  3  2 29 30.0000000  0  7G25G 6G24G16G20G17G 5
    112828.38144     87912.81244  25072230.5364   25072229.2244
 -16787984.20744 -13081538.96444  21102837.6044   21102836.8824
  16005548.39144  12471856.40844  23517042.3894   23517042.6124
     84595.60944     65920.06044  21068830.5434   21068831.0584
  -9283805.24044  -7234132.97544  20666697.9264   20666698.4144
 -11532158.62044  -8986083.45144  23180122.0204   23180121.8954
   5854888.66144   4562248.55544  21745423.0114   21745423.3574
 96  4  3  2 30  0.0000000  0  7G25G 6G24G16G20G17G 5
    133021.94544    103648.28044  25076072.8664   25076073.5624
 -16838316.58144 -13120758.98244  21093259.6514   21093259.1614
  16083656.78444  12532720.07944  23531905.7904   23531905.4054
    103798.92544     80883.69744  21072484.7084   21072485.1914
  -9246734.45344  -7205246.64944  20673752.1144   20673752.6434
 -11607137.87644  -9044508.79744  23165853.7914   23165854.5884
   5940668.49844   4629089.97844  21761745.9434   21761746.7044
 96  4  3  2 30 30.0000000  0  7G25G 6G24G16G20G17G 5
    153635.04744    119712.14044  25079995.1124   25079994.8774
 -16888437.11644 -13159813.93544  21083721.9964   21083721.6384
  16161790.33144  12593603.35744  23546774.0184   23546775.2904
    123602.92844     96315.39844  21076253.6154   21076253.6154
  -9209112.10044  -7175930.53344  20680911.5514   20680912.1124
 -11681894.11544  -9102760.37144  23151628.2474   23151629.2244
   6026795.75544   4696202.11544  21778135.5544   21778135.8394
 96  4  3  2 31  0.0000000  0  7G25G 6G24G16G20G17G 5
    174681.61744    136115.39044  25084000.9594   25084001.5284
 -16938354.81744 -13198710.83144  21074222.9544   21074222.5594
  16239946.26444  12654504.08744  23561646.4184   23561646.3204
    144006.33044    112214.16944  21080136.0044   21080136.3594
  -9170919.76644  -7146170.28244  20688179.4624   20688180.0104
 -11756411.14844  -9160825.54744  23137447.3424   23137448.2514
   6113279.91844   4763592.37044  21794592.9334   21794593.1544
 96  4  3  2 31 30.0000000  0  7G25G 6G24G16G20G17G 5
    196132.12344    152836.67544  25088082.8294   25088082.8294
 -16988106.82044 -13237478.60944  21064755.5954   21064755.0794
  16318109.44044  12715410.45544  23576520.4274   23576521.4204
    165001.28344    128573.88044  21084131.1094   21084131.3954
  -9132162.01244  -7115969.44244  20695554.5434   20695554.8524
 -11830695.29744  -9218709.26144  23123312.0274   23123313.9474
   6200105.12644   4831248.37444  21811115.3734   21811115.9874
 96  4  3  2 32  0.0000000  0  7G25G 6G24G16G20G17G 5
    217974.01544    169870.49544  25092238.6494   25092239.2504
 -17037716.78344 -13276135.71144  21055314.9494   21055314.4454
  16396274.98544  12776318.66344  23591394.2144   23591395.2474
    186580.38044    145388.77544  21088237.4744   21088237.8094
  -9092820.74444  -7085313.91444  20703040.8864   20703041.4984
 -11904753.53444  -9276416.94144  23109219.5054   23109221.3974
   6287279.24444   4899176.25644  21827704.0804   21827704.5624
 96  4  3  2 32 30.0000000  0  6G 6G24G16G17G 5G20
 -17087176.53344 -13314675.76444  21045903.0724   21045902.3804
  16474433.99144  12837221.76944  23606268.0414   23606268.9444
    208739.43444    162655.58344  21092454.4054   21092454.7134
 -11978597.81844  -9333957.89844  23095166.8444   23095166.6494
   6374813.28344   4967384.59744  21844361.4874   21844361.8184
  -9052888.85644  -7054198.16344  20710639.6844   20710640.2314
 96  4  3  2 33  0.0000000  0  6G 6G24G16G20G17G 5
 -17136479.77344 -13353093.86844  21036521.2084   21036520.2534
  16552560.16744  12898099.30844  23621135.3374   23621136.4124
    231462.51544    180361.88844  21096778.1444   21096778.5444
  -9012397.99144  -7022646.84744  20718345.1544   20718345.4374
 -12052250.24044  -9391349.37044  23081151.7234   23081152.2024
   6462679.04144   5035851.39944  21861081.5644   21861082.1534
 96  4  3  2 33 30.0000000  0  7G23G 6G24G16G20G17G 5
        -0.48954        -0.40954  25268481.5844   25268489.4184
 -17185602.23144 -13391371.10344  21027173.4344   21027173.0464
  16630667.40844  12958962.09044  23635998.7374   23635998.3314
    254754.51744    198511.51844  21101210.6044   21101210.9854
  -8971333.57844  -6990648.61244  20726159.3564   20726159.8524
 -12125697.15444  -9448580.69344  23067175.8414   23067177.1584
   6550883.91744   5104582.47244  21877866.6444   21877866.6874
 96  4  3  2 34  0.0000000  0  7G23G 6G24G16G20G17G 5
   -107251.04844    -83572.01044  25248070.0854
 -17234520.05944 -13429488.88144  21017864.5114   21017864.2394
  16708753.62644  13019808.50844  23650857.7754   23650857.1974
    278607.61544    217098.35444  21105749.8074   21105750.1124
  -8929700.16344  -6958206.99744  20734081.9384   20734082.4934
 -12198934.87944  -9505649.02244  23053238.9404   23053239.7924
   6639427.69544   5173577.61844  21894715.3464   21894716.3794
 96  4  3  2 34 30.0000000  0  6G 6G24G16G20G17G 5
 -17283211.23144 -13467430.04144  21008599.0724   21008598.6984
  16786831.14244  13080648.13944  23665715.9634   23665715.6584
    303041.26944    236137.58044  21110399.3924   21110399.3794
  -8887496.37644  -6925320.93644  20742112.8034   20742113.2784
 -12271950.25244  -9562544.07944  23039344.2484   23039346.3184
   6728309.90944   5242836.46744  21911629.1364   21911629.6014
 96  4  3  2 35  0.0000000  0  6G 6G24G16G20G17G 5
 -17331685.76044 -13505202.39144  20999374.7684   20999374.1124
  16864919.04344  13141495.85644  23680575.0104   23680576.2234
    328061.62444    255633.97044  21115160.4344   21115160.9314
  -8844729.35544  -6891995.99644  20750251.3504   20750251.8984
 -12344743.17044  -9619265.79144  23025492.5224   23025494.5064
   6817507.36544   5312340.96844  21928602.9694   21928603.5044
 96  4  3  2 35 30.0000000  0  6G 6G24G16G17G20G 5
 -17379954.32544 -13542814.25444  20990189.4974   20990188.7444
  16943017.51344  13202351.80144  23695436.7344   23695437.4184
    353668.03844    275587.03044  21120033.3984   21120033.8214
 -12417318.98344  -9675818.32944  23011682.2634   23011682.7984
  -8801398.09844  -6858231.39144  20758497.1364   20758497.6204
   6907018.57244   5382089.94644  21945636.6054   21945637.0604
 96  4  3  2 36  0.0000000  0  6G24G16G17G 5G 6G20
  17021129.61944  13263218.37644  23710300.4434   23710300.9854
    379872.41644    296006.03844  21125019.6374   21125020.1144
 -12489670.76744  -9732196.30744  22997912.8164   22997913.9604
   6996851.44844   5452089.57944  21962731.0904   21962731.4774
 -17428013.62544 -13580263.04944  20981044.0564   20981043.7004
  -8757502.62244  -6824027.13344  20766850.1184   20766850.3994
 96  4  3  2 36 30.0000000  0  7G24G23G16G17G 5G 6G20
  17099255.62544  13324095.75244  23725167.3034   23725168.0614
        -0.86154                  25146005.4554
    406682.16844    316896.76144  21130121.6114   21130121.8304
 -12561778.99744  -9788384.51644  22984191.5994   22984192.6554
   7087010.39344   5522343.28944  21979888.3634   21979888.4384
 -17475866.97544 -13617551.37244  20971937.5474   20971936.9774
  -8713045.02744  -6789384.85844  20775310.0664   20775310.5224
 96  4  3  2 37  0.0000000  0  7G24G16G23G17G 5G 6G20
  17177387.37844  13384977.66144  23740035.6654   23740036.5624
    434071.85544    338239.38944  21135333.4104   21135333.6264
   -107277.08444    -83591.55844  25125591.4474
 -12633646.07344  -9844384.78844  22970515.0384   22970516.3944
   7177488.81744   5592845.95244  21997105.6044   21997106.3744
 -17523504.75544 -13654671.71844  20962872.4364   20962871.8564
  -8668035.10844  -6754312.20444  20783875.0604   20783875.4234
 96  4  3  2 37 30.0000000  0  6G24G16G17G 5G 6G20
  17255504.01444  13445847.76844  23754901.7174   23754900.7204
    462029.99044    360024.96044  21140653.4854   21140653.9384
 -12705268.72144  -9900194.60444  22956885.5564   22956887.2324
   7268294.36644   5663603.51244  22014384.7214   22014385.7524
 -17570926.50144 -13691623.72344  20953848.4294   20953847.7664
  -8622481.06244  -6718815.55444  20792543.6694   20792544.1194
 96  4  3  2 38  0.0000000  0  6G24G16G17G 5G 6G20
  17333594.12044  13506697.19744  23769760.0994   23769760.8924
    490534.39844    382236.20144  21146078.0444   21146077.9424
 -12776668.98744  -9955831.12944  22943298.6884   22943300.6704
   7359398.17944   5734593.49044  22031721.8424   22031722.2934
 -17618151.20344 -13728422.18844  20944861.9914   20944861.4104
  -8576410.37044  -6682916.32444  20801310.8314   20801311.5554
 96  4  3  2 38 30.0000000  0  6G24G16G17G 5G 6G20
  17411684.10044  13567546.49144  23784621.1464   23784620.6274
    519608.97344    404891.72644  21151610.6924   21151611.1424
 -12847844.99344 -10011292.91944  22929754.7694   22929755.1824
   7450819.90444   5805831.17444  22049117.9084   22049119.0264
 -17665150.32344 -13765044.87044  20935918.1424   20935917.6984
  -8529806.78244  -6646601.85444  20810179.0944   20810179.6544
 96  4  3  2 39  0.0000000  0  6G24G16G17G 5G 6G20
  17489743.39744  13628371.92744  23799476.5384   23799476.0554
    549215.38144    427961.65944  21157244.8334   21157245.2414
 -12918861.33744 -10066630.30844  22916241.1354   22916240.6984
   7542521.23944   5877286.74344  22066568.3764   22066569.2254
 -17711961.10544 -13801520.80144  20927010.4054   20927009.8184
  -8482708.25544  -6609901.72144  20819141.7154   20819142.2184
 96  4  3  2 39 30.0000000  0  6G24G16G17G 5G 6G20
  17567839.26444  13689225.82344  23814336.0154   23814334.2584
    579417.91344    451496.11244  21162991.9024   21162992.2914
 -12989668.47544 -10121804.66944  22902766.3924   22902766.8444
   7634548.07144   5948995.95344  22084080.6924   22084081.3184
 -17758549.18744 -13837823.19844  20918145.4364   20918144.9004
  -8435055.94344  -6572770.06244  20828209.8564   20828210.3564
 96  4  3  2 40  0.0000000  0  6G24G16G17G 5G 6G20
  17645956.38844  13750096.32744  23829201.0024   23829200.8834
    610195.31144    475478.50244  21168848.6314   21168848.9314
 -13060298.32444 -10176840.87644  22889326.5764   22889327.4784
   7726870.87744   6020935.79344  22101649.2224   22101649.9344
 -17804925.69144 -13873960.72444  20909319.9314   20909319.3624
  -8386879.98044  -6535230.36044  20837377.0594   20837377.5384
 96  4  3  2 40 30.0000000  0  7G23G24G16G17G 5G 6G20
        -0.58154        -0.70754  24982778.8784   24982782.7314
  17724076.18344  13810968.89644  23844066.8874   23844067.9784
    641529.15344    499894.49544  21174811.2374   21174811.4244
 -13130758.11444 -10231744.56244  22875917.9524   22875918.6074
   7819487.51044   6093104.60244  22119273.8784   22119274.4424
 -17851095.58144 -13909937.26244  20900534.0214   20900533.4384
  -8338184.98644  -6497286.21744  20846643.4824   20846643.9164
 96  4  3  2 41  0.0000000  0  7G23G24G16G17G 5G 6G20
   -107170.93844    -83509.81444  24962383.9544   24962388.4124
  17802196.84044  13871842.15544  23858932.6254   23858932.8304
    673413.34644    524739.33344  21180878.8444   21180879.1614
 -13201025.01044 -10286497.95544  22862546.9144   22862547.7994
   7912392.45644   6165498.07244  22136953.0774   22136953.6004
 -17897065.25244 -13945757.78444  20891786.5954   20891785.9914
  -8288966.84444  -6458934.42844  20856009.5124   20856009.9834
 96  4  3  2 41 30.0000000  0  7G23G24G16G17G 5G 6G20
   -214345.49644   -167022.20444  24941990.9754
  17880301.85844  13932703.20644  23873796.8394   23873794.8694
    705844.03944    550010.00544  21187050.2204   21187050.5454
 -13271083.72944 -10341089.12744  22849215.0884   22849215.4414
   8005584.02744   6238114.87744  22154686.8454   22154687.1194
 -17942837.23944 -13981424.26344  20883076.4254   20883075.8464
  -8239234.72244  -6420182.13444  20865472.9944   20865473.5234
 96  4  3  2 42  0.0000000  0  7G23G24G16G17G 5G 6G20
   -321500.75744   -250519.63244  24921600.5634
  17958371.55844  13993536.72644  23888652.6184   23888651.2664
    738818.76644    575704.60944  21193325.0174   21193324.7894
 -13340919.17444 -10395506.33044  22835925.3924   22835925.7504
   8099081.59144   6310970.11244  22172478.4724   22172479.0344
 -17988395.23144 -14016923.98644  20874406.9454   20874406.5534
  -8188992.34844  -6381032.24344  20875033.8664   20875034.4014
 96  4  3  2 42 30.0000000  0  7G23G24G16G17G 5G 6G20
   -428604.00744   -333976.47044  24901219.2324   24901225.1594
  18036409.69944  14054345.64244  23903501.6764   23903502.7244
    772340.35244    601825.33244  21199703.7084   21199704.0514
 -13410506.90644 -10449730.51044  22822683.6914   22822683.6624
   8192882.71644   6384061.89744  22190328.9474   22190329.1094
 -18033737.12144 -14052255.32244  20865778.5574   20865778.1344
  -8138220.04544  -6341469.42244  20884695.6444   20884696.1274
 96  4  3  2 43  0.0000000  0  7G23G24G16G17G 5G 6G20
   -535650.17344   -417388.79444  24880847.0104   24880851.7264
  18114407.83444  14115123.41144  23918344.7844   23918345.9424
    806416.43144    628378.12344  21206188.4474   21206188.7944
 -13479833.81844 -10503751.44444  22809491.1764   22809492.0894
   8286974.05044   6457379.80444  22208233.6144   22208234.4704
 -18078861.85344 -14087417.44444  20857191.6214   20857191.1634
  -8086919.10144  -6301494.67844  20894457.9594   20894458.5634
 96  4  3  2 43 30.0000000  0  7G16G23G24G17G 5G 6G20
    841021.52344    655343.13844  21212773.5544   21212773.5974
   -642669.84644   -500780.51344  24860480.9324   24860484.0964
  18192339.93744  14175849.74044  23933174.7754   23933175.3044
 -13548928.84644 -10557591.69444  22796342.3604   22796344.0434
   8381329.38444   6530903.41944  22226188.9204   22226189.3804
 -18123777.61144 -14122416.73144  20848644.5404   20848643.7334
  -8035114.86244  -6261127.75444  20904316.2844   20904316.6294
 96  4  3  2 44  0.0000000  0  7G23G24G16G17G 5G 6G20
   -749676.63844   -584162.16344  24840119.2254   24840123.4864
  18270208.82144  14236526.78144  23947993.4794   23947992.5524
    876141.92844    682709.69444  21219456.7604   21219456.9924
 -13617804.32944 -10611260.86544  22783235.2934   22783237.6784
   8475924.59544   6604613.97544  22244189.5164   22244190.1674
 -18168483.41044 -14157252.41044  20840136.9724   20840136.4864
  -7982811.22844  -6220371.69244  20914269.3614   20914269.9024
 96  4  3  2 44 30.0000000  0  7G23G24G16G17G 6G20G 5
   -856642.47944   -667511.94744  24819765.4744   24819768.8504
  18348058.30644  14297188.73044  23962807.5694   23962807.8194
    911806.07344    710499.94444  21226243.3284   21226243.6574
 -13686439.61444 -10664742.87044  22770174.8684   22770176.4324
 -18212958.78444 -14191908.52844  20831673.8904   20831673.3394
  -7929979.20444  -6179203.89244  20924322.6174   20924323.0724
   8570771.35244   6678520.51744  22262238.5934   22262239.2454
 96  4  3  2 45  0.0000000  0  7G16G23G24G17G 5G 6G20
    948034.26444    738729.71044  21233137.1624   21233137.3884
   -963559.52744   -750823.66744  24799420.4564   24799425.6424
  18425900.36044  14357844.88244  23977620.4064   23977621.4614
 -13754833.11844 -10718036.46944  22757160.2124   22757161.6264
   8665904.30444   6752650.08844  22280341.5444   22280341.8094
 -18257183.63544 -14226369.44144  20823258.2464   20823257.7254
  -7876616.27044  -6137622.39744  20934477.0204   20934477.5024
 96  4  3  2 45 30.0000000  0  7G23G 6G24G16G20G17G 5
  -1070435.39244   -834103.31344  24779082.1834   24779085.2384
 -18301170.00444 -14260644.52644  20814887.7544   20814887.2084
  18503742.94844  14418501.42444  23992433.6364   23992433.4964
    984817.00944    767391.59544  21240136.9324   21240137.3664
  -7822736.04444  -6095637.81544  20944730.3424   20944730.9674
 -13823005.52444 -10771157.81044  22744187.8544   22744187.7754
   8761318.43844   6826998.76744  22298497.8934   22298498.0024
 96  4  3  2 46  0.0000000  0  7G23G24G16G17G 6G20G 5
  -1177283.48544   -917361.32644  24758748.1764   24758754.3874
  18581560.64644  14479138.61144  24007241.2084   24007242.5504
   1022139.92244    796474.39244  21247238.9964   21247239.1264
 -13890991.52944 -10824133.89044  22731249.8664   22731250.7604
 -18344965.15744 -14294770.61944  20806553.9204   20806553.2974
  -7768372.83644  -6053276.89244  20955075.2704   20955075.8574
   8856983.29244   6901542.81244  22316702.3324   22316702.7134
 96  4  3  2 46 30.0000000  0  7G16G23G24G17G 5G 6G20
   1059998.18044    825974.34544  21254443.1554   21254443.4564
  -1284114.32844  -1000605.90944  24738418.4404   24738422.4354
  18659336.53344  14539743.17844  24022040.8364   24022041.6494
 -13958816.55444 -10876984.53644  22718343.6844   22718344.7404
   8952894.42144   6976278.74344  22334953.7234   22334954.1414
 -18388576.97944 -14328753.84944  20798254.8484   20798254.1674
  -7713533.90344  -6010545.27344  20965510.8724   20965511.5074
 96  4  3  2 47  0.0000000  0  7G16G23G24G17G 5G 6G20
   1098431.83644    855922.64844  21261756.9574   21261757.2654
  -1390896.92144  -1083812.83644  24718098.8734   24718102.9554
  18737105.88544  14600342.69244  24036840.2004   24036840.5294
 -14026450.51144 -10929686.27244  22705473.2154   22705474.5424
   9049079.29044   7051227.99644  22353257.6164   22353257.8184
 -18431957.25144 -14362556.65344  20789999.7004   20789999.0984
  -7658189.18844  -5967419.53944  20976042.6454   20976043.1324
 96  4  3  2 47 30.0000000  0  7G23G24G 6G16G20G17G 5
  -1497642.99044  -1166991.43344  24697784.5344   24697787.2274
  18814860.35944  14660930.60944  24051636.5494   24051636.6554
 -18475129.30144 -14396197.20544  20781784.5494   20781783.9004
   1137416.69144    886300.46844  21269175.8214   21269176.0004
  -7602340.87244  -5923901.38644  20986670.0274   20986670.6224
 -14093918.14544 -10982258.43144  22692634.7164   22692635.1514
   9145491.99144   7126354.78544  22371603.9154   22371604.4504
 96  4  3  2 48  0.0000000  0  7G23G 6G24G16G20G17G 5
  -1604330.25944  -1250124.12844  24677482.0994   24677488.5404
 -18518063.62444 -14429652.51544  20773614.3244   20773613.7264
  18892603.32044  14721509.52244  24066429.5844   24066430.1254
   1176955.84644    917110.21044  21276699.5384   21276699.9984
  -7545967.06544  -5879973.75944  20997397.6434   20997398.3104
 -14161193.12844 -11034680.47344  22679833.2154   22679833.6064
   9242139.18544   7201664.26844  22389995.2604   22389996.1524
 96  4  3  2 48 30.0000000  0  7G23G 6G24G16G20G17G 5
  -1710971.66544  -1333221.10344  24657188.1924   24657196.3834
 -18560739.00144 -14462906.04544  20765493.3204   20765492.6044
  18970329.98744  14782075.79544  24081221.9174   24081222.0224
   1217028.16244    948335.39644  21284324.9064   21284325.1934
  -7489062.15844  -5835632.28644  21008226.4374   21008227.1874
 -14228270.75244 -11086948.71244  22667068.4964   22667069.3204
   9339005.91844   7277144.84544  22408428.4754   22408429.0354
 96  4  3  2 49  0.0000000  0  7G23G 6G24G16G20G17G 5
  -1817540.13344  -1416261.25344  24636908.5204   24636914.5644
 -18603142.60044 -14495947.80944  20757424.1164   20757423.4774
  19048053.54044  14842639.60044  24096011.7344   24096009.3524
   1257645.46044    979985.24944  21292054.1564   21292054.4694
  -7431615.07944  -5790868.34444  21019158.2524   21019159.1244
 -14295110.76644 -11139031.81144  22654349.5004   22654350.1014
   9436114.32044   7352813.72844  22426907.6984   22426908.7334
 96  4  3  2 49 30.0000000  0  7G23G 6G24G16G20G17G 5
  -1924033.35544  -1499242.77844  24616645.4574   24616650.4954
 -18645279.49444 -14528781.74144  20749405.9324   20749405.4174
  19125758.81944  14903189.17544  24110799.3004   24110799.0504
   1298799.52844   1012053.36844  21299885.8994   21299886.2244
  -7373625.57344  -5745681.73044  21030193.3914   21030193.9984
 -14361702.68744 -11190921.59544  22641676.7914   22641677.5794
   9533473.69944   7428678.15944  22445434.7714   22445435.5634
 96  4  3  2 50  0.0000000  0  7G23G 6G24G16G20G17G 5
  -2030465.94344  -1582177.11944  24596391.2044   24596394.6324
 -18687135.70644 -14561396.96844  20741441.0854   20741440.0594
  19203431.09744  14963713.01344  24125579.4034   24125580.2964
   1340484.99244   1044535.55244  21307817.9704   21307817.9644
  -7315119.71944  -5700092.76944  21041326.3554   21041326.9874
 -14428033.44144 -11242607.87244  22629054.6294   22629054.9394
   9631099.62944   7504750.30444  22464012.0834   22464012.7184
 96  4  3  2 50 30.0000000  0  7G23G 6G24G16G20G17G 5
  -2136847.02544  -1665071.29244  24576147.3674   24576150.4604
 -18728729.81844 -14593807.95944  20733525.9354   20733525.1214
  19281064.74744  15024206.76244  24140353.0734   24140352.5744
   1382699.57344   1077430.04444  21315851.3394   21315851.1944
  -7256120.43444  -5654119.32144  21052553.8004   21052554.4554
 -14494129.12544 -11294110.97144  22616476.8864   22616477.4414
   9728998.06244   7581034.80744  22482641.6654   22482642.0884
 96  4  3  2 51  0.0000000  0  7G23G 6G24G16G20G17G 5
  -2243184.17444  -1747931.22644  24555912.8844   24555917.7914
 -18770085.33444 -14626033.02544  20725656.0824   20725655.5704
  19358643.20344  15084657.52744  24155114.1444   24155115.1394
   1425429.32044   1110725.95544  21323982.3744   21323982.5884
  -7196652.23644  -5607780.48544  21063870.2304   21063870.6864
 -14559998.44844 -11345437.68644  22603942.1934   22603942.6984
   9827172.04744   7657533.99944  22501323.5704   22501323.7254
 96  4  3  2 51 30.0000000  0  7G23G 6G24G16G20G17G 5
  -2349460.38944  -1830743.70044  24535689.2564   24535691.4404
 -18811183.94444 -14658057.90044  20717835.1664   20717834.5334
  19436200.55644  15145091.83844  24169872.4954   24169875.0184
   1468681.80744   1144429.20444  21332213.1674   21332213.1274
  -7136694.06344  -5561059.84744  21075280.0194   21075280.6674
 -14625630.49144 -11396579.50644  22591452.8674   22591453.1874
   9925631.41244   7734255.57444  22520059.8044   22520059.6874
 96  4  3  2 52  0.0000000  0  7G23G 6G24G16G20G17G 5
  -2455671.70844  -1913505.67544  24515477.1704   24515480.3794
 -18852023.71444 -14689881.09044  20710064.0174   20710063.3984
  19513748.20244  15205518.56444  24184630.6884   24184632.5284
   1512454.90044   1178538.11944  21340542.9084   21340543.2834
  -7076250.64844  -5513961.10044  21086781.7614   21086782.3394
 -14691038.49844 -11447546.75444  22579005.7134   22579005.8964
  10024369.95144   7811194.69944  22538848.9294   22538849.4784
 96  4  3  2 52 30.0000000  0  7G23G 6G24G16G20G17G 5
  -2561808.27744  -1996209.36544  24495279.2684   24495283.9804
 -18892627.59644 -14721520.47444  20702337.0404   20702336.4264
  19591290.72444  15265941.26844  24199385.4994   24199387.2014
   1556740.74844   1213046.58244  21348970.4274   21348970.5724
  -7015326.11844  -5466487.45744  21098375.3094   21098376.3004
 -14756236.36344 -11498350.25344  22566599.1644   22566599.2504
  10123364.97644   7888333.68344  22557686.8794   22557687.4804
 96  4  3  2 53  0.0000000  0  7G23G 6G24G16G20G17G 5
  -2667866.05744  -2078851.63444  24475098.8394   24475102.0374
 -18932975.65844 -14752960.51544  20694658.9974   20694658.7924
  19668842.51344  15326371.22244  24214142.9874   24214143.0164
   1601554.58144   1247966.46244  21357497.8744   21357498.1774
  -6953907.89544  -5418629.12344  21110062.9764   21110063.6574
 -14821201.84044 -11548972.68244  22554236.7724   22554237.6904
  10222611.61244   7965668.73144  22576573.0624   22576573.6504
 96  4  3  2 53 30.0000000  0  7G23G 6G24G16G20G17G 5
  -2773834.15844  -2161424.05744  24454933.3444   24454937.5904
 -18973050.08744 -14784187.32944  20687033.0954   20687032.4614
  19746410.09044  15386813.50844  24228904.0174   24228901.8284
   1646918.22044   1283314.76544  21366130.3194   21366130.2474
  -6891991.22844  -5370382.38544  21121845.2924   21121845.8714
 -14885941.67444 -11599419.27644  22541917.0604   22541917.5484
  10322091.77244   8043185.72444  22595503.8214   22595504.3554
 96  4  3  2 54  0.0000000  0  7G23G 6G24G16G20G17G 5
  -2879733.03044  -2243942.51344  24434780.5694   24434783.3464
 -19012862.19644 -14815209.74244  20679456.9894   20679456.3994
  19823954.29544  15447237.52544  24243661.0874   24243658.8814
   1692823.35944   1319085.00844  21374865.8874   21374865.9634
  -6829611.31944  -5321774.67644  21133715.6174   21133716.3694
 -14950480.81244 -11649709.48844  22529635.5644   22529636.6394
  10421767.35944   8120854.99244  22614470.7434   22614471.7974
 96  4  3  2 54 30.0000000  0  7G23G 6G24G16G20G17G 5
  -2985572.81844  -2326414.94344  24414639.5854   24414644.3474
 -19052419.13544 -14846033.32744  20671929.7694   20671929.1524
  19901458.87944  15507630.72544  24258409.9664   24258410.3004
   1739258.24644   1355268.04344  21383702.1804   21383702.3734
  -6766777.00644  -5272812.88944  21145673.2224   21145673.7804
 -15014818.04844 -11699842.37744  22517392.3854   22517392.7834
  10521617.51744   8198660.31044  22633471.7124   22633471.9104
 96  4  3  2 55  0.0000000  0  7G23G 6G24G16G20G17G 5
  -3091339.28344  -2408830.20244  24394513.7114   24394517.0344
 -19091703.13544 -14876644.22744  20664453.9524   20664453.7044
  19978911.02444  15567983.05144  24273148.8524   24273149.9174
   1786222.89744   1391863.88344  21392638.9454   21392639.3844
  -6703474.87244  -5223486.56744  21157718.8214   21157719.4054
 -15078944.86044 -11749811.28844  22505189.5244   22505190.1234
  10621650.19444   8276607.84944  22652507.6224   22652508.3154
 96  4  3  2 55 30.0000000  0  7G23G 6G24G16G20G17G 5
  -3197005.50644  -2491167.37844  24374404.9114   24374407.9484
 -19130721.94844 -14907048.48744  20657029.2304   20657028.8934
  20056300.77244  15628286.79944  24287875.7454   24287876.2414
   1833705.74344   1428863.51044  21401674.6014   21401674.9614
  -6639705.58844  -5173796.22944  21169853.8564   21169854.5604
 -15142857.32044 -11799613.18244  22493028.1184   22493028.3614
  10721861.98344   8354694.94444  22671577.2714   22671578.2474
 96  4  3  2 56  0.0000000  0  7G23G 6G24G16G20G17G 5
  -3302551.83044  -2573411.16044  24354320.6314   24354322.8674
 -19169472.23744 -14937243.51044  20649655.1364   20649654.4714
  20133638.29244  15688549.82244  24302592.3624   24302590.7244
   1881701.53244   1466262.83444  21410807.9134   21410808.2324
  -6575456.36444  -5123731.91044  21182080.2544   21182081.1454
 -15206525.91844 -11849225.05044  22480912.0154   22480912.6454
  10822293.33444   8432953.14244  22690689.3714   22690689.4784
 96  4  3  2 56 30.0000000  0  7G23G 6G24G16G20G17G 5
  -3407973.70344  -2655557.94844  24334260.6544   24334263.9724
 -19207961.38144 -14967235.05144  20642331.1724   20642330.1394
  20210926.59544  15748774.44444  24317299.2034   24317298.8944
   1930197.00644   1504051.52344  21420036.6344   21420036.7864
  -6510726.91344  -5073293.38844  21194397.7304   21194398.2794
 -15269951.79144 -11898647.78044  22468841.9064   22468842.4664
  10922961.99744   8511396.26744  22709846.1274   22709846.4004
 96  4  3  2 57  0.0000000  0  7G23G 6G24G16G20G17G 5
  -3513273.91944  -2737609.92744  24314222.1744   24314224.7904
 -19246202.42844 -14997033.27044  20635053.8714   20635053.2244
  20288164.54144  15808959.84044  24331996.7204   24331998.1314
   1979189.40644   1542227.42544  21429359.3164   21429359.5184
  -6445537.74244  -5022496.64544  21206802.9184   21206803.2864
 -15333154.18944 -11947896.37844  22456815.3444   22456815.8734
  11023859.76844   8590017.91044  22729045.5804   22729045.9924
 96  4  3  2 57 30.0000000  0  7G23G 6G24G16G20G17G 5
  -3618471.17844  -2819581.73544  24294202.9534   24294205.5634
 -19284185.93944 -15026630.80544  20627826.0434   20627825.6714
  20365377.70344  15869125.92744  24346688.6224   24346690.4024
   2028681.31844   1580792.54844  21438777.1504   21438777.5134
  -6379895.51144  -4971346.86344  21219294.2564   21219294.6414
 -15396136.23344 -11996973.26144  22444830.2174   22444831.2214
  11124983.60944   8668815.69144  22748289.1954   22748289.8074
 96  4  3  2 58  0.0000000  0  7G23G 6G24G16G20G17G 5
  -3723576.55044  -2901481.93544  24274202.0474   24274205.2114
 -19321892.72844 -15056012.71544  20620650.7634   20620650.2724
  20442592.36244  15929293.18544  24361381.6184   24361384.9084
   2078685.62644   1619756.94844  21448292.9284   21448293.0884
  -6313785.10544  -4919832.27244  21231874.6524   21231875.1344
 -15458895.81544 -12045876.80944  22432887.1094   22432887.5804
  11226342.93244   8747796.98044  22767577.3444   22767577.7674
 96  4  3  2 58 30.0000000  0  7G23G 6G24G16G20G17G 5
  -3828602.83344  -2983320.48744  24254215.8044   24254219.3184
 -19359335.85244 -15085189.17044  20613525.1454   20613524.5654
  20519809.31844  15989462.20644  24376076.5984   24376078.8194
   2129189.45644   1659110.58844  21457903.7654   21457903.8134
  -6247215.39644  -4867959.78044  21244542.1774   21244542.9814
 -15521459.98544 -12094628.09644  22420981.9684   22420982.5614
  11327893.31444   8826927.14744  22786901.7374   22786901.9274
 96  4  3  2 59  0.0000000  0  7G23G 6G24G16G20G17G 5
  -3933569.63944  -3065112.67244  24234240.9514   24234244.1204
 -19396534.16044 -15114174.85944  20606446.8454   20606446.0034
  20597000.23744  16049610.95044  24390766.6874   24390766.3904
   2180175.74944   1698840.16844  21467605.7124   21467606.0414
  -6180195.14144  -4815736.20644  21257295.8124   21257296.7094
 -15583844.12044 -12143239.09144  22409110.4834   22409111.0374
  11429593.10344   8906173.73944  22806254.3864   22806254.9114
 96  4  3  2 59 30.0000000  0  7G23G 6G24G16G20G17G 5
  -4038470.54644  -3146853.55644  24214279.5464   24214282.6134
 -19433467.00044 -15142953.69044  20599418.5504   20599418.1634
  20674155.65844  16109732.01944  24405448.5924   24405449.6754
   2231642.96844   1738944.49844  21477399.6474   21477399.4994
  -6112702.67944  -4763144.68444  21270139.3194   21270140.0854
 -15646027.51544 -12191693.67444  22397277.3874   22397277.9624
  11531450.06444   8985542.79444  22825636.8434   22825637.2544
 96  4  3  3  0  0.0000000  0  7G23G 6G24G16G20G17G 5
  -4143273.17544  -3228517.85144  24194335.2524   24194337.7864
 -19470133.87644 -15171525.27744  20592441.3574   20592440.7534
  20751265.81244  16169817.87244  24420124.3954   24420124.1564
   2283597.47344   1779428.53644  21487286.3364   21487286.3644
  -6044747.22444  -4710192.38544  21283070.7894   21283071.3274
 -15708004.04244 -12239987.05444  22385483.4044   22385484.0164
  11633466.02444   9065035.73644  22845050.0114   22845050.4364
 96  4  3  3  0 30.0000000  0  7G23G 6G24G16G20G17G 5
  -4247958.03544  -3310090.32244  24174414.2894   24174417.4184
 -19506508.50744 -15199869.13944  20585519.6044   20585518.7874
  20828326.24144  16229865.00144  24434787.5324   24434785.2354
   2336048.79644   1820299.69344  21497267.8334   21497268.2414
  -5976329.36644  -4656879.77244  21296090.6444   21296091.0904
 -15769760.40944 -12288108.87644  22373731.8704   22373732.5994
  11735657.28244   9144665.29244  22864496.5634   22864497.1904
 96  4  3  3  1  0.0000000  0  7G23G 6G24G16G20G17G 5
  -4352526.62844  -3391572.26044  24154516.9304   24154517.5764
 -19542570.36844 -15227969.27744  20578656.7844   20578656.1934
  20905323.00244  16289862.55144  24449438.9184   24449436.7184
   2388991.54444   1861553.79044  21507342.2644   21507342.4884
  -5907461.57244  -4603216.55444  21309195.2694   21309195.6394
 -15831293.92144 -12336057.04744  22362022.7124   22362022.9644
  11838035.80744   9224440.76144  22883977.9574   22883979.0884
 96  4  3  3  1 30.0000000  0  7G23G 6G24G16G20G17G 5
  -4456967.95144  -3472955.02544  24134642.7524   24134643.6014
 -19578302.64844 -15255812.59744  20571857.2324   20571856.7084
  20982276.97544  16349826.72044  24464082.7214   24464084.6344
   2442429.63144   1903193.86044  21517511.0804   21517511.3094
  -5838157.30744  -4549213.23244  21322383.6084   21322384.3584
 -15892608.55044 -12383834.65444  22350354.5894   22350355.0064
  11940622.97944   9304378.80244  22903499.7694   22903500.7604
 96  4  3  3  2  0.0000000  0  7G23G 6G24G16G20G17G 5
  -4561261.58344  -3554222.66944  24114795.9904   24114799.7744
 -19613704.59344 -15283398.52344  20565120.7244   20565119.6664
  21059208.40544  16409773.29244  24478721.8054   24478722.4744
   2496369.56444   1945224.97844  21527775.4484   21527775.2884
  -5768408.74544  -4494863.70644  21335656.1484   21335657.1814
 -15953690.23944 -12431430.76444  22338730.9144   22338731.6394
  12043431.64244   9384489.44944  22923063.2554   22923063.8434
 96  4  3  3  2 30.0000000  0  7G23G 6G24G16G20G17G 5
  -4665427.92744  -3635391.13344  24094972.6784   24094975.8024
 -19648791.02744 -15310738.60044  20558443.9024   20558443.3344
  21136099.12444  16469688.05444  24493352.3754   24493353.0804
   2550791.67244   1987631.81844  21538131.8014   21538131.5564
  -5698208.63244  -4440162.32244  21349014.1714   21349015.3094
 -16014539.54544 -12478845.78144  22327151.6324   22327152.2404
  12146451.70844   9464764.82844  22942667.6494   22942668.2614
 96  4  3  3  3  0.0000000  0  7G23G 6G24G16G20G17G 5
  -4769469.29544  -3716462.22944  24075173.3054   24075174.8984
 -19683585.46944 -15337851.15044  20551822.6504   20551822.0944
  21212952.39744  16529573.70644  24507976.5944   24507980.8254
   2605685.72144   2030406.40544  21548577.5774   21548577.9994
  -5627565.13644  -4385115.45244  21362457.5144   21362458.5854
 -16075164.04844 -12526085.62744  22315615.4174   22315615.5734
  12249662.93044   9545189.14444  22962308.2764   22962308.1974
 96  4  3  3  3 30.0000000  0  7G23G 6G24G16G20G17G 5
  -4873367.08144  -3797421.44644  24055403.2364   24055406.2294
 -19718093.19244 -15364740.27844  20545256.0124   20545255.3274
  21289793.60244  16589449.91444  24522601.9694   24522605.0764
   2661072.42444   2073564.88544  21559117.5304   21559117.4994
  -5556456.32044  -4329705.99544  21375989.5404   21375990.2374
 -16135528.87344 -12573123.13744  22304128.0954   22304129.0114
  12353081.37444   9625774.94244  22981988.4154   22981988.8554
 96  4  3  3  4  0.0000000  0  7G23G 6G24G16G20G17G 5
  -4977169.87544  -3878306.63844  24035650.6584   24035652.5684
 -19752367.66944 -15391447.66144  20538733.7814   20538732.8954
  21366576.37744  16649280.63344  24537212.0764   24537214.2404
   2716903.31644   2117069.48444  21569741.6194   21569741.8734
  -5484920.14044  -4273963.52544  21389602.6574   21389602.9024
 -16195669.44044 -12619985.89544  22292683.6174   22292683.3754
  12456651.01044   9706478.54644  23001696.5974   23001696.9184
 96  4  3  3  4 30.0000000  0  8G23G 6G24G16G20G17G26G 5
  -5080870.86144  -3959112.50744  24015917.1514   24015919.7174
 -19786378.91444 -15417949.92844  20532261.7674   20532260.9714
  21443326.44644  16709085.82244  24551818.5154   24551818.0604
   2773205.27844   2160941.14244  21580455.4134   21580455.0934
  -5412960.31944  -4217890.93844  21403296.2224   21403296.2174
 -16255585.47744 -12666673.69444  22281282.1904   22281281.9084
        -0.44854                  24068310.0754
  12560382.10044   9787307.97344  23021436.6564   23021436.5014
 96  4  3  3  5  0.0000000  0  8G23G 6G24G16G20G17G26G 5
  -5184461.08044  -4039832.09444  23996204.3174   23996204.1564
 -19820111.86944 -15444235.34144  20525842.6694   20525841.7414
  21520066.00544  16768882.87544  24566421.4364   24566421.3144
   2829989.03744   2205188.23044  21591261.5414   21591261.4244
  -5340590.24644  -4161498.68444  21417067.6384   21417067.7094
 -16315283.77544 -12713191.82444  22269922.3274   22269922.5294
    -78942.12744                  24053287.9184
  12664277.63144   9868265.54144  23041206.8394   23041207.0724
 96  4  3  3  5 30.0000000  0  8G23G 6G24G16G20G17G26G 5
  -5287940.66444  -4120465.45144  23976512.2804   23976513.5104
 -19853566.78844 -15470304.09944  20519476.2874   20519475.4984
  21596782.42944  16828661.90944  24581020.5514   24581018.7234
   2887255.90544   2249811.77144  21602158.8814   21602159.0744
  -5267816.29244  -4104791.71344  21430915.8944   21430915.7464
 -16374773.54044 -12759547.46144  22258601.7044   22258602.2534
   -157784.33444                  24038284.5184
  12768331.89244   9949346.77944  23061007.7954   23061007.5834
 96  4  3  3  6  0.0000000  0  7G23G 6G24G16G20G17G 5
  -5391301.78144  -4201006.48844  23956842.8254   23956845.2224
 -19886727.11544 -15496143.31344  20513165.8704   20513165.0724
  21673471.99644  16888420.08844  24595612.7534   24595611.2234
   2945006.08544   2294811.91144  21613148.0424   21613148.1284
  -5194654.32144  -4047782.39144  21444838.0404   21444838.5274
 -16434083.04644 -12805762.64344  22247315.0074   22247315.3374
  12872529.56844  10030539.77044  23080836.1394   23080836.5584
 96  4  3  3  6 30.0000000  0  8G23G 6G24G16G20G17G26G 5
  -5494517.57444  -4281434.31544  23937201.6334   23937202.3884
 -19919572.79844 -15521737.35044  20506915.8174   20506914.9774
  21750139.86844  16948161.31744  24610202.9574   24610203.5014
   3003255.39444   2340200.98944  21624232.6344   21624232.6064
  -5121098.25344  -3990465.98644  21458835.2524   21458835.8874
 -16493202.18544 -12851829.48244  22236065.6634   22236065.2804
        -0.47254                  24008333.6194
  12976876.14944  10111848.79344  23100692.4604   23100693.3134
 96  4  3  3  7  0.0000000  0  6G23G 6G24G20G17G 5
  -5597563.14744  -4361729.50244  23917593.5324   23917595.2594
 -19952096.03744 -15547080.12544  20500726.9894   20500726.1814
  21826785.71144  17007885.31244  24624787.5564
  -5047119.73044  -3932820.40144  21472912.7964   21472913.7124
 -16552112.24544 -12897733.40344  22224855.3434   22224855.4504
  13081377.07844  10193278.08844  23120578.9694   23120579.4564
 96  4  3  3  7 30.0000000  0  5G23G20G17G 6G 5
  -5700451.29344  -4441902.02444  23898013.8774   23898016.9404
  -4972719.45344  -3874846.17444  21487070.8344   21487071.9564
 -16610817.16544 -12943477.48244  22213683.8704   22213684.5474
 -19984302.79744 -15572176.29744  20494598.2204   20494597.5944
  13186008.34544  10274808.95644  23140488.9884   23140489.5204
 96  4  3  3  8  0.0000000  0  6G23G 6G20G17G26G 5
  -5803089.81044  -4521880.02244  23878482.4074   23878484.4824
 -20016091.88344 -15596947.01244  20488549.0134   20488548.5194
  -4897822.44144  -3816484.87744  21501323.5744   21501324.4744
 -16669223.81744 -12988989.13444  22202569.8114   22202569.9364
        -0.06354                  23963562.2004
  13290856.77844  10356509.04144  23160441.6794   23160441.6654
 96  4  3  3  8 30.0000000  0  7G23G 6G16G20G17G26G 5
  -5905579.51444  -4601742.06144  23858979.5094   23858980.3964
 -20047547.84744 -15621458.14844  20482562.9374   20482562.4384
        -0.37754         0.54554  21669527.8814   21669528.2534
  -4822515.94444  -3757804.48944  21515653.8304   21515654.3154
 -16727409.38744 -13034328.51944  22191496.8914   22191497.5124
    -78167.20344                  23948686.7214
  13395832.78644  10438308.52944  23180417.2244   23180418.8274
 96  4  3  3  9  0.0000000  0  7G23G 6G16G20G17G26G 5
  -6008010.31244  -4681558.17744  23839487.5514   23839488.7174
 -20078731.01644 -15645756.71244  20476629.0734   20476628.4614
     60633.50344     47247.72944  21681065.9364   21681066.4234
  -4746872.39444  -3698861.46144  21530048.3464   21530048.8884
 -16785437.04144 -13079544.85844  22180454.6354   22180455.1104
   -156287.03244                  23933821.4964
  13500872.25344  10520157.45444  23200405.7934   23200406.7674
 96  4  3  3  9 30.0000000  0  7G23G 6G16G20G17G26G 5
  -6110393.32944  -4761337.10144  23820003.5324   23820005.4124
 -20109660.70544 -15669857.76444  20470743.3584   20470742.5804
    121628.42944     94776.24544  21692673.1394   21692673.1204
  -4670920.30344  -3639678.01744  21544500.6334   21544501.4744
 -16843312.04044 -13124642.24144  22169441.0354   22169441.7844
   -234372.22244                  23918963.4724
  13605961.73644  10602045.37144  23220402.8124   23220404.2234
 96  4  3  3 10  0.0000000  0  7G23G 6G16G20G17G26G 5
  -6212643.62844  -4841012.58644  23800546.9094   23800548.2804
 -20140271.19344 -15693710.09044  20464918.3414   20464917.4204
    183055.36244    142641.38944  21704362.7694   21704362.8674
  -4594583.27044  -3580194.62344  21559027.6224   21559028.5574
 -16900954.38544 -13169558.34444  22158472.1664   22158472.3424
   -312355.50444                  23904123.7374
  13711193.78744  10684044.36844  23240427.9894   23240430.0134
 96  4  3  3 10 30.0000000  0  7G23G 6G16G20G17G26G 5
  -6314752.06744  -4920577.51744  23781115.3224   23781116.4904
 -20170570.19444 -15717319.69644  20459152.6574   20459151.6694
    244937.25444    190861.05144  21716138.1444   21716137.8884
  -4517827.37844  -3520384.84444  21573633.8004   21573634.4734
 -16958348.88444 -13214281.32044  22147550.5474   22147550.7714
   -390226.77044                  23889303.3754
  13816584.44644  10766166.95744  23260483.1604   23260483.7304
 96  4  3  3 11  0.0000000  0  7G23G 6G16G20G17G26G 5
  -6416712.07344  -5000026.80544  23761714.3024   23761715.4374
 -20200592.88244 -15740713.99344  20453439.3944   20453438.7744
    307257.54044    239422.30844  21727997.2724   21727996.9754
  -4440659.29844  -3460253.87544  21588318.6624   21588319.1884
 -17015509.52744 -13258822.07844  22136673.2104   22136673.7634
   -467976.84344                  23874508.1504
  13922123.30744  10848405.03444  23280567.1194   23280567.5414
 96  4  3  3 11 30.0000000  0  7G23G 6G16G20G17G26G 5
  -6518483.17844  -5079328.90444  23742346.7404   23742347.6804
 -20230337.42844 -15763891.55144  20447779.2554   20447778.2294
    370015.07344    288324.28644  21739939.6484   21739939.7114
  -4363065.37744  -3399791.08144  21603084.3404   21603084.7584
 -17072439.68844 -13303183.21844  22125840.0724   22125840.5414
   -545601.86844                  23859739.0134
  14027811.20544  10930759.26244  23300679.2164   23300679.6774
 96  4  3  3 12  0.0000000  0  7G23G 6G16G20G17G26G 5
  -6620088.62144  -5158501.89344  23723011.8714   23723012.7414
 -20259807.88344 -15786855.53844  20442171.2004   20442170.3694
    433203.99544    337562.40944  21751964.2134   21751964.0574
  -4285062.04744  -3339009.28244  21617927.8704   21617928.4854
 -17129159.47944 -13347380.44644  22115046.7614   22115046.9094
   -623117.15844                  23844989.0284
  14133628.55544  11013214.35744  23320815.8404   23320816.7854
 96  4  3  3 12 30.0000000  0  7G23G 6G16G20G17G26G 5
  -6721532.46344  -5237548.96644  23703707.8614   23703708.9954
 -20288981.96544 -15809588.58244  20436619.4824   20436618.9924
    496813.86544    387128.54944  21764068.6004   21764068.8094
  -4206669.39444  -3277924.10944  21632845.3434   21632845.8664
 -17185675.91644 -13391419.21544  22104292.4514   22104292.5784
   -700511.82244                  23830258.0214
  14239558.66144  11095757.29944  23340972.7984   23340973.3724
 96  4  3  3 13  0.0000000  0  7G23G 6G16G20G17G26G 5
  -6822803.81744  -5316461.65244  23684437.5804   23684437.7004
 -20317828.42544 -15832066.34044  20431130.0954   20431129.4744
    560844.19344    437022.31644  21776253.0574   21776253.0614
  -4127895.61244  -3216541.95144  21647835.6534   21647836.4754
 -17241975.32844 -13435288.87844  22093578.3594   22093579.0244
   -777768.08444                  23815556.7644
  14345596.66844  11178384.30344  23361151.5384   23361151.9114
 96  4  3  3 13 30.0000000  0  7G23G 6G16G20G17G26G 5
  -6923916.73544  -5395250.87444  23665195.3204   23665196.2674
 -20346324.60444 -15854271.15444  20425707.6594   20425707.0244
    625304.31044    487250.97544  21788519.0464   21788519.4704
  -4048751.63244  -3154871.31844  21662896.1384   21662896.7234
 -17298058.33144 -13478989.90344  22082906.5974   22082906.8964
   -854901.93844                  23800878.8134
  14451731.21944  11261086.55644  23381347.4444   23381348.5644
 96  4  3  3 14  0.0000000  0  7G23G 6G16G20G17G26G 5
  -7024894.50544  -5473934.76944  23645980.1834   23645982.6194
 -20374461.98144 -15876196.37744  20420353.3204   20420352.7814
    690212.11544    537828.48544  21800870.8824   21800870.8174
  -3969239.22144  -3092913.58344  21678026.7214   21678027.0974
 -17353931.20844 -13522527.18844  22072274.2674   22072274.7144
   -931911.11944                  23786223.9384
  14557962.84844  11343864.43344  23401562.8414   23401562.4194
 96  4  3  3 14 30.0000000  0  7G23G 6G16G20G17G26G 5
  -7125708.50744  -5552491.07644  23626795.5114   23626797.4344
 -20402219.57744 -15897825.66844  20415071.3034   20415070.3514
    755573.39244    588759.35244  21813308.9924   21813308.7754
  -3889339.66544  -3030654.17744  21693231.1074   21693231.9254
 -17409591.99744 -13565899.22044  22061681.6144   22061682.1764
  -1008774.16144                  23771597.2704
  14664303.86444  11426727.57944  23421798.6414   23421798.9574
 96  4  3  3 15  0.0000000  0  7G23G 6G16G20G17G26G 5
  -7226351.73744  -5630914.30044  23607644.1614   23607645.9054
 -20429607.50644 -15919166.90844  20409859.4194   20409858.9164
    821401.28744    640053.82544  21825835.2724   21825835.3374
  -3809049.24944  -2968090.21044  21708510.2974   21708511.0184
 -17465046.70844 -13609110.66744  22051128.8754   22051129.6014
  -1085501.27144                  23756996.6784
  14770747.79244  11509670.91244  23442054.9084   23442055.8144
 96  4  3  3 15 30.0000000  0  7G23G 6G16G20G17G26G 5
  -7326821.67944  -5709202.48844  23588524.1914   23588525.9104
 -20456632.90344 -15940225.65744  20404716.7704   20404715.9724
    887696.48744    691712.42444  21838450.9084   21838451.6184
  -3728382.55644  -2905233.04844  21723860.4804   21723861.1564
 -17520310.91844 -13652173.67244  22040612.8784   22040613.0154
  -1162098.15844                  23742419.7974
  14877300.53744  11592699.04744  23462331.6774   23462332.0574
 96  4  3  3 16  0.0000000  0  7G23G 6G16G20G17G26G 5
  -7427096.04544  -5787338.29744  23569442.9684   23569445.3234
 -20483290.72144 -15960997.98344  20399643.9874   20399643.2304
    954449.77844    743727.97644  21851154.1574   21851154.0524
  -3647334.46944  -2842078.71144  21739283.5714   21739284.3164
 -17575373.64944 -13695079.68244  22030134.5154   22030134.9984
  -1238542.84144                  23727873.6104
  14983976.90744  11675823.51544  23482630.9274   23482632.0864
 96  4  3  3 16 30.0000000  0  7G23G 6G16G20G17G26G 5
  -7527150.28544  -5865302.58344  23550403.3214   23550403.5104
 -20509588.25344 -15981489.56344  20394639.4614   20394638.7944
   1021639.16544    796083.34144  21863939.8284   21863939.6384
  -3565916.87744  -2778636.44644  21754776.4854   21754777.1204
 -17630201.42544 -13737802.61444  22019701.3634   22019701.5374
  -1314823.05644                  23713359.8004
  15090779.97344  11759046.68044  23502955.2744   23502954.1624
 96  4  3  3 17  0.0000000  0  7G23G 6G16G20G17G26G 5
  -7626998.88644  -5943106.62644  23531404.0444   23531405.2544
 -20535554.48144 -16001722.97844  20389698.4594   20389697.5844
   1089264.83344    848778.66844  21876807.8084   21876807.7684
  -3484138.45044  -2714913.00744  21770338.1754   21770339.1264
 -17684785.21944 -13780335.42544  22009314.7574   22009314.6474
  -1390938.45844                  23698873.5694
  15197704.51344  11842364.50244  23523301.8644   23523303.2314
 96  4  3  3 17 30.0000000  0  7G23G 6G16G20G17G26G 5
  -7726644.60444  -6020752.56844  23512440.8234   23512441.6034
 -20561197.51544 -16021704.55844  20384818.7024   20384818.0564
   1157307.85044    901799.20744  21889756.6504   21889756.4184
  -3401990.99944  -2650902.01044  21785970.5924   21785971.2014
 -17739116.42544 -13822671.41444  21998975.4024   21998975.7654
  -1466870.27444                  23684424.8754
  15304753.56944  11925779.34544  23543673.0914   23543673.0754
 96  4  3  3 18  0.0000000  0  7G23G 6G16G20G17G26G 5
  -7826091.11744  -6098243.31744  23493517.6694   23493516.1474
 -20586520.88644 -16041437.04944  20379999.8054   20379999.0064
   1225754.58244    955134.33044  21902781.2954   21902781.6544
  -3319460.30744  -2586592.37844  21801675.8554   21801676.2644
 -17793196.73944 -13864811.90444  21988684.3974   21988684.3824
  -1542622.64644  -1202043.03044  23670009.9434
  15411908.76744  12009276.92044  23564063.5724   23564064.1084
 96  4  3  3 18 30.0000000  0  8G23G 6G16G22G20G17G26G 5
  -7925356.07144  -6175592.57444  23474627.8944   23474627.3744
 -20611534.86044 -16060928.46244  20375239.7464   20375238.9394
   1294601.80544   1008781.51044  21915882.8134   21915882.3144
        -0.00254         0.69754  24875647.8634
  -3236557.55944  -2521992.82144  21817452.0974   21817452.0924
 -17847038.72544 -13906766.68744  21978438.8054   21978438.8374
  -1618198.32244                  23655627.5404
  15519155.45744  12092845.76244  23584472.2174   23584472.5214
 96  4  3  3 19  0.0000000  0  8G23G 6G16G22G20G17G26G 5
  -8024487.47444  -6252837.76944  23455764.0544   23455763.7304
 -20636257.00644 -16080192.47244  20370535.5054   20370534.4844
   1363825.80544   1062722.29044  21929055.6424   21929055.1214
    -81989.49244                  24860045.4904
  -3153306.47044  -2457121.83744  21833294.2414   21833294.0694
 -17900700.59344 -13948581.11644  21968227.1614   21968227.2484
  -1693623.03744                  23641274.8424
  15626454.26744  12176455.25644  23604890.3734   23604890.4414
 96  4  3  3 19 30.0000000  0  7G23G 6G16G20G17G26G 5
  -8123473.81844  -6329969.91644  23436926.9144   23436927.7474
 -20660663.82944 -16099210.77844  20365890.7844   20365890.0804
   1433414.04244   1116946.89344  21942297.3204   21942297.3854
  -3069716.22444  -2391986.58444  21849200.8844   21849201.1804
 -17954184.60944 -13990256.95444  21958049.4494   21958049.8384
  -1768894.92644                  23626950.8464
  15733798.77244  12260100.33344  23625317.5664   23625317.3234
 96  4  3  3 20  0.0000000  0  7G23G 6G16G20G17G26G 5
  -8222288.16644  -6406968.05844  23418122.2664   23418124.1244
 -20684727.18344 -16117961.44244  20361311.7064   20361310.9744
   1503386.61144   1171470.97344  21955612.8634   21955612.9304
  -2985787.77144  -2326587.79044  21865171.6574   21865172.0724
 -18007474.29344 -14031781.37044  21947909.1494   21947908.7934
  -1843996.07544  -1436879.37544  23612659.9264
  15841211.63744  12343798.67844  23645757.4524   23645758.2614
 96  4  3  3 20 30.0000000  0  8G23G 6G16G22G20G17G26G 5
  -8320895.27644  -6483804.70744  23399358.6234   23399360.2034
 -20708414.69644 -16136419.24644  20356804.1684   20356803.4134
   1573780.70044   1226323.51244  21969008.7014   21969009.0704
        -0.42254                  24813591.1014
  -2901508.15544  -2260915.36544  21881209.6864   21881210.9984
 -18060526.97444 -14073121.10944  21937813.0464   21937813.4984
  -1918886.95944  -1495235.86444  23598409.2694
  15948735.96344  12427583.88544  23666218.4294   23666216.8374
 96  4  3  3 21  0.0000000  0  8G23G 6G16G22G20G17G26G 5
  -8419288.62844  -6560474.80144  23380635.1714   23380636.0334
 -20731733.11144 -16154589.44444  20352366.8414   20352366.2944
   1644585.96444   1281496.44644  21982482.7014   21982482.5584
    -80658.52544                  24798244.5534
  -2816884.29344  -2194974.69144  21897312.3584   21897313.4364
 -18113347.14144 -14114279.66644  21927761.4374   21927761.7784
  -1993580.37844  -1553438.53644  23584195.7624
  16056356.92444  12511444.39744  23686697.7644   23686698.1134
 96  4  3  3 21 30.0000000  0  8G23G 6G16G22G20G17G26G 5
  -8517483.80944  -6636990.47544  23361949.2184   23361950.0234
 -20754715.05744 -16172497.45344  20347993.4354   20347992.9204
   1715755.95244   1336953.58744  21996025.2394   21996025.0974
   -160997.81044                  24782954.0004
  -2731961.25444  -2128800.89144  21913473.4554   21913474.2444
 -18165962.21344 -14155278.41544  21917749.3384   21917749.5804
  -2068117.62244  -1611519.45044  23570010.2184
  16164039.44944  12595352.84944  23707189.0864   23707190.2074
 96  4  3  3 22  0.0000000  0  8G23G 6G16G22G20G17G26G 5
  -8615477.08344  -6713348.83244  23343300.8154   23343301.3134
 -20777348.11844 -16190133.60644  20343686.5204   20343685.8614
   1787310.43144   1392710.32244  22009641.8304   22009642.0454
   -241025.77444   -187811.44144  24767726.9214   24767723.7444
  -2646725.88644  -2062383.72644  21929692.8344   21929693.9564
 -18218362.03344 -14196109.42644  21907778.0114   21907778.5224
  -2142484.97944  -1669468.02144  23555858.9434   23555857.3214
  16271792.98744  12679316.66144  23727694.4174   23727693.6464
 96  4  3  3 22 30.0000000  0  8G23G 6G16G22G20G17G26G 5
  -8713248.39144  -6789534.21744  23324695.4494   23324697.0834
 -20799622.21944 -16207490.05044  20339448.1274   20339447.3804
   1859262.53544   1448776.88944  22023334.2114   22023334.5224
   -320736.41344   -249923.65344  24752557.2514
  -2561151.74344  -1995702.57944  21945976.8464   21945977.4734
 -18270537.48344 -14236765.61544  21897849.4524   21897850.0294
  -2216668.67444  -1727273.46044  23541741.8394   23541739.7124
  16379609.57244  12763329.60144  23748210.4634   23748211.5324
 96  4  3  3 23  0.0000000  0  8G23G 6G16G22G20G17G26G 5
  -8810818.48044  -6865562.80644  23306128.7014   23306130.1534
 -20821559.11644 -16224583.73544  20335273.6324   20335272.9754
   1931578.32444   1505126.85744  22037094.9334   22037095.4014
   -400161.21744                  24737442.8664
  -2475259.20744  -1928773.33544  21962321.6844   21962322.1994
 -18322529.79544 -14277279.09544  21887955.8484   21887955.9464
  -2290685.75344  -1784949.10944  23527657.3314   23527656.3334
  16487450.10644  12847361.20544  23768732.1904   23768732.3274
 96  4  3  3 23 30.0000000  0  8G23G 6G16G22G20G17G26G 5
  -8908186.75244  -6941434.14744  23287599.1304   23287600.9494
 -20843143.08244 -16241402.41144  20331166.1084   20331165.1084
   2004262.98944   1561764.26644  22050926.4404   22050926.2614
   -479302.98544                  24722380.9804
  -2389045.37944  -1861593.71744  21978728.0994   21978728.1034
 -18374339.80544 -14317650.51944  21878096.5714   21878096.3134
  -2364524.43844  -1842485.70744  23513606.2164   23513605.5304
  16595320.45144  12931416.02744  23789259.1864   23789260.2104
 96  4  3  3 24  0.0000000  0  8G23G 6G16G22G20G17G26G 5
  -9005339.14244  -7017137.26244  23269112.3014   23269112.2914
 -20864357.44844 -16257933.08844  20327128.9844   20327128.1744
   2077346.11344   1618712.16744  22064833.9544   22064833.7234
   -558135.64144   -434910.13544  24707378.2264   24707376.0714
  -2302481.73244  -1794141.50744  21995200.3934   21995200.2154
 -18425953.52044 -14357868.98244  21868274.4954   21868274.7694
  -2438155.32644  -1899860.41544  23499595.3444   23499592.9894
  16703232.29344  13015503.19844  23809794.5094   23809794.8644
 96  4  3  3 24 30.0000000  0  8G23G 6G16G22G20G17G26G 5
  -9102267.97844  -7092666.18144  23250668.1564   23250670.7724
 -20885193.99944 -16274169.36444  20323164.1604   20323163.1524
   2150823.13944   1675966.98744  22078816.0694   22078816.0704
   -636636.60544                  24692438.5114
  -2215575.41544  -1726422.29144  22011738.3774   22011738.3824
 -18477370.90844 -14397934.47244  21858489.8594   21858490.4304
  -2511569.99544  -1957066.59244  23485624.2264   23485625.1454
  16811188.96144  13099625.29644  23830337.4144   23830338.4864
 96  4  3  3 25  0.0000000  0  8G23G 6G16G22G20G17G26G 5
  -9198973.90344  -7168021.41344  23232265.1824   23232266.8584
 -20905622.44144 -16290087.62944  20319276.8254   20319276.0814
   2224704.20844   1733536.64444  22092875.4824   22092875.6164
   -714798.20144                  24677565.6544
  -2128326.13744  -1658435.83844  22028341.0294   22028341.1534
 -18528578.08744 -14437836.16644  21848745.5904   21848745.8544
  -2584755.56044  -2014094.30544  23471698.4304   23471695.3084
  16919216.02444  13183802.22944  23850894.6264   23850896.5884
 96  4  3  3 25 30.0000000  0  8G23G 6G16G22G20G17G26G 5
  -9295456.04844  -7243202.28844  23213906.5714   23213905.6294
 -20925642.51444 -16305687.68444  20315467.0744   20315465.8924
   2298990.51744   1791422.07444  22107011.2974   22107011.3534
   -792613.64744                  24662757.3754
  -2040747.76044  -1590192.94444  22045006.1324   22045006.9694
 -18579563.25544 -14477564.85444  21839043.7074   21839043.6104
  -2657715.10844  -2070945.85044  23457815.0054   23457814.5694
  17027318.50544  13268037.93944  23871465.8164   23871467.2854
 96  4  3  3 26  0.0000000  0  8G23G 6G16G22G20G17G26G 5
  -9391726.64944  -7318218.31644  23195585.8924   23195587.1384
 -20945280.42544 -16320989.95744  20311730.0674   20311729.1414
   2373665.85844   1849610.65944  22121221.8404   22121221.8904
   -870074.38344                  24648018.9044
  -1952870.41144  -1521717.10444  22061729.1574   22061729.9994
 -18630332.19744 -14517125.05644  21829382.7764   21829382.5424
  -2730469.31544  -2127637.42744  23443969.4764   23443968.6944
  17135492.10844  13352329.07644  23892049.9394   23892048.7314
 96  4  3  3 26 30.0000000  0  8G23G 6G16G22G20G17G26G 5
  -9487741.88444  -7393035.34144  23177314.5724   23177314.3854
 -20964504.91444 -16335970.08144  20308071.5694   20308070.8164
   2448761.22944   1908126.54244  22135511.6454   22135511.7614
   -947131.86344                  24633357.6884
  -1864672.52344  -1452991.48744  22078512.4214   22078512.8364
 -18680836.61844 -14556479.13844  21819772.1264   21819771.7694
  -2802984.53444  -2184142.75544  23430169.7614   23430167.9884
  17243787.45844  13436715.07744  23912658.8094   23912661.4024
 96  4  3  3 27  0.0000000  0  8G23G 6G16G22G20G17G26G 5
  -9583521.00544  -7467668.40144  23159089.0504   23159089.2114
 -20983344.63844 -16350650.39244  20304486.7594   20304485.6614
   2524255.96844   1966953.61244  22149878.3304   22149877.8294
  -1023808.91844                  24618762.8254
  -1776167.61744  -1384026.63044  22095354.5964   22095355.1724
 -18731091.96444 -14595639.13244  21810208.8544   21810208.8184
  -2875281.94744  -2240478.38644  23416412.6694   23416412.9214
  17352178.73344  13521175.82344  23933283.8284   23933283.3494
 96  4  3  3 27 30.0000000  0  8G23G 6G16G22G20G17G26G 5
  -9679093.00144  -7542140.05044  23140902.3514   23140901.9464
 -21001838.76844 -16365061.40744  20300967.3124   20300966.3754
   2600117.56144   2026066.53144  22164314.1674   22164314.2304
  -1100116.25844                  24604243.1144
  -1687395.09344  -1314853.24844  22112247.7884   22112248.2444
 -18781126.76144 -14634627.27344  21800687.7294   21800687.8544
  -2947384.37544  -2296662.09944  23402692.0154   23402691.7874
  17460622.63044  13605677.58744  23953920.6714   23953919.0474
 96  4  3  3 28  0.0000000  0  8G23G 6G16G22G20G17G26G 5
  -9774459.74244  -7616451.76044  23122754.1764   23122754.6414
 -21019989.75744 -16379205.03944  20297513.3574   20297512.6904
   2676336.78044   2085458.12744  22178817.6504   22178817.4454
  -1176063.33344                  24589789.6254
  -1598351.37144  -1245468.52444  22129191.9604   22129192.2984
 -18830954.16944 -14673453.81244  21791205.2374   21791205.1874
  -3019287.91444  -2352690.79644  23389008.9084   23389008.4114
  17569099.20144  13690204.76144  23974562.9544   23974564.5624
 96  4  3  3 28 30.0000000  0  8G23G 6G16G22G20G17G26G 5
  -9869616.30744  -7690599.70844  23104646.4574   23104646.6544
 -21037780.11744 -16393067.65944  20294128.1014   20294126.7504
   2752903.63744   2145120.61444  22193388.3204   22193387.9864
  -1251670.80144                  24575402.6894
  -1509032.41744  -1175869.33344  22146189.1924   22146189.7044
 -18880581.67344 -14712124.58244  21781761.4894   21781761.5434
  -3090973.51744  -2408549.68944  23375368.2144   23375366.5884
  17677582.39244  13774737.16544  23995207.2134   23995208.1514
 96  4  3  3 29  0.0000000  0  8G23G 6G16G22G20G17G26G 5
  -9964566.28144  -7764586.66244  23086577.0454   23086577.7314
 -21055200.99344 -16406642.37544  20290812.8414   20290811.8834
   2829809.73544   2205047.43744  22208022.4744   22208022.4554
  -1326948.71944                  24561079.4784
  -1419444.29344  -1106060.39744  22163236.4084   22163237.1984
 -18930022.70244 -14750650.03844  21772353.4994   21772353.8014
  -3162431.49744  -2464231.21944  23361770.0344   23361770.4074
  17786054.99044  13859261.30444  24015848.1444   24015850.6574
 96  4  3  3 29 30.0000000  0  8G23G 6G16G22G20G17G26G 5
 -10059308.31144  -7838411.59044  23068549.2014   23068550.8234
 -21072262.19444 -16419936.81944  20287566.6014   20287565.5744
   2907043.26044   2265229.40644  22222719.7684   22222719.1934
  -1401912.92544                  24546813.2344
  -1329599.79744  -1036051.70044  22180333.4984   22180334.6434
 -18979287.04044 -14789037.82244  21762978.8254   21762979.3184
  -3233665.50844  -2519738.23244  23348214.6144   23348214.0974
  17894506.28644  13943768.86144  24036485.0464
 96  4  3  3 30  0.0000000  0  8G23G 6G16G22G20G17G26G 5
 -10153816.50944  -7912054.30344  23050564.6274   23050566.7734
 -21088951.85544 -16432941.75344  20284390.4594   20284389.5474
   2984613.87944   2325674.04344  22237481.4294   22237480.9404
  -1476568.87644                  24532610.8564
  -1239475.50344   -965824.98144  22197483.6024   22197483.9764
 -19028363.71344 -14827279.37544  21753640.2704   21753640.0784
  -3304666.96444  -2575064.00944  23334703.6434   23334702.3064
  18002950.75244                  24057121.3004
 96  4  3  3 30 30.0000000  0  8G23G 6G16G22G20G17G26G 5
 -10248084.52244  -7985509.86344  23032626.1864   23032625.8264
 -21105257.73344 -16445647.63644  20281287.3704   20281286.4024
   3062528.02544   2386386.36244  22252307.9454   22252307.7124
  -1550899.86144                  24518467.1324
  -1149060.39544   -895371.65544  22214689.0684   22214689.6004
 -19077233.54944 -14865359.74844  21744340.4794   21744340.2004
  -3375427.98344  -2630202.46444  23321237.4774   23321234.8044
  18111399.51544                  24077760.2774
 96  4  3  3 31  0.0000000  0  8G23G 6G16G22G20G17G26G 5
 -10342106.40044  -8058773.63244  23014734.6544   23014735.3034
 -21121192.43944 -16458064.28744  20278255.1924   20278254.4434
   3140797.72544   2447375.74044  22267201.8684   22267201.4184
  -1624881.04544                  24504390.8664
  -1058344.66144   -824684.07544  22231951.8864   22231952.3994
 -19125883.28344 -14903268.61544  21735082.6344   21735082.4494
  -3445953.18944  -2685157.15144  23307816.8024   23307816.6274
  18219859.79044                  24098400.1444
 96  4  3  3 31 30.0000000  0  8G23G 6G16G22G20G17G26G 5
 -10435880.91844  -8131844.66044  22996889.5984   22996890.1304
 -21136758.07144 -16470193.35044  20275292.9544   20275292.2334
   3219418.61544   2508638.77544  22282163.0714   22282162.9174
  -1698513.90744  -1323516.36844  24490376.3374
   -967325.45144   -753760.01344  22249272.8024   22249273.2264
 -19174306.50944 -14941000.97644  21725867.7094   21725868.0794
  -3516251.32444  -2739934.89444  23294440.0454   23294440.9404
  18328325.29044                  24119037.7724
 96  4  3  3 32  0.0000000  0  8G23G 6G16G22G20G17G26G 5
 -10529412.14244  -8204726.10344  22979091.8744   22979091.3764
 -21151942.63144 -16482025.47344  20272403.8084   20272402.9794
   3298368.32044   2570158.01544  22297186.5784   22297187.5844
  -1771792.57844  -1380616.61144  24476433.2064
   -876019.71944   -682612.68744  22266646.9864   22266647.8374
 -19222504.53144 -14978557.86444  21716695.5774   21716696.2224
  -3586326.71544  -2794539.09244  23281104.8804   23281103.2164
  18436785.07044                  24139678.4014
 96  4  3  3 32 30.0000000  0  8G23G 6G16G22G20G17G26G 5
 -10622716.79044  -8277430.98744  22961336.7714   22961336.2554
 -21166758.42544 -16493570.24844  20269584.4034   20269583.5724
   3377624.06644   2631915.73544  22312268.6444   22312268.3234
  -1844723.69044                  24462553.8384
   -784463.20444   -611269.95444  22284069.4524   22284069.5754
 -19270491.88244 -15015950.59544  21707563.7484   21707564.1304
  -3656177.19344  -2848968.00844  23267813.2934   23267812.9034
  18545229.98344                  24160314.2494
 96  4  3  3 33  0.0000000  0  8G23G 6G16G22G20G17G26G 5
 -10715785.08444  -8349951.71344  22943626.2804   22943625.5944
 -21181193.37144 -16504818.26044  20266837.3704   20266836.4394
   3457192.19244   2693916.88044  22327409.6994   22327410.0304
  -1917302.62744                  24448742.4624
   -692655.84744   -539731.75544  22301540.5104   22301541.1274
 -19318274.41444 -15053183.71844  21698471.3844   21698471.6124
  -3725792.99844  -2903214.07744  23254565.4884   23254566.9064
  18653674.03344                  24180951.2324
 96  4  3  3 33 30.0000000  0  8G23G 6G16G22G20G17G26G 5
 -10808623.20944  -8422293.09244  22925959.6684   22925960.0874
 -21195225.39744 -16515752.31044  20264167.0574   20264166.4534
   3537068.19544   2756157.92244  22342609.4464   22342609.6384
  -1989530.06844  -1550282.25844  24434996.7684
   -600602.44844   -468001.82644  22319057.4014   22319057.3594
 -19365861.41244 -15090264.47544  21689416.3774   21689415.9434
  -3795161.80444  -2957267.67644  23241364.6324   23241363.5544
  18762129.39244                  24201589.2754
 96  4  3  3 34  0.0000000  0  7G23G 6G16G22G20G17G26
 -10901216.81444  -8494443.91544  22908338.5994   22908339.1844
 -21208841.97044 -16526362.62644  20261575.9844   20261575.0164
   3617284.50644   2818664.13444  22357874.4414   22357873.8384
  -2061378.42944  -1606267.94444  24421322.1394
   -508287.76644   -396068.28944  22336624.2964   22336624.6824
 -19413248.48044 -15127189.45044  21680398.4884   21680398.2484
  -3864250.43044  -3011102.95744  23228217.8854   23228219.5604
 96  4  3  3 34 30.0000000  0  7G23G 6G16G22G20G17G26
 -10993583.55844  -8566417.97244  22890761.7704   22890762.8214
 -21222066.56044 -16536667.50144  20259059.6444   20259058.6584
   3697861.26044   2881451.21044  22373207.7594   22373208.0094
  -2132852.48444                  24407722.7134
   -415698.68544   -323920.94344  22354243.3844   22354244.2894
 -19460469.05444 -15163984.68744  21671412.8004   21671412.8384
  -3933056.64444  -3064718.15944  23215124.8904   23215124.0794
 96  4  3  3 35  0.0000000  0  7G23G 6G16G22G20G17G26
 -11085690.14744  -8638189.32844  22873234.6624   22873236.0334
 -21234863.82744 -16546639.40044  20256624.3724   20256623.6094
   3778845.86944   2944556.09744  22388618.4564   22388618.9264
  -2203905.95544                  24394200.8864
   -322785.83844   -251521.33344  22371924.8474   22371924.7584
 -19507492.09044 -15200625.99744  21662464.6864   21662464.6744
  -4001552.66144  -3118091.65944  23202089.9624   23202090.4124
 96  4  3  3 35 30.0000000  0  7G23G 6G16G22G20G17G26
 -11177545.48844  -8709764.88644  22855754.4414   22855756.4834
 -21247248.01844 -16556289.42244  20254267.7884   20254266.6694
   3860217.69044   3007962.71044  22404103.0214   22404103.0564
  -2274552.46544                  24380758.1204
   -229578.54644   -178892.26444  22389660.7514   22389660.7684
 -19554329.73144 -15237122.83844  21653551.6234   21653551.7144
  -4069744.56144  -3171228.18244  23189113.7714   23189112.5314
 96  4  3  3 36  0.0000000  0  7G23G 6G16G22G20G17G26
 -11269150.33144  -8781145.25944  22838323.8314   22838324.4074
 -21259245.32144 -16565637.97844  20251984.6824   20251984.0604
   3941944.80944   3071646.17344  22419654.4904   22419654.6174
  -2344806.44344  -1827120.94944  24367390.6914
   -136093.40944   -106046.69744  22407450.5874   22407451.2564
 -19600986.58844 -15273478.81444  21644672.8744   21644673.4254
  -4137642.93544  -3224135.99044  23176192.8804   23176192.9774
 96  4  3  3 36 30.0000000  0  7G23G 6G16G22G20G17G26
 -11360501.05244  -8852327.62744  22820940.8834   22820940.3494
 -21270846.47944 -16574677.84544  20249776.8854   20249776.2994
   4023993.65944   3135580.33144  22435268.6444   22435269.1074
  -2414670.97744  -1881560.84644  24354094.8564
    -42353.28944    -33002.45344  22425287.9524   22425289.2944
 -19647441.61744 -15309677.52544  21635832.9504   21635833.2884
  -4205256.22044  -3276821.65944  23163326.3864   23163326.5304
 96  4  3  3 37  0.0000000  0  7G23G 6G16G22G20G17G26
 -11451591.72044  -8923307.36244  22803606.9204   22803606.6194
 -21282046.99344 -16583405.51944  20247645.8174   20247645.0284
   4106325.67744   3199735.13544  22450936.3724   22450935.9464
  -2484157.07044  -1935705.83544  24340872.3114   24340873.3454
     51611.38544     40216.75944  22443168.7484   22443170.0274
 -19693665.57844 -15345696.17844  21627036.8194   21627036.9654
  -4272596.00544  -3329294.19944  23150511.6664   23150512.6614
 96  4  3  3 37 30.0000000  0  7G23G 6G16G22G20G17G26
 -11542413.21044  -8994077.33944  22786324.2974   22786323.9314
 -21292834.19244 -16591811.13444  20245592.9354   20245592.2164
   4188930.38844   3264102.44944  22466654.6674   22466654.3644
  -2553262.14744  -1989553.95144  24327720.4024   24327719.7074
    145799.46044    113610.06144  22461092.2834   22461093.4614
 -19739645.26844 -15381524.49244  21618287.3784   21618287.4984
  -4339647.36444  -3381541.99344  23137752.4584   23137752.1054
 96  4  3  3 38  0.0000000  0  7G23G 6G16G22G20G17G26
 -11632952.81544  -9064627.67644  22769094.1524   22769094.7264
 -21303201.24344 -16599889.35744  20243620.1274   20243619.3644
   4271813.98044   3328687.05944  22482426.5164   22482426.8264
  -2621970.88444  -2043093.20544  24314645.9894   24314643.6904
    240226.94544    187189.90544  22479061.7914   22479062.6744
 -19785363.50144 -15417149.06944  21609587.0544   21609587.4074
  -4406406.27244  -3433561.91344  23125049.4204   23125049.8054
 96  4  3  3 38 30.0000000  0  7G23G 6G16G22G20G17G26
 -11723227.38344  -9134971.47044  22751915.0604   22751915.6894
 -21313159.16844 -16607648.78644  20241725.3504   20241724.4174
   4354975.43244   3393488.18544  22498252.4274   22498252.0774
  -2690307.42244                  24301641.7564
    334874.09544    260940.91744  22497072.7524   22497073.0724
 -19830848.41044 -15452591.84444  21600931.5084   21600931.9864
  -4472900.31944  -3485375.43744  23112395.6664   23112394.7704
 96  4  3  3 39  0.0000000  0  7G23G 6G16G22G20G17G26
 -11813221.58344  -9205096.79344  22734790.2994   22734791.2844
 -21322703.59244 -16615086.00344  20239908.8314   20239908.0664
   4438439.79844   3458525.35244  22514135.6144   22514135.1494
  -2758258.43144  -2149291.33944  24288711.0224   24288710.2624
    429769.22544    334885.16944  22515130.6034   22515130.5334
 -19876113.78944 -15487863.55544  21592317.7874   21592318.1574
  -4539124.35844  -3536978.56444  23099793.2954   23099793.2354
 96  4  3  3 39 30.0000000  0  7G23G 6G16G22G20G17G26
 -11902914.99544  -9274987.74444  22717722.2384   22717722.8694
 -21331826.67144 -16622194.89544  20238173.0034   20238172.0894
   4522235.06744   3523820.36344  22530081.0464   22530081.5834
  -2825787.33344  -2201911.25644  24275859.9824   24275861.3934
    524914.72544    409024.52344  22533236.3714   22533236.8064
 -19921169.65244 -15522971.99944  21583744.0604   21583744.1804
  -4605056.22144  -3588354.03444  23087247.0594   23087246.2414
 96  4  3  3 40  0.0000000  0  7G23G 6G16G22G20G17G26
 -11992303.17244  -9344640.83844  22700712.0664   22700713.2354
 -21340542.04144 -16628986.09344  20236514.3324   20236513.3344
   4606356.22744   3589369.31144  22546088.0154   22546088.4234
  -2892901.61344                  24263087.1564
    620297.73144    483348.94044  22551386.9794   22551387.2094
 -19966023.47844 -15557923.01244  21575208.8134   21575208.5674
  -4670700.03044  -3639505.05044  23074754.5504   23074754.2184
 96  4  3  3 40 30.0000000  0  7G23G 6G16G22G20G17G26
 -12081405.91344  -9414071.53644  22683756.6094   22683756.4564
 -21348850.33044 -16635460.08744  20234933.5734   20234932.7944
   4690795.67444   3655166.27644  22562156.5804   22562157.0154
  -2959604.57044  -2306184.36344  24250395.8594
    715905.29644    557848.33844  22569580.4784   22569581.3864
 -20010691.09644 -15592728.92944  21566708.4754   21566708.8104
  -4736057.40544  -3690432.86144  23062317.9044   23062317.2824
 96  4  3  3 41  0.0000000  0  7G17G23G 6G16G22G20G26
 -20055187.71844 -15627401.60844  21558241.1284   21558241.4634
 -12170245.31244  -9483297.04044  22666851.3134   22666852.2924
 -21356764.25944 -16641626.79144  20233427.3234   20233426.6854
   4775522.45444   3721187.14644  22578279.8694   22578279.3954
  -3025900.08144  -2357843.24344  24237780.2854
    811711.46944    632502.49744  22587811.8164   22587812.2464
  -4801130.87344  -3741139.44144  23049935.8864   23049935.3164
 96  4  3  3 41 30.0000000  0  7G23G 6G16G22G20G17G26
 -12258832.01144  -9552325.62644  22649993.7884   22649994.1004
 -21364279.80644 -16647483.06844  20231997.2834   20231996.4034
   4860534.06944   3787429.96044  22594457.5014   22594457.1784
  -3091797.65744  -2409192.03444  24225240.5864   24225238.0814
    907702.39944    707300.61544  22606078.2604   22606078.9604
 -20099499.85644 -15661930.52944  21549809.0224   21549809.2504
  -4865904.39444  -3791612.32044  23037609.2974   23037609.0454
 96  4  3  3 42  0.0000000  0  7G17G23G 6G16G22G20G26
 -20143610.11044 -15696302.13844  21541415.0304   21541415.3774
 -12347170.98844  -9621161.17244  22633182.8574   22633183.1314
 -21371364.95144 -16653003.95644  20230649.1224   20230648.3664
   4945840.91644   3853902.82044  22610690.5754   22610690.4454
  -3157299.35744  -2460232.32044  24212776.3594   24212779.4504
   1003917.31144    782273.27044  22624387.3464   22624387.6654
  -4930368.60744  -3841844.15444  23025341.9654   23025341.0254
 96  4  3  3 42 30.0000000  0  7G17G23G 6G16G22G20G26
 -20187504.26244 -15730505.35944  21533061.9204   21533062.5034
 -12435249.73044  -9689793.94544  22616421.9854   22616422.4934
 -21377986.90044 -16658163.91144  20229388.8224   20229388.0424
   5031468.34544   3920625.48744  22626984.6574   22626985.1354
  -3222379.63744  -2510944.21044  24200392.4534   24200390.4744
   1100370.97644    857431.98244  22642741.9804   22642742.4404
  -4994507.45444  -3891822.46244  23013136.7444   23013136.3984
 96  4  3  3 43  0.0000000  0  7G17G23G 6G16G22G20G26
 -20231201.35644 -15764555.03144  21524746.9854   21524747.4474
 -12523071.76144  -9758226.68244  22599709.5024   22599710.4104
 -21384172.90844 -16662984.17444  20228211.6024   20228210.9314
   5117404.30544   3987588.57244  22643337.7954   22643338.5704
  -3287058.56744  -2561343.31144  24188083.2804   24188083.0194
   1197035.81344    932755.23144  22661136.6354   22661137.6144
  -5058328.43644  -3941553.08244  23000992.0244   23000991.8714
 96  4  3  3 43 30.0000000  0  7G17G23G 6G16G22G20G26
 -20274722.00644 -15798467.21444  21516465.2494   21516465.5884
 -12610644.16944  -9826464.90444  22583044.4694   22583045.4354
 -21389947.12144 -16667483.55644  20227113.0444   20227112.1974
   5203626.66844   4054774.80744  22659744.8454   22659744.7904
  -3351350.28644  -2611440.76644  24175849.0144   24175845.7924
   1293895.74844   1008230.51444  22679568.7554   22679568.8014
  -5121838.33444  -3991041.30944  22988906.5604   22988905.6394
 96  4  3  3 44  0.0000000  0  7G23G 6G16G22G20G17G26
 -12697929.62644  -9894479.51844  22566435.2524   22566436.5404
 -21395282.65544 -16671641.11744  20226097.7144   20226096.8104
   5290130.81844   4122180.64644  22676206.6274   22676205.9104
  -3415222.38544  -2661211.22944  24163694.8564   24163694.0024
   1390967.70444   1083870.99844  22698040.2304   22698040.9914
 -20318045.29444 -15832225.60544  21508220.9644   21508221.0864
  -5185017.42944  -4040271.75844  22976884.1574   22976883.9204
 96  4  3  3 44 30.0000000  0  7G23G 6G16G22G20G17G26
 -12784899.25344  -9962248.04144  22549885.7694   22549886.3654
 -21400192.03344 -16675466.60844  20225163.3514   20225162.5364
   5376906.78544   4189798.27944  22692719.8404   22692719.6564
  -3478673.76244  -2710653.87844  24151620.9174   24151621.5374
   1488231.85244   1159661.22644  22716549.0074   22716549.4814
 -20361159.93744 -15865821.42044  21500016.4694   21500016.7484
  -5247848.68344  -4089231.15844  22964927.9724   22964926.8814
 96  4  3  3 45  0.0000000  0  7G23G 6G16G22G20G17G26
 -12871549.44844 -10029767.65244  22533396.7374   22533397.3274
 -21404692.11644 -16678973.16444  20224306.9894   20224306.2014
   5463930.41544   4257608.89944  22709279.3774   22709280.3464
  -3541716.95244  -2759778.41244  24139623.0674   24139625.9504
   1585686.32144   1235599.77044  22735094.1074   22735094.5474
 -20404063.09244 -15899252.43744  21491852.4604   21491852.6704
  -5310322.87544  -4137912.32244  22953038.7544   22953038.1504
 96  4  3  3 45 30.0000000  0  7G23G 6G16G22G20G17G26
 -12957884.18344 -10097041.44944  22516968.0824   22516968.9214
 -21408777.52444 -16682156.59844  20223529.7944   20223528.8884
   5551186.01644   4325600.27644  22725883.5874   22725884.1214
  -3604350.11544  -2808583.45944  24127705.8224   24127702.0804
   1683332.84544   1311687.96944  22753675.4484   22753675.8354
 -20446738.71344 -15932506.15244  21483731.4614   21483731.9464
  -5372440.58444  -4186315.72344  22941217.8514   22941217.4384
 96  4  3  3 46  0.0000000  0  7G23G 6G16G22G20G17G26
 -13043916.50544 -10164079.61244  22500596.8854   22500596.7974
 -21412452.56744 -16685020.27744  20222830.4514   20222829.8814
   5638692.01144   4393786.75444  22742535.6444   22742535.8034
  -3666584.35644  -2857077.67944  24115862.4844   24115863.0524
   1781153.26044   1387911.67144  22772290.7344   22772291.3064
 -20489192.83444 -15965587.27344  21475652.6654   21475653.1654
  -5434218.71044  -4234454.50744  22929462.8484   22929462.6884
 96  4  3  3 46 30.0000000  0  7G23G 6G16G22G20G17G26
 -13129656.61144 -10230890.07344  22484281.1884   22484281.5414
 -21415741.86244 -16687583.36344  20222204.3174   20222203.6444
   5726470.24744   4462185.39044  22759239.5334   22759239.5464
  -3728431.41944  -2905270.17644  24104092.9584   24104090.5494
   1879138.31044   1464263.66844  22790935.8234   22790936.9324
 -20531438.21244 -15998505.73844  21467613.3704   21467613.8574
  -5495669.57244  -4282338.27244  22917768.9114   22917768.8204
 96  4  3  3 47  0.0000000  0  7G23G 6G16G22G20G17G26
 -13215099.88244 -10297469.22544  22468022.0434   22468021.7664
 -21418614.43544 -16689821.73644  20221657.8744   20221657.2454
   5814544.99444   4530815.05444  22775999.6574   22776000.3444
  -3789855.49544  -2953133.08844  24092405.1244   24092403.6344
   1977303.02344   1540755.65144  22809616.0774   22809616.5494
 -20573460.48544 -16031250.34644  21459616.7614   21459617.2894
  -5556784.51044  -4329960.28544  22906138.8824   22906138.4714
 96  4  3  3 47 30.0000000  0  7G23G 6G16G22G20G17G26
 -13300251.96744 -10363821.48444  22451817.8754   22451818.0454
 -21421061.82544 -16691728.79844  20221192.0014   20221191.4634
   5902908.88044   4599670.01544  22792814.7514   22792814.8594
  -3850844.23344  -3000656.79044  24080799.8364   24080797.2474
   2075635.43244   1617378.31144  22828328.2534   22828329.7144
 -20615282.18744 -16063838.67244  21451658.1404   21451658.8204
  -5617589.71544  -4377340.94544  22894568.2324   22894567.6954
 96  4  3  3 48  0.0000000  0  7G23G 6G16G22G20G17G26
 -13385105.79144 -10429941.33844  22435670.1714   22435670.9404
 -21423066.67344 -16693291.02444  20220810.2944   20220809.7214
   5991562.93044   4668751.08144  22809684.3584   22809684.8644
  -3911395.37044  -3047839.47644  24069276.2124   24069275.7844
   2174152.34544   1694144.74444  22847075.5064   22847076.5064
 -20656916.33944 -16096280.85744  21443735.1774   21443735.8834
  -5678088.92144  -4424483.15444  22883056.1694   22883055.4874
 96  4  3  3 48 30.0000000  0  7G23G 6G16G22G20G17G26
 -13469663.24244 -10495830.24344  22419578.8754   22419579.4274
 -21424616.73744 -16694498.87244  20220515.6134   20220514.9314
   6080460.04544   4738021.54544  22826601.0394   22826602.0224
  -3971504.30844  -3094677.54444  24057838.2104   24057835.9644
   2272852.80744   1771054.21744  22865857.9904   22865858.9824
 -20698360.21244 -16128574.77644  21435849.2014   21435849.4584
  -5738274.31344  -4471380.84444  22871602.5914   22871601.9854
 96  4  3  3 49  0.0000000  0  7G23G 6G16G22G20G17G26
 -13553932.82644 -10561494.82944  22403542.4934   22403543.8054
 -21425683.35544 -16695330.01444  20220312.7034   20220311.8624
   6169585.42944   4807469.88444  22843561.7584   22843561.6794
  -4031154.14144  -3141157.97044  24046486.7754   24046487.0484
   2371738.45144   1848107.96744  22884674.5254   22884676.2594
 -20739613.28944 -16160720.01844  21427999.4564   21427999.1404
  -5798124.34944  -4518017.21744  22860212.4304   22860212.2454
 96  4  3  3 49 30.0000000  0  7G23G 6G16G22G20G17G26
 -13637904.54044 -10626927.30844  22387563.1284   22387564.2704
 -21426271.53244 -16695788.34744  20220200.6794   20220199.6394
   6258944.29644   4877100.19244  22860565.9024   22860566.3824
  -4090355.50244  -3187288.89144  24035221.1864   24035219.9594
   2470815.76144   1925311.07444  22903528.9694   22903529.8474
 -20780670.97844 -16192713.00544  21420186.4824   21420186.0294
  -5857614.61444  -4564373.23644  22848892.4154   22848892.3214
 96  4  3  3 50  0.0000000  0  7G23G 6G16G22G20G17G26
 -13721576.08644 -10692125.89744  22371641.4064   22371642.3884
 -21426389.09444 -16695879.96144  20220178.1674   20220177.6554
   6348558.15544   4946929.16144  22877618.7344   22877619.1844
  -4149108.94844  -3233070.78044  24024040.6784   24024040.7324
   2570075.26144   2002656.16744  22922417.3074   22922418.4364
 -20821507.75344 -16224533.85644  21412415.2534   21412415.2934
  -5916709.91344  -4610421.51144  22837647.2924   22837647.0614
 96  4  3  3 50 30.0000000  0  7G23G 6G16G22G20G17G26
 -13804951.16244 -10757093.47044  22355776.7014   22355776.8984
 -21426065.11744 -16695627.51644  20220239.9804   20220239.1544
   6438426.64644   5016956.55244  22894720.2434   22894721.1774
  -4207413.80044  -3278503.13544  24012945.3284   24012945.2134
   2669486.69444   2080119.63044  22941334.8774   22941336.4304
 -20862120.26744 -16256179.95544  21404687.0904   21404687.0424
  -5975406.94244  -4656159.44244  22826477.4434   22826476.4344
 96  4  3  3 51  0.0000000  0  7G23G 6G16G22G20G17G26
 -13888005.96644 -10821811.48344  22339971.9534   22339971.7334
 -21425304.27444 -16695034.65944  20220384.6854   20220383.8644
   6528582.44344   5087207.81144  22911876.6744   22911876.4614
  -4265259.14844  -3323577.41644  24001937.6454   24001937.8864
   2769070.89244   2157717.70044  22960285.0254   22960285.5364
 -20902491.04144 -16287637.68744  21397004.9254   21397004.5814
  -6033695.53244  -4701579.12744  22815385.8964   22815385.2684
 96  4  3  3 51 30.0000000  0  7G23G 6G16G22G20G17G26
 -13970747.25144 -10886285.21044  22324226.8064   22324226.9304
 -21424140.19144 -16694127.58344  20220606.5824   20220605.6014
   6618996.34944   5157660.21144  22929081.1094   22929081.0474
  -4322673.30344  -3368315.74844  23991011.8414   23991010.3794
   2868815.03044   2235440.40044  22979266.0334   22979266.3874
 -20942642.16844 -16318924.26544  21389363.7764   21389363.7314
  -6091601.52944  -4746700.67544  22804366.3314   22804365.7524
 96  4  3  3 52  0.0000000  0  7G23G 6G16G22G20G17G26
 -14053188.73744 -10950525.32244  22308538.2254   22308538.7134
 -21422579.65644 -16692911.58644  20220903.2574   20220902.5534
   6709640.77544   5228292.21744  22946330.2564   22946329.5464
  -4379656.66244  -3412718.35244  23980168.9744   23980169.0714
   2968707.37344   2313278.58444  22998274.8034   22998275.0924
 -20982589.61444 -16350052.12944  21381762.0754   21381762.0894
  -6149150.04544  -4791543.67244  22793415.5134   22793414.5714
 96  4  3  3 52 30.0000000  0  7G23G 6G16G22G20G17G26
 -14135319.24544 -11014523.10444  22292909.6094   22292910.0554
 -21420608.87244 -16691375.92144  20221278.3644   20221277.8304
   6800488.18344   5299082.40644  22963618.2854   22963617.5494
  -4436207.07444  -3456783.60944  23969407.4894   23969408.4484
   3068761.37244   2391242.74744  23017314.2574   23017314.7424
 -21022356.99844 -16381039.69044  21374194.5424   21374195.0324
  -6206352.54744  -4836117.03944  22782530.5904   22782530.3034
 96  4  3  3 53  0.0000000  0  7G23G 6G16G22G20G17G26
 -14217133.92644 -11078274.79144  22277341.1194   22277341.0504
 -21418200.14644 -16689498.99944  20221736.5804   20221736.0344
   6891533.99444   5370027.20044  22980944.1214   22980943.7914
  -4492328.59344  -3500514.68044  23958726.9364   23958728.5234
   3168983.19944   2469337.67944  23036385.5794   23036385.8114
 -21061952.23844 -16411893.11544  21366659.7494   21366660.3034
  -6263202.11644  -4880415.40144  22771712.3874   22771712.0444
 96  4  3  3 53 30.0000000  0  7G23G 6G16G22G20G17G26
 -14298646.16144 -11141790.80244  22261829.4144   22261829.8294
 -21415359.24044 -16687285.31244  20222277.2434   20222276.6024
   6982771.02144   5441120.98144  22998305.8544   22998305.7724
  -4548033.14844  -3543920.83944  23948127.0084   23948128.1214
   3269347.10344   2547543.32244  23055484.4354   23055484.9034
 -21101395.68044 -16442628.24844  21359154.1414   21359154.6844
  -6319702.80044  -4924441.90144  22760960.3094   22760960.1134
 96  4  3  3 54  0.0000000  0  7G23G 6G16G22G20G17G26
 -14379835.05944 -11205054.87244  22246379.3014   22246380.0364
 -21412077.28944 -16684727.94744  20222901.8444   20222901.2684
   7074221.26544   5512380.89744  23015708.3344   23015708.5384
  -4603305.09044  -3586989.89244  23937608.9034   23937609.7464
   3369842.52744   2625851.44544  23074607.1484   23074608.4254
 -21140677.47344 -16473237.42444  21351679.0574   21351679.4164
  -6375845.52844  -4968189.48444  22750276.9654   22750276.3644
 96  4  3  3 54 30.0000000  0  7G23G 6G16G22G20G17G26
 -14460689.69744 -11268058.47944  22230993.2274   22230993.7404
 -21408339.17244 -16681815.13244  20223613.1524   20223612.5444
   7165902.34544   5583820.69144  23033153.5644   23033154.0434
  -4658144.04344  -3629721.55244  23927174.4324   23927173.9944
   3470463.35644   2704257.28944  23093755.5514   23093756.5234
 -21179788.48044 -16503713.51644  21344236.5704   21344237.0574
  -6431617.33944  -5011648.03244  22739664.0284   22739663.4764
 96  4  3  3 55  0.0000000  0  7G23G 6G16G22G20G17G26
 -14541205.16544 -11330797.79044  22215671.1264   22215672.4604
 -21404138.88844 -16678542.18744  20224412.4594   20224411.8914
   7257840.28644   5655460.62944  23050649.6404   23050650.1374
  -4712533.92244  -3672103.28444  23916824.3294   23916825.7524
   3571207.47444   2782759.21344  23112926.3794   23112927.6494
 -21218696.65744 -16534031.56244  21336832.6114   21336832.8174
  -6486997.02044  -5054801.01844  22729125.6224   22729124.7414
 96  4  3  3 55 30.0000000  0  7G23G 6G16G22G20G17G26
 -14621376.23944 -11393268.74344  22200415.0834   22200415.9614
 -21399483.63744 -16674914.72644  20225298.1694   20225297.2584
   7350044.06744   5727307.72844  23068195.2404   23068194.4054
  -4766453.17744  -3714118.27544  23906563.1684   23906563.6314
   3672078.32144   2861359.88444  23132121.2934   23132122.6264
 -21257396.87944 -16564187.56044  21329468.3804   21329468.1394
  -6541976.66744  -5097642.29144  22718663.5494   22718663.0564
 96  4  3  3 56  0.0000000  0  7G23G 6G16G22G20G17G26
 -14701211.09844 -11455477.71244  22185223.6224   22185223.8394
 -21394365.35644 -16670926.45744  20226272.3284   20226271.6414
   7442499.88444   5799351.22544  23085789.2024   23085788.2844
  -4819903.63544  -3755767.97244  23896392.6754   23896393.3794
   3773071.78844   2940056.10544  23151339.9084   23151340.3514
 -21295883.23444 -16594176.91244  21322144.6224   21322144.6094
  -6596562.31344  -5140176.54844  22708275.6294   22708275.6804
 96  4  3  3 56 30.0000000  0  7G23G 6G16G22G20G17G26
 -14780747.55644 -11517454.17144  22170089.1334   22170088.6954
 -21388785.60544 -16666578.60144  20227334.0464   20227333.5234
   7535171.91944   5871563.20244  23103423.1234   23103424.1984
  -4872903.50044  -3797066.58344  23886306.4854   23886307.1954
   3874181.46744   3018842.87644  23170580.2694   23170580.6474
 -21334160.71744 -16624003.50644  21314860.3834   21314860.7824
  -6650773.52344  -5182419.02744  22697959.1354   22697959.0024
 96  4  3  3 57  0.0000000  0  7G23G 6G16G22G20G17G26
 -14859985.45444 -11579197.97844  22155010.4974   22155010.2204
 -21382755.03844 -16661879.46444  20228481.8444   20228480.9874
   7628061.08244   5943944.32144  23121100.6624   23121100.2834
  -4925457.25244  -3838017.53244  23876307.0334   23876305.6824
   3975415.12644   3097726.26044  23189844.3304   23189845.8264
 -21372229.73944 -16653667.66144  21307616.2464   21307616.6824
  -6704605.92944  -5224366.33744  22687715.3624   22687715.1294
 96  4  3  3 57 30.0000000  0  7G23G 6G16G22G20G17G26
 -14938912.90444 -11640699.86844  22139990.5934   22139990.8464
 -21376253.97544 -16656813.70844  20229718.6144   20229718.0474
   7721165.61844   6016493.33144  23138817.8094   23138816.4724
  -4977562.64944  -3878619.11844  23866391.5334   23866390.9384
   4076783.18044   3176714.36044  23209134.0184   23209134.6084
 -21410085.95444 -16683165.99944  21300412.3694   21300412.4484
  -6758048.32744  -5266009.75044  22677546.1844   22677544.8764
 96  4  3  3 58  0.0000000  0  7G23G 6G16G22G20G17G26
 -15017527.69144 -11701958.12144  22125031.1534   22125031.2304
 -21369275.30644 -16651375.78844  20231046.8884   20231046.2334
   7814470.53344   6089198.44244  23156572.8394   23156572.5414
  -5029228.18444  -3918877.96044  23856559.5044   23856557.9784
   4178274.84644   3255798.77344  23228447.0834   23228447.5704
 -21447726.06744 -16712495.94744  21293249.8124   21293249.9074
  -6811100.35444  -5307348.98844  22667450.6344   22667450.0234
 96  4  3  3 58 30.0000000  0  7G23G 6G16G22G20G17G26
 -15095812.81344 -11762959.50444  22110133.8564   22110133.9774
 -21361831.01644 -16645575.04844  20232463.4274   20232462.9124
   7907969.13844   6162054.48344  23174364.6584   23174364.8374
  -5080451.06744  -3958791.91344  23846812.2844   23846810.8374
   4279881.03044   3334972.43744  23247782.9964   23247782.8654
 -21485166.54044 -16741670.32844  21286125.0784   21286125.2654
  -6863748.35944  -5348373.38444  22657432.2184   22657432.1934
 96  4  3  3 59  0.0000000  0  7G23G 6G16G22G20G17G26
 -15173747.44544 -11823687.77244  22095303.3184   22095303.6394
 -21353933.74244 -16639421.33944  20233966.3144   20233965.7934
   8001662.36344   6235062.18444  23192194.2974   23192193.7244
  -5131219.77644  -3998351.92944  23837151.4774   23837149.7874
   4381592.72244   3414228.31844  23267138.2624   23267138.5164
 -21522429.32344 -16770706.25044  21279034.3084   21279034.3914
  -6915964.69644  -5389061.43144  22647495.4424   22647494.8054
 96  4  3  3 59 30.0000000  0  8G23G 6G16G22G20G17G26G21
 -15251288.35844 -11884109.24744  22080547.6674   22080548.1814
 -21345535.44544 -16632877.22044  20235564.3384   20235563.6964
   8095578.00944   6308243.20644  23210065.5854   23210065.7344
  -5181463.10844  -4037502.60644  23827590.8094   23827591.4744
   4483443.92544   3493592.89544  23286519.1084   23286518.6594
 -21559465.86044 -16799565.87644  21271986.0044   21271986.1854
  -6967702.30044  -5429376.42044  22637649.9714   22637649.7804
        -0.14454                  25601222.3464
 96  4  3  4  0  0.0000000  0  8G23G 6G16G22G20G17G26G21
 -15328482.63044 -11944260.62044  22065857.7344   22065858.0934
 -21336700.53844 -16625992.88644  20237245.5554   20237244.6014
   8189671.03844   6381562.44844  23227970.5934   23227971.0654
  -5231219.93444  -4076274.15444  23818121.9394   23818121.0614
   4585391.82044   3573032.82144  23305919.6034   23305919.2924
 -21596325.40044 -16828287.57844  21264972.0274   21264972.1074
  -7019014.42644  -5469359.86844  22627885.5704   22627885.3984
   -100265.30644                  25582141.4914
 96  4  3  4  0 30.0000000  0  7G23G 6G16G22G20G17G26
 -15405338.49244 -12004148.29944  22051232.1224   22051232.7904
 -21327452.49944 -16618786.62844  20239005.4204   20239004.8244
   8283931.47544   6455012.12344  23245908.3004   23245908.7334
  -5280498.94744  -4114673.39444  23808745.2584   23808745.6724
   4687433.64744   3652545.94444  23325337.2134   23325338.2314
 -21633019.87444 -16856880.65944  21257989.2834   21257989.4114
  -7069910.70144  -5509019.27944  22618201.1044   22618200.3824
 96  4  3  4  1  0.0000000  0  7G23G 6G16G22G20G17G26
 -15481864.91344 -12063779.25344  22036669.8694   22036670.7384
 -21317779.72544 -16611249.41244  20240846.0244   20240845.5904
   8378370.46644   6528600.94244  23263879.9604   23263879.7174
  -5329288.69244  -4152691.36644  23799460.5234   23799459.9524
   4789577.65544   3732138.68744  23344773.9334   23344774.4764
 -21669528.06844 -16885328.59244  21251041.9794   21251041.9754
  -7120393.56144  -5548356.56544  22608593.7724   22608593.2004
 96  4  3  4  1 30.0000000  0  7G23G 6G16G22G20G17G26
 -15558054.07844 -12123147.42244  22022171.3124   22022171.9954
 -21307648.25244 -16603354.76344  20242774.3054   20242773.6924
   8473023.08244   6602356.24044  23281891.9614   23281891.4134
  -5377582.01644  -4190322.52844  23790270.4994   23790269.8894
   4891851.54544   3811832.63244  23364236.5794   23364237.1704
 -21705804.27744 -16913595.75544  21244138.8584   21244138.5834
  -7170456.68744  -5587366.78644  22599067.3064   22599066.5964
 96  4  3  4  2  0.0000000  0  7G23G 6G16G22G20G17G26
 -15633909.49344 -12182255.52044  22007736.9284   22007737.3924
 -21297067.42044 -16595109.96944  20244787.6974   20244786.9494
   8567880.17944   6676270.86144  23299941.8154   23299940.8044
  -5425413.16244  -4227593.51844  23781168.3614   23781169.1314
   4994238.25644   3891614.50044  23383720.1824   23383720.8504
 -21741881.04144 -16941707.50644  21237273.6214   21237273.4064
  -7220112.08044  -5626059.29444  22589617.7794   22589616.6224
 96  4  3  4  2 30.0000000  0  8G23G 6G16G22G20G17G26G21
 -15709439.77844 -12241110.26744  21993363.8264   21993364.1314
 -21286029.69844 -16586509.15644  20246888.0894   20246887.6084
   8662930.03044   6750335.66844  23318029.1434   23318029.4464
  -5472799.67144  -4264518.07344  23772150.2744   23772152.1014
   5096708.24344   3971461.23744  23403219.5254   23403220.2614
 -21777782.57244 -16969682.71044  21230441.8734   21230442.0674
  -7269354.36944  -5664429.91144  22580247.6654   22580247.0674
        -1.00054        -0.93054  25486941.4244
 96  4  3  4  3  0.0000000  0  8G23G 6G16G22G20G17G26G21
 -15784661.25044 -12299724.38644  21979049.2514   21979049.6324
 -21274519.28544 -16577540.01244  20249078.2304   20249077.7784
   8758167.13744   6824546.39244  23336151.8804   23336153.3334
  -5519756.69144  -4301107.96344  23763214.9324   23763216.0744
   5199244.20044   4051359.37044  23422730.5974   23422731.0774
 -21813518.04344 -16997528.51944  21223641.6954   21223641.7994
  -7318187.66044  -5702481.81544  22570954.3504   22570953.5164
    -99805.44844    -77770.55944  25467950.0084   25467949.0484
 96  4  3  4  3 30.0000000  0  8G23G 6G16G22G20G17G26G21
 -15859574.03744 -12358097.96544  21964793.8134   21964794.3874
 -21262534.19344 -16568200.98744  20251359.0534   20251358.5034
   8853575.79344   6898890.77944  23354306.8184   23354307.8694
  -5566294.18644  -4337370.93944  23754357.9184   23754359.1944
   5301835.73744   4131300.83844  23442254.0514   23442253.2694
 -21849098.79344 -17025253.77044  21216870.8014   21216871.0844
  -7366615.51644  -5740217.79144  22561739.7504   22561738.9244
   -199549.90444   -155493.49544  25448968.6854   25448968.7964
 96  4  3  4  4  0.0000000  0  8G23G 6G16G22G20G17G26G21
 -15934139.33344 -12416200.77544  21950604.4154   21950605.2934
 -21250052.20544 -16558474.77144  20253734.3354   20253733.8384
   8949161.77444   6973373.36444  23372496.4974   23372497.7724
  -5612374.93644  -4373278.01744  23745589.4044   23745590.1194
   5404488.17244   4211289.74644  23461787.7044   23461788.6314
 -21884503.33244 -17052841.71444  21210133.4954   21210133.7484
  -7414616.64944  -5777621.26344  22552604.9964   22552604.2814
   -299237.46144   -233172.06644  25429997.2104   25429998.4874
 96  4  3  4  4 30.0000000  0  8G23G 6G16G22G20G17G26G21
 -16008370.84244 -12474043.49144  21936478.9094   21936479.5684
 -21237069.44444 -16548358.34344  20256204.8914   20256204.0874
   9044918.14644   7047988.72744  23390718.1194   23390718.7194
  -5657991.76344  -4408823.57944  23736908.7604   23736910.4684
   5507205.91044   4291329.54144  23481334.8974   23481335.1434
 -21919702.00844 -17080269.24844  21203435.3104   21203435.7874
  -7462190.15444  -5814691.51644  22543552.0124   22543551.5734
   -398886.91744   -310820.99944  25411034.4934   25411029.2374
 96  4  3  4  5  0.0000000  0  8G23G 6G16G22G20G17G26G21
 -16082261.87444 -12531620.90444  21922418.0234   21922418.7464
 -21223584.74944 -16537850.79444  20258770.9864   20258770.4114
   9140844.39544   7122736.44244  23408972.3634   23408972.8564
  -5703114.57444  -4443984.19244  23728321.7534   23728323.3954
   5610008.80544   4371435.70144  23500898.2584   23500899.2584
 -21954660.55644 -17107509.66844  21196782.5964   21196783.0554
  -7509335.83844  -5851428.39544  22534580.4674   22534580.2754
   -498492.93144   -388436.03344  25392079.6764
 96  4  3  4  5 30.0000000  0  8G23G 6G16G22G20G17G26G21
 -16155800.87444 -12588924.00644  21908424.2164   21908424.8654
 -21209611.92144 -16526962.88744  20261429.7644   20261429.1554
   9236929.32544   7197607.80244  23427257.2384   23427257.6394
  -5747725.20144  -4478745.70644  23719832.4124   23719833.1554
   5712896.26744   4451607.75344  23520475.6464   23520476.2464
 -21989370.33544 -17134556.24744  21190177.5464   21190177.9794
  -7556046.16044  -5887826.03444  22525691.5764   22525691.0264
   -598051.34144   -466014.00944  25373132.3944   25373129.5994
 96  4  3  4  6  0.0000000  0  8G23G 6G16G22G20G17G26G21
 -16228958.01244 -12645929.55244  21894503.0954   21894503.2754
 -21195142.80644 -16515688.26044  20264183.1484   20264182.7634
   9333193.69444   7272618.99044  23445576.8694   23445576.3764
  -5791801.01744  -4513090.44644  23711446.3334   23711446.6624
   5815884.16244   4531858.05644  23540074.2474   23540074.7434
 -22023822.68144 -17161402.22444  21183621.9174   21183621.7104
  -7602298.92544  -5923867.13244  22516889.7184   22516889.2484
   -697538.66644                  25354198.9684
 96  4  3  4  6 30.0000000  0  8G23G 6G16G22G20G17G26G21
 -16301761.10344 -12702659.21844  21880649.0744   21880649.2684
 -21180209.75944 -16504052.12744  20267024.9504   20267024.2664
   9429621.70244   7347757.69944  23463925.7194   23463925.7694
  -5835367.14344  -4547038.08444  23703156.3144   23703155.7854
   5918961.74744   4612178.24944  23559690.0754   23559690.5094
 -22058062.25344 -17188082.40144  21177106.3894   21177106.4394
  -7648096.65544  -5959553.65944  22508174.9634   22508174.1464
   -796948.72344                  25335280.1914
 96  4  3  4  7  0.0000000  0  8G23G 6G16G22G20G17G26G21
 -16374179.71044 -12759089.28244  21866868.3244   21866868.6574
 -21164808.54744 -16492051.19244  20269955.7164   20269955.1034
   9526231.01944   7423037.67644  23482309.0274   23482311.5404
  -5878411.46844  -4580579.11544  23694965.5834   23694964.1654
   6022130.09344   4692569.17044  23579321.4444   23579321.6164
 -22092104.29244 -17214608.65544  21170628.2504   21170628.7104
  -7693425.29544  -5994874.66744  22499549.7344   22499548.7674
   -896250.22544                  25316384.2264
 96  4  3  4  7 30.0000000  0  8G23G 6G16G22G20G17G26G21
 -16446213.51744 -12815219.50344  21853161.0014   21853161.0854
 -21148941.07444 -16479686.93744  20272975.1444   20272974.1744
   9623021.92244   7498459.14244  23500728.2024   23500728.3944
  -5920963.53544  -4613736.59244  23686867.6624   23686866.8764
   6125376.52544   4773020.94044  23598968.3884   23598968.2754
 -22125979.00044 -17241004.52344  21164182.3424   21164182.6644
  -7738294.07444  -6029837.33344  22491011.1524   22491010.7294
   -995448.35144                  25297510.7544
 96  4  3  4  8  0.0000000  0  8G23G 6G16G22G20G17G26G21
 -16517874.10644 -12871058.90744  21839524.1824   21839524.0024
 -21132619.27644 -16466968.66344  20276081.1944   20276080.5174
   9719990.05344   7574018.72544  23519180.5314   23519180.8464
  -5963047.63844  -4646529.41344  23678859.4724   23678859.4744
   6228690.62644   4853525.44244  23618628.6884   23618629.3284
 -22159718.89444 -17267295.33844  21157761.7614   21157761.8954
  -7782720.49444  -6064455.30344  22482556.9954   22482557.0154
  -1094548.01744   -852894.24044  25278655.5154   25278654.2444
 96  4  3  4  8 30.0000000  0  8G23G 6G16G22G20G17G26G21
 -16589175.16544 -12926618.16244  21825955.7914   21825955.7004
 -21115847.71644 -16453899.92644  20279272.6084   20279272.0554
   9817120.52344   7649704.81044  23537663.5774   23537663.8024
  -6004673.83344  -4678965.43744  23670937.9684   23670938.9594
   6332065.53344   4934077.32544  23638300.1544   23638300.7114
 -22193320.12444 -17293478.10144  21151367.7954   21151367.8664
  -7826695.49244  -6098721.52244  22474189.2024   22474189.4024
  -1193556.89744   -930043.96944  25259814.9324   25259813.7684
 96  4  3  4  9  0.0000000  0  8G23G 6G16G22G20G17G26G21
 -16660115.77944 -12981896.54844  21812456.2434   21812456.7894
 -21098631.36444 -16440484.59544  20282548.8324   20282548.2344
   9914391.59544   7725500.44344  23556174.2754   23556176.1884
  -6045850.05944  -4711050.77544  23663102.2304   23663102.0234
   6435484.34044   5014663.40244  23657980.2694   23657981.9774
 -22226768.00444 -17319541.37344  21145002.7504   21145002.8974
  -7870228.93544  -6132643.67044  22465904.7924   22465904.4804
  -1292499.34944  -1007141.98544  25240988.3874   25240989.4474
 96  4  3  4  9 30.0000000  0  8G23G 6G16G22G20G17G26G21
 -16730709.48344 -13036904.60644  21799022.6704   21799023.1354
 -21080972.09544 -16426724.13744  20285909.1944   20285908.8684
  10011790.33944   7801395.56444  23574708.8274   23574710.3224
  -6086583.43744  -4742791.04444  23655351.0614   23655352.1864
   6538945.73944   5095282.68744  23677668.2104   23677667.8934
 -22260057.78544 -17345481.45544  21138668.1374   21138668.0594
  -7913318.41144  -6166219.88044  22457705.3374   22457704.7464
  -1391374.43444  -1084187.44144  25222172.8254   25222173.4684
 96  4  3  4 10  0.0000000  0  8G23G 6G16G22G20G17G26G21
 -16800935.98044 -13091626.54144  21785659.1404   21785659.3794
 -21062845.04244 -16412599.16944  20289358.7914   20289358.2144
  10109333.09344   7877402.89544  23593269.8174   23593271.4354
  -6126831.61844  -4774153.22544  23647692.7094   23647692.7924
   6642464.67144   5175946.79044  23697366.8974   23697366.5234
 -22293148.44244 -17371266.37544  21132370.7634   21132371.0754
  -7955931.98344  -6199425.26644  22449596.1304   22449594.9844
  -1490150.80444  -1161155.97944  25203376.5044   25203374.2844
 96  4  3  4 10 30.0000000  0  8G23G 6G16G22G20G17G26G21
 -16870791.03844 -13146059.03744  21772366.3614   21772366.7284
 -21044239.05944 -16398101.01044  20292899.4294   20292898.9674
  10207013.44844   7953517.44844  23611857.6494   23611857.8134
  -6166589.08144  -4805133.03244  23640127.2524   23640127.0514
   6746031.56144   5256648.27444  23717075.4314   23717076.1804
 -22326013.02444 -17396875.13044  21126117.0154   21126117.1424
  -7998072.88844  -6232262.32444  22441576.7364   22441576.2644
  -1588833.93044  -1238051.88344  25184598.3704   25184597.3464
 96  4  3  4 11  0.0000000  0  8G23G 6G16G22G20G17G26G21
 -16940270.97844 -13200199.23444  21759144.4734   21759144.9104
 -21025138.08744 -16383217.14844  20296534.1434   20296533.5114
  10304842.75944   8029748.08444  23630475.3464   23630476.0584
  -6205841.40244  -4835719.27944  23632657.3204   23632656.9494
   6849636.24144   5337379.19244  23736790.3414   23736792.2644
 -22358651.97444 -17422308.06844  21119906.2794   21119906.0804
  -8039767.58244  -6264751.69044  22433642.3264   22433642.3034
  -1687408.01844  -1314862.84844  25165839.0724   25165838.6734
 96  4  3  4 11 30.0000000  0  8G23G 6G16G22G20G17G26G21
 -17009388.61644 -13254057.11844  21745991.5174   21745991.9514
 -21005539.43944 -16367945.48544  20300263.8034   20300263.2124
  10402826.08444   8106098.72444  23649120.3134   23649121.4734
  -6244584.05644  -4865908.33344  23625284.1124   23625283.6244
   6953264.37844   5418128.39644  23756511.3274   23756512.0014
 -22391087.43144 -17447582.43844  21113733.9144   21113733.5224
  -8081033.10044  -6296906.63244  22425790.1934   22425789.2884
  -1785866.70544  -1391583.87144  25147100.5134
 96  4  3  4 12  0.0000000  0  8G23G 6G16G22G20G17G26G21
 -17078140.79344 -13307630.23244  21732908.1684   21732909.0114
 -20985451.15844 -16352292.29044  20304086.4104   20304085.7164
  10500954.95244   8182562.77444  23667794.4744   23667795.3504
  -6282818.59844  -4895701.48444  23618008.6064   23618008.6424
   7056898.91544   5498882.57344  23776231.2804   23776232.7874
 -22423323.58144 -17472701.50544  21107599.3384   21107599.0894
  -8121870.76644  -6328728.15544  22418018.1624   22418017.9904
  -1884232.89344                  25128376.7884
 96  4  3  4 12 30.0000000  0  7G23G 6G16G22G20G17G26
 -17146537.97144 -13360926.71544  21719892.6694   21719893.2834
 -20964902.19844 -16336280.12044  20307996.7944   20307996.1834
  10599214.08544   8259128.32544  23686492.0244   23686492.6244
  -6320561.73344  -4925111.71944  23610826.0404   23610825.8094
   7160534.12244   5579637.29744  23795951.8744   23795952.4434
 -22455381.60244 -17497681.77644  21101499.1134   21101499.1484
  -8162272.23644  -6360209.81144  22410330.7294   22410329.7794
 96  4  3  4 13  0.0000000  0  7G23G 6G16G22G20G17G26
 -17214565.31844 -13413935.02544  21706947.8054   21706948.3394
 -20943883.84944 -16319902.19644  20311996.5814   20311995.8644
  10697622.42444   8335810.12544  23705217.7634   23705218.2214
  -6357783.93144  -4954116.00944  23603743.2654   23603743.2524
   7264195.41044   5660412.32444  23815678.2904   23815676.5414
 -22487255.73144 -17522518.74744  21095433.6914   21095433.5884
  -8202185.05644  -6391310.70844  22402735.6084   22402734.5524
 96  4  3  4 13 30.0000000  0  8G23G 6G16G22G20G17G26G21
 -17282217.69744 -13466651.15144  21694074.2394   21694074.6764
 -20922399.00744 -16303160.77344  20316084.6634   20316084.2564
  10796167.15044   8412598.22344  23723970.5344   23723972.0474
  -6394487.60444  -4982716.27744  23596759.2794   23596758.8914
   7367901.34144   5741222.12644  23835412.6604   23835414.4574
 -22518936.58344 -17547205.11144  21089405.3084   21089404.9884
  -8241564.09344  -6421995.66544  22395241.8424   22395241.4224
        -0.46954                  25072336.8154
 96  4  3  4 14  0.0000000  0  8G23G 6G16G22G20G17G26G21
 -17349517.93244 -13519092.87644  21681267.5924   21681267.5264
 -20900468.15044 -16286071.80444  20320258.1804   20320257.6364
  10894812.31644   8489464.58144  23742742.0274   23742742.9814
  -6430705.25944  -5010937.77644  23589866.2434   23589866.9684
   7471618.49444   5822040.68244  23855149.1504   23855150.6984
 -22550429.07944 -17571744.70444  21083412.0534   21083411.9454
  -8280413.27844  -6452267.74744  22387849.1114   22387848.6584
    -97989.61044    -76354.38544  25053692.4964   25053688.8504
 96  4  3  4 14 30.0000000  0  8G23G 6G16G22G20G17G26G21
 -17416462.06944 -13571257.12444  21668528.6154   21668528.2714
 -20878068.36844 -16268617.43744  20324520.3614   20324520.0564
  10993563.73344   8566413.74044  23761534.4684   23761535.0994
  -6466423.58744  -5038770.23644  23583070.0494   23583069.2944
   7575348.28044   5902869.09144  23874888.2704   23874890.1404
 -22581720.71444 -17596127.78244  21077457.5694   21077457.5844
  -8318726.13344  -6482121.91644  22380558.5494   22380557.7964
   -195878.72644   -152631.55744  25035065.1944   25035058.9824
 96  4  3  4 15  0.0000000  0  8G23G 6G16G22G20G17G26G21
 -17483046.18344 -13623140.83544  21655858.1844   21655857.9794
 -20855176.91144 -16250779.94844  20328876.8064   20328876.1514
  11092425.88744   8643449.18744  23780347.0374   23780348.4784
  -6501637.44044  -5066209.58444  23576368.3724   23576369.5664
   7679077.42644   5983696.99244  23894627.5404   23894627.6454
 -22612805.22844 -17620349.46544  21071542.3284   21071542.2134
  -8356527.67044  -6511577.63444  22373365.1394   22373364.5234
   -293667.07944   -228830.27444  25016458.7174   25016457.0594
 96  4  3  4 15 30.0000000  0  8G23G 6G16G22G20G17G26G21
 -17549275.46944 -13674748.05544  21643254.9734   21643254.9254
 -20831785.14844 -16232552.60744  20333327.8574   20333327.5494
  11191409.96544   8720579.62144  23799182.2054   23799184.2894
  -6536363.13144  -5093268.55944  23569760.9664   23569760.1934
   7782790.55744   6064512.41744  23914363.5084   23914363.6574
 -22643680.46744 -17644408.08344  21065666.9204   21065666.8154
  -8393851.12944  -6540660.83144  22366262.9734   22366261.9594
   -391358.87444   -304953.71644  24997867.7634   24997865.0884
 96  4  3  4 16  0.0000000  0  8G23G 6G16G22G20G17G26G21
 -17615140.51244 -13726071.45344  21630721.2244   21630721.0654
 -20807898.12244 -16213939.34944  20337873.5834   20337873.0514
  11290531.75544   8797817.37544  23818044.5974   23818046.7784
  -6570599.45244  -5119946.20644  23563246.5744   23563245.9894
   7886484.51444   6145312.92444  23934096.9584   23934095.8834
 -22674344.66044 -17668302.24544  21059831.6794   21059831.5254
  -8430718.70844  -6569388.80844  22359247.1684   22359246.1034
   -488933.19344   -380985.63344  24979298.9054   24979300.8834
 96  4  3  4 16 30.0000000  0  8G23G 6G16G22G20G17G26G21
 -17680643.41644 -13777112.66144  21618256.2264   21618256.2534
 -20783530.20344 -16194951.37044  20342510.7524   20342510.2884
  11389791.71844   8875162.80544  23836933.4844   23836932.9254
  -6604346.52744  -5146242.61344  23556825.0664   23556823.2534
   7990178.55044   6226113.48344  23953828.4264   23953827.8554
 -22704827.05644 -17692054.74844  21054031.1344   21054030.9584
  -8467150.73444  -6597777.38544  22352314.0544   22352313.3214
   -586404.98444   -456937.66044  24960750.1694   24960752.6454
 96  4  3  4 17  0.0000000  0  8G23G 6G16G22G20G17G26G21
 -17745769.48644 -13827860.23144  21605863.0984   21605863.6874
 -20758663.68244 -16175574.86844  20347242.5854   20347241.9574
  11489208.80644   8952630.65944  23855852.6104   23855854.5354
  -6637587.74144  -5172144.82844  23550499.4154   23550499.1974
   8093910.98144   6306943.95044  23973568.5194   23973569.3644
 -22735114.87944 -17715655.63444  21048267.3594   21048266.9174
  -8503129.92044  -6625813.10844  22345467.6684   22345466.6304
   -683769.89844   -532806.36844  24942220.7734   24942223.5834
 96  4  3  4 17 30.0000000  0  8G23G 6G16G22G20G17G26G21
 -17810511.83644 -13878308.80044  21593542.8314   21593543.2384
 -20733294.80444 -16155806.92044  20352070.3614   20352069.8104
  11588770.12044   9030210.89044  23874798.3504   23874799.3504
  -6670328.35244  -5197656.97444  23544268.6354   23544268.2144
   8197690.16344   6387810.86844  23993316.7074   23993318.1284
 -22765201.42644 -17739099.68844  21042542.2544   21042541.9204
  -8538632.57744  -6653477.49244  22338711.3884   22338710.5184
   -781034.86844   -608597.22044  24923710.8194   24923713.9054
 96  4  3  4 18  0.0000000  0  8G23G 6G16G22G20G17G26G21
 -17874874.16044 -13928461.24744  21581295.3464   21581295.6454
 -20707443.73744 -16135663.23844  20356989.5874   20356989.0294
  11688428.96744   9107867.12344  23893763.2034   23893763.1924
  -6702572.53744  -5222782.29844  23538132.7014   23538132.7944
   8301499.17744   6468700.99344  24013071.9724   24013072.9374
 -22795113.37744 -17762407.69344  21036850.1214   21036850.0384
  -8573657.75644  -6680769.84344  22332046.7104   22332046.3854
   -878214.45544   -684321.54144  24905217.1314   24905220.7534
 96  4  3  4 18 30.0000000  0  8G23G 6G16G22G20G17G26G21
 -17938844.64344 -13978308.36244  21569122.3824   21569122.7994
 -20681081.49344 -16115121.24144  20362005.9604   20362005.5174
  11788198.39544   9185609.54344  23912748.9684   23912749.8024
  -6734302.18444  -5247506.66844  23532093.5714   23532095.0244
   8405355.46544   6549627.99144  24032833.8064   24032835.2764
 -22824831.88644 -17785564.96344  21031194.5944   21031194.7664
  -8608175.43344  -6707666.71644  22325477.8394   22325477.8194
   -975295.21944   -759968.82444  24886741.0454   24886751.7184
 96  4  3  4 19  0.0000000  0  8G23G 6G16G22G20G17G26G21
 -18002432.65944 -14027857.44444  21557021.6464   21557022.1584
 -20654213.74444 -16094185.33844  20367118.7994   20367118.1654
  11888065.25744   9263427.86544  23931752.5314   23931752.9554
  -6765534.63844  -5271843.63644  23526150.3634   23526150.8114
   8509230.14644   6630569.29644  24052601.2444   24052600.9074
 -22854345.06544 -17808562.23644  21025578.3824   21025578.5324
  -8642178.69544  -6734162.74944  22319007.6314   22319007.2244
  -1072263.63844   -835528.55044  24868287.4494   24868294.3954
 96  4  3  4 19 30.0000000  0  8G23G 6G16G22G20G17G26G21
 -18065631.37344 -14077103.18244  21544995.1484   21544995.5494
 -20626869.98844 -16072878.51844  20372321.9334   20372321.4314
  11988016.32144   9341311.79344  23950772.1634   23950771.9944
  -6796264.81144  -5295789.22244  23520303.0024   23520301.2794
   8613101.36644   6711507.91044  24072366.9724   24072368.0684
 -22883661.79144 -17831406.43244  21019999.6494   21019999.6894
  -8675671.06344  -6760260.68144  22312633.7364   22312633.2554
  -1169104.02944   -910988.51644  24849860.8474   24849867.2164
 96  4  3  4 20  0.0000000  0  8G23G 6G16G22G20G17G26G21
 -18128437.17744 -14126042.75444  21533043.8394   21533044.1334
 -20599052.25544 -16051202.37244  20377615.5704   20377614.9484
  12088079.15544   9419282.86644  23969813.7204   23969813.2054
  -6826479.52844  -5319333.16744  23514553.2754   23514552.7664
   8716973.50944   6792447.27044  24092132.8344   24092132.8154
 -22912785.16344 -17854099.95644  21014457.6234   21014457.9184
  -8708647.98444  -6785956.97244  22306359.0004   22306357.6214
  -1265793.53844   -986330.96344  24831465.2904   24831466.8824
 96  4  3  4 20 30.0000000  0  8G23G 6G16G22G20G17G26G21
 -18190865.04144 -14174687.82844  21521164.2104   21521164.4864
 -20570767.69844 -16029162.46944  20382997.9904   20382997.5674
  12188258.12844   9497344.37744  23988877.0844   23988878.0584
  -6856184.74844  -5342480.12044  23508900.8984   23508899.3234
   8820840.13944   6873382.31344  24111896.8664   24111897.0254
 -22941719.74544 -17876646.37344  21008951.7764   21008951.8154
  -8741115.54044  -6811256.34944  22300180.5174   22300180.0524
  -1362339.61644  -1061561.61844  24813093.7004   24813090.9944
 96  4  3  4 21  0.0000000  0  8G23G 6G16G22G20G17G26G21
 -18252911.73444 -14223035.88244  21509357.1134   21509357.1254
 -20542026.23144 -16006766.53144  20388467.3404   20388466.8304
  12288531.38744   9575479.39244  24007957.3654   24007959.1494
  -6885383.36644  -5365232.65244  23503344.3894   23503344.4734
   8924683.49044   6954299.22144  24131659.2324   24131659.9954
 -22970475.17444 -17899053.19244  21003479.6884   21003479.7844
  -8773070.78144  -6836156.51744  22294099.6374   22294098.7994
  -1458747.98344                  24794748.8624
 96  4  3  4 21 30.0000000  0  8G23G 6G16G22G20G17G26G21
 -18314570.90544 -14271081.97444  21497623.8984   21497623.8034
 -20512816.08144 -15984005.38244  20394026.0654   20394025.5394
  12388897.28444   9653686.57744  24027056.0794   24027058.2184
  -6914074.11644  -5387590.56644  23497884.5824   23497884.6554
   9028490.90144   7035188.10744  24151413.3934   24151412.4174
 -22999061.04744 -17921327.88844  20998040.2234   20998039.9964
  -8804512.75144  -6860656.72844  22288116.4244   22288115.9144
  -1555033.01144  -1211712.35944  24776424.8654
 96  4  3  4 22  0.0000000  0  8G23G 6G16G22G20G17G26G21
 -18375838.92844 -14318823.28044  21485964.6994   21485965.0324
 -20483097.80844 -15960848.29144  20399681.1584   20399680.7624
  12489359.85044   9731969.06244  24046174.8444   24046175.2454
  -6942263.21844  -5409555.11044  23492520.3854   23492521.6864
   9132273.55044   7116057.69644  24171162.2354   24171164.4764
 -23027467.31344 -17943462.63344  20992634.7084   20992634.2744
  -8835422.79544  -6884742.46644  22282233.9484   22282234.0414
  -1651189.99844  -1286639.93744  24758127.5964   24758124.7844
 96  4  3  4 22 30.0000000  0  8G23G 6G16G22G20G17G26G21
 -18436730.64144 -14366271.35244  21474377.4004   21474377.6454
 -20452896.18844 -15937314.57544  20405428.5274   20405427.7804
  12589865.87344   9810285.47744  24065301.0764   24065300.6084
  -6969980.15344  -5431152.75944  23487246.0554   23487247.8984
   9236001.71644   7196884.86444  24190899.6644   24190899.9414
 -23055714.52744 -17965473.43844  20987259.3354   20987259.3904
  -8865828.47144  -6908435.18444  22276447.9294   22276447.5264
  -1747250.91644  -1361492.56544  24739847.4744   24739842.8664
 96  4  3  4 23  0.0000000  0  8G23G 6G16G22G20G17G26G21
 -18497235.17244 -14413417.72544  21462863.7044   21462864.1004
 -20422199.93044 -15913395.41944  20411269.7134   20411269.3454
  12690421.63944   9888640.61444  24084436.7634   24084438.0124
  -6997219.19844  -5452378.00644  23482062.9934   23482063.4834
   9339680.02944   7277673.14944  24210629.8474   24210631.2964
 -23083784.56744 -17987346.18644  20981917.5514   20981917.7824
  -8895724.72144  -6931730.94844  22270758.8014   22270758.4064
  -1843198.67144  -1436257.03744  24721587.2174   24721585.4124
 96  4  3  4 23 30.0000000  0  8G23G 6G16G22G20G17G26G21
 -18557338.92644 -14460251.80744  21451426.5144   21451426.6824
 -20390991.53444 -15889077.19844  20417208.3384   20417207.9234
  12791058.22944   9967058.74644  24103586.2064   24103586.8394
  -7023944.57944  -5473202.98644  23476976.6034   23476978.2334
   9443326.77944   7358436.88344  24230353.5534   24230355.2544
 -23111657.23044 -18009065.13144  20976613.5294   20976613.8434
  -8925107.39644  -6954626.52944  22265167.8884   22265166.7414
  -1939008.55544  -1510914.08144  24703355.9044   24703357.3014
 96  4  3  4 24  0.0000000  0  8G23G 6G16G22G20G17G26G21
 -18617041.95544 -14506773.63544  21440065.1274   21440065.5744
 -20359283.64744 -15864369.76144  20423242.0634   20423241.5954
  12891774.01844  10045538.56344  24122751.4824   24122751.0324
  -7050133.42644  -5493609.88544  23471992.5124   23471993.0514
   9546963.27344   7439192.56444  24250075.0134   24250076.4884
 -23139319.51944 -18030620.15244  20971349.6734   20971349.9824
  -8953975.12644  -6977120.86644  22259674.0754   22259673.0844
  -2034670.11444  -1585455.49644  24685152.7934   24685151.2834
 96  4  3  4 24 30.0000000  0  8G23G 6G16G22G20G17G26G21
 -18676352.06944 -14552989.29244  21428778.8824   21428779.1204
 -20327093.71044 -15839286.70344  20429367.7794   20429367.3644
  12992573.49144  10124083.61344  24141933.3154   24141934.9634
  -7075779.78344  -5513594.06744  23467112.5554   23467114.1514
   9650574.43144   7519928.57544  24269790.9754   24269791.8644
 -23166768.80644 -18052009.19344  20966126.1934   20966126.0834
  -8982329.95944  -6999215.53344  22254278.5834   22254278.2914
  -2130193.57344  -1659889.33844  24666975.0704   24666977.0904
 96  4  3  4 25  0.0000000  0  8G23G 6G16G22G20G17G26G21
 -18735288.77744 -14598913.98844  21417563.4814   21417563.8894
 -20294417.61544 -15813824.82144  20435585.8254   20435585.3084
  13093462.93444  10202698.73444  24161132.5124   24161132.4424
  -7100881.28544  -5533153.68444  23462336.5064   23462336.8594
   9754155.12144   7600640.80544  24289502.2804   24289502.8444
 -23193998.08844 -18073226.79544  20960944.6954   20960944.3844
  -9010163.08544  -7020903.67544  22248982.5864   22248981.8284
  -2225581.05144  -1734217.20544  24648822.3364   24648823.2064
 96  4  3  4 25 30.0000000  0  8G23G 6G16G22G20G17G26G21
 -18793834.54544 -14644534.05244  21406422.7954   21406423.0144
 -20261257.28644 -15787985.61144  20441896.0804   20441895.4204
  13194450.57744  10281390.38244  24180349.7064   24180352.0784
  -7125433.72944  -5552285.42944  23457664.9004   23457664.6684
   9857707.77544   7681331.17244  24309207.1674   24309209.0814
 -23221009.05844 -18094274.29444  20955804.8744   20955804.7484
  -9037454.39144  -7042169.72744  22243788.9934   22243788.6554
  -2320833.85844  -1808440.16144  24630695.7564   24630698.9204
 96  4  3  4 26  0.0000000  0  8G23G 6G16G22G20G17G26G21
 -18851990.72644 -14689850.55044  21395355.8354   21395356.1874
 -20227615.82744 -15761771.49744  20448297.8414   20448297.4404
  13295530.21844  10360153.74444  24199584.4854   24199586.7324
  -7149475.67544  -5571019.41744  23453089.6364   23453089.0494
   9961222.13744   7761991.72444  24328905.7114   24328905.5494
 -23247821.90744 -18115167.41444  20950702.3624   20950702.5594
  -9064195.03744  -7063006.40644  22238700.8114   22238700.2064
  -2415965.90644  -1882569.00344  24612593.1674   24612599.5744
 96  4  3  4 26 30.0000000  0  8G23G 6G16G22G20G17G26G21
 -18909738.83144 -14734849.06044  21384366.8534   21384367.2794
 -20193476.99544 -15735169.81744  20454794.3164   20454793.7274
  13396720.59644  10439003.37144  24218839.9674   24218841.2194
  -7173015.79544  -5589362.34444  23448609.1614   23448608.5434
  10064695.51544   7842620.35544  24348595.5134   24348595.8744
 -23274433.53044 -18135903.72744  20945638.3414   20945638.3574
  -9090378.43544  -7083409.06244  22233717.6704   22233717.0584
  -2510969.56644  -1956597.76144  24594511.8384   24594515.8154
 96  4  3  4 27  0.0000000  0  8G23G 6G16G22G20G17G26G21
 -18967071.76644 -14779524.06844  21373456.9754   21373457.1024
 -20158848.05044 -15708186.23444  20461384.0114   20461383.5744
  13498013.87844  10517933.17744  24238115.4834   24238116.2664
  -7196061.75344  -5607320.22344  23444224.3234   23444224.4464
  10168124.93244   7923214.72444  24368277.9144   24368278.2554
 -23300863.92144 -18156498.82144  20940608.8604   20940608.9124
  -9116024.15744  -7103392.73844  22228837.6504   22228836.6784
  -2605844.16344  -2030525.98744  24576457.7854   24576461.0084
 96  4  3  4 27 30.0000000  0  8G23G 6G16G22G20G17G26G21
 -19023979.38544 -14823867.65744  21362627.6134   21362628.1024
 -20123726.40144 -15680818.72344  20468067.2904   20468066.7514
  13599414.97444  10596947.01644  24257411.1384   24257410.9554
  -7218609.20644  -5624889.67144  23439933.8504   23439933.6204
  10271510.44644   8003774.89144  24387951.8104   24387949.5614
 -23327123.69444 -18176960.96644  20935612.0074   20935611.9834
  -9141139.85444  -7122963.39244  22224057.9974   22224057.2364
  -2700587.83644  -2104352.19344  24558429.1804   24558433.6554
 96  4  3  4 28  0.0000000  0  8G23G 6G16G22G20G17G26G21
 -19080489.34944 -14867901.38744  21351873.8534   21351874.1364
 -20088107.46844 -15653063.71944  20474845.4744   20474845.0114
  13700897.90044  10676024.60844  24276723.2714   24276721.8354
  -7240666.79944  -5642077.38744  23435736.1044   23435735.7984
  10374845.54244   8084295.73744  24407616.1514   24407615.0864
 -23353219.60144 -18197295.43144  20930645.6244   20930645.6124
  -9165745.27544  -7142136.42044  22219376.4114   22219375.5604
  -2795209.12844  -2178083.06044  24540426.8874   24540426.6254
 96  4  3  4 28 30.0000000  0  8G23G 6G16G22G20G17G26G21
 -19136623.27744 -14911642.10144  21341192.5924   21341192.5474
 -20051996.20844 -15624925.08444  20481717.0174   20481716.4934
  13802431.49144  10755141.68344  24296044.1084   24296045.9464
  -7262216.11244  -5658869.06144  23431635.8614   23431635.1544
  10478123.52844   8164772.13844  24427269.2924   24427272.1274
 -23379144.14744 -18217496.36144  20925712.6204   20925712.7864
  -9189856.00544  -7160923.98944  22214787.7504   22214786.8034
  -2889711.31044  -2251721.10744  24522443.8324   24522443.7244
 96  4  3  4 29  0.0000000  0  8G23G 6G16G22G20G17G26G21
 -19192408.64944 -14955111.20944  21330576.8284   21330576.5964
 -20015406.45544 -15596413.60044  20488679.9194   20488679.5804
  13903991.55544  10834279.40244  24315370.6584   24315371.7794
  -7283260.29344  -5675267.13844  23427631.2934   23427631.8684
  10581325.47944   8245189.24944  24446906.1604   24446907.0644
 -23404913.43344 -18237576.31444  20920809.1014   20920808.8414
  -9213479.30744  -7179331.74144  22210292.2014   22210291.0434
  -2984091.21144  -2325263.87544  24504484.2394   24504480.8314
 96  4  3  4 29 30.0000000  0  8G23G 6G16G22G20G17G26G21
 -19247823.90944 -14998291.92244  21320031.5334   21320031.6764
 -19978314.73144 -15567510.96844  20495738.0694   20495737.5474
  14005591.61044  10913448.28644  24334704.0374   24334702.9404
  -7303773.99244  -5691251.83044  23423726.9774   23423727.5704
  10684474.81844   8325565.38644  24466536.3584   24466536.2874
 -23430488.85644 -18257505.20544  20915942.1974   20915942.1794
  -9236576.96144  -7197329.89744  22205896.7454   22205896.0914
  -3078320.76244  -2398689.51344  24486553.4434   24486549.8954
 96  4  3  4 30  0.0000000  0  8G23G 6G16G22G20G17G26G21
 -19302870.31644 -15041185.21244  21309556.7034   21309556.6904
 -19940740.52144 -15538232.37644  20502888.3304   20502887.8964
  14107215.78644  10992635.94544  24354043.0934   24354043.7124
  -7323763.29544  -5706827.89244  23419923.0314   23419923.4534
  10787565.22544   8405895.57444  24486152.1864   24486150.9284
 -23455884.49544 -18277294.00444  20911109.4454   20911109.5134
  -9259150.83244  -7214919.90544  22201601.3634   22201600.7324
  -3172394.90344  -2471994.02744  24468651.3584   24468648.1104
 96  4  3  4 30 30.0000000  0  8G23G 6G16G22G20G17G26G21
 -19357534.13644 -15083780.38944  21299154.2684   21299154.6404
 -19902699.78344 -15508590.25044  20510127.2364   20510126.6914
  14208883.85244  11071857.82444  24373388.9744   24373386.4984
  -7343211.40144  -5721982.24644  23416221.9364   23416222.3434
  10890591.52344   8486175.83144  24505759.1704
 -23481089.11844 -18296933.96244  20906313.2094   20906312.9644
  -9281183.73444  -7232088.39044  22197408.2524   22197407.4674
  -3266292.67944  -2545161.16144  24450784.1234   24450782.1484
 96  4  3  4 31  0.0000000  0  8G23G 6G16G22G20G17G26G21
 -19411803.25044 -15126067.99844  21288827.4414   21288827.4494
 -19864200.98344 -15478591.19444  20517453.4584   20517453.1164
  14310605.33244  11151121.28144  24392745.2884   24392746.9144
  -7362136.43944  -5736729.05544  23412620.4914   23412620.8854
  10993546.06144   8566400.13344  24525349.8394
 -23506108.89044 -18316429.88244  20901552.1764   20901551.8374
  -9302669.47344  -7248830.50044  22193319.9424   22193319.1414
  -3360015.41944  -2618191.85344  24432948.1764   24432947.0994
 96  4  3  4 31 30.0000000  0  8G23G 6G16G22G20G17G26G21
 -19465661.57744 -15168035.51744  21278577.9494   21278578.3024
 -19825226.65744 -15448221.59944  20524869.9894   20524869.5214
  14412388.34744  11230432.71344  24412114.3324   24412115.6774
  -7380532.69344  -5751063.82744  23409119.6534   23409119.6344
  11096443.31844                  24544931.5174
 -23530929.24044 -18335770.41744  20896829.0164   20896828.7114
  -9323592.66944  -7265134.27544  22189338.3174   22189337.7984
  -3453578.97744  -2691098.51044  24415142.4084   24415140.4334
 96  4  3  4 32  0.0000000  0  8G23G 6G16G22G20G17G26G21
 -19519118.43244 -15209690.20144  21268405.7654   21268405.7944
 -19785768.88944 -15417475.29744  20532378.3114   20532377.9224
  14514240.48044  11309798.04344  24431496.8124   24431496.3164
  -7398402.78444  -5764988.55544  23405719.9904   23405720.4704
  11199269.59844                  24564498.8364
 -23555544.49544 -18354951.12944  20892144.8014   20892144.6544
  -9343958.34044  -7281003.61044  22185462.5744   22185461.9264
  -3546975.98144  -2763875.40944  24397368.4964   24397368.0214
 96  4  3  4 32 30.0000000  0  8G23G 6G16G22G20G17G26G21
 -19572189.22344 -15251044.05544  21258306.6774   21258306.9914
 -19745827.05244 -15386351.79844  20539979.3134   20539978.8264
  14616154.18444  11389211.35044  24450889.5224   24450892.6684
  -7415775.58444  -5778525.79144  23402413.8544   23402414.2554
  11302002.99744                  24584047.2264
 -23579948.06644 -18373966.89144  20887500.9494   20887501.0114
  -9363776.69244  -7296446.45544  22181691.6804   22181690.9644
  -3640231.26144  -2836541.84544  24379621.6044   24379622.9554
 96  4  3  4 33  0.0000000  0  8G23G 6G16G22G20G17G26G21
 -19624870.22144 -15292094.17144  21248281.8224   21248281.7644
 -19705394.48844 -15354845.91844  20547673.3054   20547672.9454
  14718115.20744  11468661.47744  24470292.0834   24470292.4484
  -7432672.64344  -5791692.32044  23399198.8864   23399199.0074
  11404639.67444   8886732.85644  24603580.6284
 -23604155.48944 -18392829.81244  20882894.4834   20882894.5204
  -9383061.96444  -7311473.92344  22178021.2504   22178020.6894
  -3733360.67944  -2909110.21244  24361900.0274   24361902.3664
 96  4  3  4 33 30.0000000  0  8G23G 6G16G22G20G17G26G21
 -19677141.21544 -15332824.80244  21238334.9094   21238335.0454
 -19664460.97644 -15322949.68844  20555462.5634   20555462.0314
  14820130.11244  11548153.58944  24489705.5504   24489704.6524
  -7449066.96144  -5804467.12644  23396078.7024   23396078.3674
  11507193.17744                  24623096.2724
 -23628147.26044 -18411524.69644  20878328.9954   20878328.7884
  -9401802.50244  -7326076.92544  22174455.8934   22174455.1684
  -3826329.36044  -2981553.29744  24344207.0934   24344210.7774
 96  4  3  4 34  0.0000000  0  8G23G 6G16G22G20G17G26G21
 -19728987.73444 -15373224.67744  21228468.9894   21228469.3984
 -19623040.90444 -15290674.31844  20563344.9234   20563344.5374
  14922200.21944  11627688.70344  24509127.7794   24509129.5014
  -7464955.40044  -5816847.72744  23393055.8604   23393055.4154
  11609651.96544                  24642578.1434
 -23651929.97744 -18430056.68044  20873803.1664   20873803.4434
  -9419985.71444  -7340245.64544  22170995.6554   22170994.6174
  -3919113.54244  -3053852.65344  24326552.6654   24326554.7714
 96  4  3  4 34 30.0000000  0  7G23G16G 6G22G17G26G21
 -19780414.06544 -15413297.13344  21218682.5334   21218682.7934
  15024295.42744  11707243.45244  24528556.8084   24528557.2464
 -19581153.86644 -15258035.07944  20571315.6714   20571315.2934
  -7480337.83144  -5828834.02644  23390128.4924   23390128.4774
 -23675542.85944 -18448456.32844  20869309.6744   20869310.0964
  -9437614.30244  -7353982.18644  22167640.5894   22167640.8034
  -4011743.52744  -3126031.87144  24308926.2254   24308928.4874
 96  4  3  4 35  0.0000000  0  7G23G 6G16G22G17G26G21
 -19831424.11044 -15453045.21044  21208975.6344   21208975.8394
 -19538817.53944 -15225045.74344  20579371.8134   20579371.3534
  15126389.29244  11786797.10344  24547985.6974   24547985.1464
  -7495200.18244  -5840415.06044  23387300.4344   23387300.0244
 -23699014.39744 -18466745.83744  20864843.0764   20864843.1744
  -9454705.15344  -7367299.72144  22164388.4744   22164387.1294
  -4104222.20544  -3198093.15644  24291328.9824   24291330.4944
 96  4  3  4 35 30.0000000  0  8G23G 6G16G22G20G17G26G21
 -19882012.72444 -15492464.90344  21199349.1124   21199348.9954
 -19496016.43644 -15191694.24644  20587516.8634   20587516.4344
  15228485.40044  11866352.50544  24567414.1194   24567410.7854
  -7509527.51344  -5851579.23244  23384574.0944   23384572.9044
        -0.65754                  24700969.5394
 -23722332.48244 -18484915.78944  20860405.9614   20860405.9164
  -9471244.13244  -7380187.22144  22161240.9714   22161240.8374
  -4196555.25844  -3270040.97744  24273759.8024   24273761.2174
 96  4  3  4 36  0.0000000  0  8G23G 6G16G22G20G17G26G21
 -19932167.59844 -15531546.61544  21189804.9724   21189805.1914
 -19452711.51344 -15157950.16544  20595757.1724   20595756.5394
  15330611.91344  11945931.60944  24586847.5164   24586848.5624
  -7523301.11044  -5862311.88744  23381953.2424   23381952.6514
    102070.78844                  24720392.3934
 -23745479.46144 -18502952.40544  20856001.2204   20856001.3484
  -9487199.79644  -7392620.18644  22158204.8144   22158203.3794
  -4288749.73144  -3341880.83044  24256215.1814   24256215.5564
 96  4  3  4 36 30.0000000  0  8G23G 6G16G22G20G17G26G21
 -19981924.09544 -15570317.90144  21180336.6094   21180336.9594
 -19408919.23544 -15123826.32144  20604090.8684   20604090.3654
  15432742.24944  12025513.73044  24606281.6064   24606278.7564
  -7536553.06044  -5872638.08644  23379431.6894   23379431.7524
    204035.24244                  24739797.0694
 -23768463.76544 -18520862.26044  20851627.3794   20851627.7114
  -9502623.87744  -7404638.93644  22155270.1164   22155269.5594
  -4380830.05044  -3413631.71744  24238691.9684   24238693.0964
 96  4  3  4 37  0.0000000  0  7G23G 6G16G22G17G26G21
 -20031274.99044 -15608773.13344  21170945.4864   21170945.7824
 -19364626.78744 -15089312.73644  20612519.3704   20612518.6744
  15534895.01144  12105113.33944  24625719.6144
  -7549294.87944  -5882566.77844  23377006.5274   23377006.0704
 -23791249.83644 -18538617.64344  20847291.4824   20847291.6784
  -9517501.22744  -7416231.66244  22152438.8804   22152438.1504
  -4472768.31344  -3485271.90944  24221197.7424   24221199.4524
 96  4  3  4 37 30.0000000  0  8G23G 6G16G22G28G17G26G21
 -20080204.08444 -15646899.68744  21161634.5764   21161634.9964
 -19319808.51644 -15054389.41544  20621048.1614   20621047.8064
  15637104.86344  12184757.40144  24645170.5854   24645171.1054
  -7561519.71044  -5892092.60344  23374679.5604   23374680.3674
        -0.02214         0.06414  25342052.964    25342054.737
 -23813790.78644 -18556182.02244  20843002.2194   20843002.2284
  -9531782.93644  -7427360.24344  22149721.0834   22149720.2804
  -4564529.14144  -3556773.84244  24203736.0594   24203736.2324
 96  4  3  4 38  0.0000000  0  8G23G 6G16G22G28G17G26G21
 -20128741.94344 -15684721.38544  21152398.2614   21152398.5184
 -19274493.66144 -15019079.15144  20629671.0434   20629670.5524
  15739357.76144  12264434.99044  24664629.4814   24664630.9144
  -7573242.42644  -5901227.19444  23372448.9034   23372450.1514
   -105916.642 4    -82532.364 4  25321896.638    25321901.324
 -23836098.28444 -18573564.48644  20838757.3714   20838757.3644
  -9545484.50044  -7438036.77144  22147113.6994   22147112.8914
  -4656096.31644  -3628124.88644  24186311.8104   24186309.1484
 96  4  3  4 38 30.0000000  0  8G23G 6G16G22G28G17G26G21
 -20176903.57644 -15722249.92144  21143233.3514   21143233.4704
 -19228698.85644 -14983394.89644  20638385.8404   20638385.2414
  15841645.14144  12344139.45444  24684093.4584   24684095.1444
  -7584475.53044  -5909980.27244  23370310.7934   23370311.6824
   -211851.900 4   -165079.290 4  25301737.690    25301745.939
 -23858178.45944 -18590769.81244  20834555.3834   20834555.5114
  -9558625.73944  -7448276.69144  22144612.4074   22144612.0074
  -4747455.90344  -3699314.17744  24168925.5114   24168924.9854
 96  4  3  4 39  0.0000000  0  8G23G 6G16G22G28G17G26G21
 -20224664.11544 -15759465.91444  21134144.9374   21134144.7574
 -19182398.83244 -14947316.96544  20647196.4604   20647196.0144
  15943986.78944  12423886.19844  24703569.1614   24703566.2664
  -7595189.87244  -5918329.11744  23368272.4524   23368271.8954
   -317784.211 4   -247623.885 4  25281578.863    25281592.123
 -23880034.71044 -18607800.64444  20830396.2474   20830396.0494
  -9571173.06544  -7458053.80844  22142225.4974   22142224.3274
  -4838599.36944  -3770335.02944  24151581.2054   24151582.1454
 96  4  3  4 39 30.0000000  0  8G23G26G 6G16G22G28G17G21
 -20272043.48844 -15796384.89444  21125128.7884   21125128.7384
  -9583165.02044  -7467398.17244  22139943.0914   22139941.9824
 -19135619.34044 -14910865.42544  20656097.8664   20656097.2424
  16046362.00344  12503659.08744  24723050.0774   24723048.0124
  -7605395.75144  -5926281.72744  23366330.7034   23366331.4814
   -423730.499 4   -330179.505 4  25261418.987    25261426.596
 -23901696.89944 -18624680.26344  20826274.1884   20826273.8504
  -4929551.15744  -3841206.55744  24134271.6094   24134272.7264
 96  4  3  4 40  0.0000000  0  8G23G26G 6G16G22G28G17G21
 -20319034.80044 -15833001.48644  21116186.5374   21116186.4724
  -9594630.16144  -7476332.02244  22137761.2254   22137761.0134
 -19088360.09844 -14874040.04944  20665091.1774   20665090.5834
  16148771.01144  12583458.32644  24742538.2884   24742538.5864
  -7615082.75144  -5933830.02944  23364487.8444   23364488.0454
   -529699.253 4   -412752.538 4  25241253.859    25241260.577
 -23923193.88544 -18641431.15444  20822183.2324   20822183.1164
  -5020324.88244  -3911939.29444  24116997.8104   24117001.0884
 96  4  3  4 40 30.0000000  0  8G23G26G 6G16G22G28G17G21
 -20365608.79844 -15869292.89844  21107323.8024   21107323.8954
  -9605564.82744  -7484852.53244  22135680.7454   22135679.8784
 -19040622.21044 -14836841.70744  20674175.4254   20674175.0484
  16251210.93444  12663281.66844  24762032.2314   24762032.7474
  -7624248.74044  -5940972.37144  23362744.0034   23362742.4844
   -635694.018 4   -495345.872 4  25221083.511    25221090.016
 -23944539.04844 -18658063.73944  20818121.3794   20818121.3454
  -5110939.21744  -3982547.83944  24099755.5214   24099757.7274
 96  4  3  4 41  0.0000000  0  8G23G26G 6G16G22G28G17G21
 -20411777.87444 -15905268.79344  21098538.0934   21098538.0684
  -9615973.26344  -7492962.98244  22133699.9384   22133699.2914
 -18992443.97644 -14799300.23444  20683343.4484   20683343.0234
  16353638.38044  12743095.20444  24781521.0304   24781522.8444
  -7632911.70544  -5947722.73244  23361094.6544   23361094.1174
   -741735.791 4   -577975.764 4  25200904.018    25200912.021
 -23965760.76844 -18674600.14544  20814083.2874   20814082.9684
  -5201430.97644  -4053060.85544  24082535.3874   24082534.0974
 96  4  3  4 41 30.0000000  0  8G23G26G 6G16G22G28G17G21
 -20457529.69044 -15940919.55244  21089831.9464   21089832.0004
  -9625823.99244  -7500638.84744  22131825.0884   22131824.3044
 -18943814.36244 -14761407.03544  20692597.1144   20692596.6464
  16456066.64344  12822909.42444  24801013.2214   24801013.7974
  -7641050.33444  -5954064.49844  23359545.6894   23359545.2044
   -847802.318 4   -660624.958 4  25180719.487    25180723.620
 -23986820.06044 -18691009.98444  20810075.6354   20810075.4934
  -5291769.72444  -4123454.71644  24065346.1554   24065343.8564
 96  4  3  4 42  0.0000000  0  8G23G26G 6G16G22G28G17G21
 -20502856.50644 -15976239.14344  21081206.5614   21081206.9264
  -9635096.39144  -7507864.06944  22130060.7714   22130059.8684
 -18894725.38344 -14723155.88944  20701938.5394   20701938.0054
  16558502.78544  12902729.87644  24820505.6994   24820503.7814
  -7648655.97944  -5959990.98744  23358098.1174   23358098.4344
   -953883.083 4   -743285.237 4  25160531.936    25160537.694
 -24007705.01344 -18707283.96344  20806101.5334   20806101.6894
  -5381956.92744  -4193730.43344  24048183.8254   24048182.8354
 96  4  3  4 42 30.0000000  0  8G23G26G 6G16G22G28G17G21
 -20547772.96744 -16011238.97744  21072659.4244   21072659.1654
  -9643782.68744  -7514632.59144  22128407.7074   22128407.2134
 -18845178.71444 -14684548.10644  20711367.2494   20711366.6704
  16660932.63344  12982545.34644  24839995.9554
  -7655739.09044  -5965510.26644  23356749.9304   23356750.4574
  -1059972.308 4   -825952.186 4  25140342.455    25140346.916
 -24028398.71044 -18723408.91844  20802163.8484   20802163.5984
  -5471996.49044  -4263891.11244  24031050.8334   24031051.1034
 96  4  3  4 43  0.0000000  0  8G23G26G 6G16G22G28G17G21
 -20592301.25844 -16045936.33844  21064185.7624   21064185.9844
  -9651884.00644  -7520945.29844  22126866.1384   22126865.1784
 -18795155.55744 -14645569.03644  20720885.9914   20720885.5414
  16763362.42344  13062360.68344  24859488.9374   24859491.8834
  -7662300.75044  -5970623.25844  23355501.3254   23355501.9674
  -1166059.275 4   -908617.417 4  25120155.252    25120156.827
 -24048872.22344 -18739362.29844  20798267.8734   20798267.5464
  -5561880.34544  -4333930.49644  24013946.7634   24013946.2214
 96  4  3  4 43 30.0000000  0  8G23G26G 6G16G22G28G17G21
 -20636446.33944 -16080335.09144  21055785.0804   21055785.1904
  -9659423.65944  -7526820.34644  22125431.8964   22125430.9414
 -18744635.76744 -14606202.97144  20730499.7204   20730499.3214
  16865813.75644  13142192.89144  24878986.5974   24878988.7234
  -7668347.08144  -5975334.65944  23354351.3694   23354350.9494
  -1272138.440 4   -991276.285 4  25099971.511    25099995.399
 -24069117.99844 -18755138.21944  20794414.9764   20794414.9604
  -5651595.37444  -4403838.29844  23996874.2544   23996874.8104
 96  4  3  4 44  0.0000000  0  8G23G26G 6G16G22G28G17G21
 -20680190.11844 -16114421.14044  21047461.2574   21047461.4434
  -9666409.03244  -7532263.49144  22124101.8054   22124102.0864
 -18693605.42944 -14566439.08044  20740210.5804   20740210.1704
  16968296.87844                  24898487.8994
  -7673875.72244  -5979642.68844  23353299.9394   23353299.1994
  -1378198.929 4  -1073920.679 4  25079787.496    25079818.554
 -24089130.82244 -18770732.61244  20790606.4954   20790606.5294
  -5741129.47444  -4473605.13244  23979835.2084   23979836.9004
 96  4  3  4 44 30.0000000  0  8G23G26G 6G16G22G28G17G21
 -20723565.37644 -16148220.02644  21039206.6274   21039206.9734
  -9672883.36444  -7537308.41544  22122870.1944   22122868.9884
 -18642098.39144 -14526303.73644  20750012.1204   20750011.7074
  17070758.64944                  24917983.0094
  -7678931.43544  -5983582.21744  23352336.6644   23352336.6214
  -1484284.552 4  -1156584.648 4  25059599.732    25059634.476
 -24108961.17844 -18786184.83244  20786832.9104   20786833.0884
  -5830507.05044  -4543249.97244  23962827.4014   23962828.9004
 96  4  3  4 45  0.0000000  0  7G23G26G16G22G21G 6G17
 -20766575.23944 -16181734.19144  21031022.4274   21031022.5004
  -9678849.65644  -7541957.46244  22121734.4884   22121734.0974
  17173194.65944  13381710.55044  24937479.1564   24937478.7974
  -7683526.28244  -5987162.60344  23351462.2434   23351462.8774
  -5919720.06944  -4612766.57944  23945851.6944   23945850.5774
 -18590133.96244 -14485811.97944  20759900.6144   20759900.1954
 -24128627.23044 -18801509.02244  20783090.7104   20783090.6264
 96  4  3  4 45 30.0000000  0  7G23G26G16G22G21G 6G17
 -20809115.81344 -16214882.67744  21022926.9564   21022927.2154
  -9684215.79244  -7546138.86044  22120713.8544   22120713.2344
  17275673.52844  13461564.19844  24956981.4764   24956981.8504
  -7687572.65644  -5990315.59944  23350692.0814   23350692.2154
  -6008677.50844  -4682084.07244  23928923.6304   23928923.1064
 -18537636.26544 -14444904.69044  20769890.2624   20769889.9664
 -24148061.98944 -18816652.97844  20779392.4164   20779392.2964
 96  4  3  4 46  0.0000000  0  7G23G26G16G22G21G 6G17
 -20851146.05544 -16247633.50544  21014928.9924   21014929.1424
  -9688923.61044  -7549807.27744  22119817.8784   22119817.1284
  17378202.86344  13541457.27744  24976491.9994
  -7691038.30544  -5993016.10844  23350033.5284   23350033.8734
  -6097358.01244  -4751185.78244  23912047.7584   23912048.8164
 -18484593.52044 -14403572.69344  20779984.1474   20779984.0594
 -24167240.56444 -18831597.31844  20775742.9334   20775742.6014
 96  4  3  4 46 30.0000000  0  6G23G22G26G21G 6G17
 -20892749.24044 -16280051.55744  21007012.2694   21007012.3484
  -7693999.03644  -5995323.16644  23349469.9234   23349470.1604
  -9693034.82344  -7553010.80444  22119035.6154   22119034.8634
  -6185838.19544  -4820131.34944  23895210.0594   23895211.1294
 -18431085.71044 -14361878.30644  20790166.1644   20790165.8484
 -24186247.98444 -18846408.28544  20772125.6604   20772125.7244
 96  4  3  4 47  0.0000000  0  6G23G26G22G21G 6G17
 -20933960.84744 -16312164.48744  20999169.8154   20999169.9104
  -9696563.33744  -7555760.29044  22118364.3544   22118363.6184
  -7696472.98244  -5997250.91044  23348999.1074   23348999.2144
  -6274144.84344  -4888941.70544  23878406.3594   23878406.8544
 -18377131.78044 -14319836.29544  20800433.5374   20800433.1644
 -24205097.11044 -18861095.90544  20768538.9724   20768538.8884
 96  4  3  4 47 30.0000000  0  6G23G26G 6G22G17G21
 -20974748.30944 -16343946.91044  20991408.1614   20991408.4414
  -9699480.18744  -7558033.13944  22117808.8434   22117808.4744
 -18322691.80344 -14277415.54244  20810793.0454   20810792.6504
  -7698421.06744  -5998768.85944  23348628.3854   23348629.0924
 -24223753.80444 -18875633.57844  20764988.7544   20764988.3784
  -6362257.71344  -4957601.08344  23861639.4304   23861639.9024
